<?xml version="1.0" encoding="UTF-8" standalone="no" ?>
<gpx xmlns="http://www.topografix.com/GPX/1/1" creator="www.cicloide.com" version="1.1" xmlns:xsi="http://www.w3.org/2001/XMLSchema-instance" xsi:schemaLocation="http://www.topografix.com/GPX/1/1 http://www.topografix.com/GPX/1/1/gpx.xsd">
  <trk>
    <name>www.cicloide.com 8614</name>
    <desc>www.cicloide.com 8614</desc>
    <trkseg>
      <trkpt lat="41.605663000" lon="2.540299100">
        <ele>114.10</ele>
        <time>2012-04-22T07:39:11Z</time>
      </trkpt>
      <trkpt lat="41.605652000" lon="2.540344100">
        <ele>114.10</ele>
        <time>2012-04-22T07:39:12Z</time>
      </trkpt>
      <trkpt lat="41.605663000" lon="2.540394100">
        <ele>114.10</ele>
        <time>2012-04-22T07:39:24Z</time>
      </trkpt>
      <trkpt lat="41.605694000" lon="2.540310100">
        <ele>114.10</ele>
        <time>2012-04-22T07:39:35Z</time>
      </trkpt>
      <trkpt lat="41.605694000" lon="2.540298100">
        <ele>114.10</ele>
        <time>2012-04-22T07:39:40Z</time>
      </trkpt>
      <trkpt lat="41.605682000" lon="2.540274100">
        <ele>114.10</ele>
        <time>2012-04-22T07:39:47Z</time>
      </trkpt>
      <trkpt lat="41.605663000" lon="2.540277100">
        <ele>114.10</ele>
        <time>2012-04-22T07:39:54Z</time>
      </trkpt>
      <trkpt lat="41.605652000" lon="2.540286100">
        <ele>114.10</ele>
        <time>2012-04-22T07:40:03Z</time>
      </trkpt>
      <trkpt lat="41.605621000" lon="2.540289100">
        <ele>114.10</ele>
        <time>2012-04-22T07:40:13Z</time>
      </trkpt>
      <trkpt lat="41.605618000" lon="2.540287100">
        <ele>114.10</ele>
        <time>2012-04-22T07:40:15Z</time>
      </trkpt>
      <trkpt lat="41.605644000" lon="2.540320100">
        <ele>114.10</ele>
        <time>2012-04-22T07:40:22Z</time>
      </trkpt>
      <trkpt lat="41.605770000" lon="2.540370100">
        <ele>114.10</ele>
        <time>2012-04-22T07:40:29Z</time>
      </trkpt>
      <trkpt lat="41.605885000" lon="2.540465100">
        <ele>114.50</ele>
        <time>2012-04-22T07:40:36Z</time>
      </trkpt>
      <trkpt lat="41.605953000" lon="2.540538100">
        <ele>115.50</ele>
        <time>2012-04-22T07:40:41Z</time>
      </trkpt>
      <trkpt lat="41.606133000" lon="2.540641100">
        <ele>115.50</ele>
        <time>2012-04-22T07:40:48Z</time>
      </trkpt>
      <trkpt lat="41.606339000" lon="2.540703100">
        <ele>116.00</ele>
        <time>2012-04-22T07:40:57Z</time>
      </trkpt>
      <trkpt lat="41.606617000" lon="2.540814100">
        <ele>117.40</ele>
        <time>2012-04-22T07:41:07Z</time>
      </trkpt>
      <trkpt lat="41.606903000" lon="2.540913100">
        <ele>117.90</ele>
        <time>2012-04-22T07:41:16Z</time>
      </trkpt>
      <trkpt lat="41.607197000" lon="2.541011100">
        <ele>118.90</ele>
        <time>2012-04-22T07:41:26Z</time>
      </trkpt>
      <trkpt lat="41.607502000" lon="2.541045100">
        <ele>119.80</ele>
        <time>2012-04-22T07:41:37Z</time>
      </trkpt>
      <trkpt lat="41.607777000" lon="2.541040100">
        <ele>120.30</ele>
        <time>2012-04-22T07:41:44Z</time>
      </trkpt>
      <trkpt lat="41.608002000" lon="2.541068100">
        <ele>120.80</ele>
        <time>2012-04-22T07:41:51Z</time>
      </trkpt>
      <trkpt lat="41.608257000" lon="2.541163100">
        <ele>121.30</ele>
        <time>2012-04-22T07:41:58Z</time>
      </trkpt>
      <trkpt lat="41.608456000" lon="2.541314100">
        <ele>122.20</ele>
        <time>2012-04-22T07:42:06Z</time>
      </trkpt>
      <trkpt lat="41.608654000" lon="2.541490100">
        <ele>123.20</ele>
        <time>2012-04-22T07:42:15Z</time>
      </trkpt>
      <trkpt lat="41.608902000" lon="2.541529100">
        <ele>124.20</ele>
        <time>2012-04-22T07:42:22Z</time>
      </trkpt>
      <trkpt lat="41.609238000" lon="2.541491100">
        <ele>125.10</ele>
        <time>2012-04-22T07:42:34Z</time>
      </trkpt>
      <trkpt lat="41.609554000" lon="2.541444100">
        <ele>126.10</ele>
        <time>2012-04-22T07:42:45Z</time>
      </trkpt>
      <trkpt lat="41.609848000" lon="2.541403100">
        <ele>127.50</ele>
        <time>2012-04-22T07:42:55Z</time>
      </trkpt>
      <trkpt lat="41.610081000" lon="2.541441100">
        <ele>128.90</ele>
        <time>2012-04-22T07:43:02Z</time>
      </trkpt>
      <trkpt lat="41.610321000" lon="2.541392100">
        <ele>130.40</ele>
        <time>2012-04-22T07:43:11Z</time>
      </trkpt>
      <trkpt lat="41.610573000" lon="2.541295100">
        <ele>131.80</ele>
        <time>2012-04-22T07:43:20Z</time>
      </trkpt>
      <trkpt lat="41.610847000" lon="2.541187100">
        <ele>133.30</ele>
        <time>2012-04-22T07:43:30Z</time>
      </trkpt>
      <trkpt lat="41.611088000" lon="2.541081100">
        <ele>134.20</ele>
        <time>2012-04-22T07:43:39Z</time>
      </trkpt>
      <trkpt lat="41.611374000" lon="2.540954100">
        <ele>135.70</ele>
        <time>2012-04-22T07:43:49Z</time>
      </trkpt>
      <trkpt lat="41.611591000" lon="2.540875100">
        <ele>137.10</ele>
        <time>2012-04-22T07:43:58Z</time>
      </trkpt>
      <trkpt lat="41.611843000" lon="2.540852100">
        <ele>138.10</ele>
        <time>2012-04-22T07:44:05Z</time>
      </trkpt>
      <trkpt lat="41.612152000" lon="2.540857100">
        <ele>139.10</ele>
        <time>2012-04-22T07:44:15Z</time>
      </trkpt>
      <trkpt lat="41.612392000" lon="2.540864100">
        <ele>140.00</ele>
        <time>2012-04-22T07:44:24Z</time>
      </trkpt>
      <trkpt lat="41.612751000" lon="2.540881100">
        <ele>141.90</ele>
        <time>2012-04-22T07:44:36Z</time>
      </trkpt>
      <trkpt lat="41.612976000" lon="2.540895100">
        <ele>143.40</ele>
        <time>2012-04-22T07:44:43Z</time>
      </trkpt>
      <trkpt lat="41.613220000" lon="2.540905100">
        <ele>145.30</ele>
        <time>2012-04-22T07:44:52Z</time>
      </trkpt>
      <trkpt lat="41.613510000" lon="2.540953100">
        <ele>146.70</ele>
        <time>2012-04-22T07:45:02Z</time>
      </trkpt>
      <trkpt lat="41.613758000" lon="2.541013100">
        <ele>148.70</ele>
        <time>2012-04-22T07:45:11Z</time>
      </trkpt>
      <trkpt lat="41.614037000" lon="2.541078100">
        <ele>150.60</ele>
        <time>2012-04-22T07:45:22Z</time>
      </trkpt>
      <trkpt lat="41.614326000" lon="2.541151100">
        <ele>152.50</ele>
        <time>2012-04-22T07:45:32Z</time>
      </trkpt>
      <trkpt lat="41.614639000" lon="2.541238100">
        <ele>153.90</ele>
        <time>2012-04-22T07:45:42Z</time>
      </trkpt>
      <trkpt lat="41.614830000" lon="2.541298100">
        <ele>155.40</ele>
        <time>2012-04-22T07:45:49Z</time>
      </trkpt>
      <trkpt lat="41.615070000" lon="2.541364100">
        <ele>156.80</ele>
        <time>2012-04-22T07:45:58Z</time>
      </trkpt>
      <trkpt lat="41.615314000" lon="2.541429100">
        <ele>157.80</ele>
        <time>2012-04-22T07:46:07Z</time>
      </trkpt>
      <trkpt lat="41.615498000" lon="2.541497100">
        <ele>159.20</ele>
        <time>2012-04-22T07:46:14Z</time>
      </trkpt>
      <trkpt lat="41.615688000" lon="2.541620100">
        <ele>160.70</ele>
        <time>2012-04-22T07:46:23Z</time>
      </trkpt>
      <trkpt lat="41.615829000" lon="2.541719100">
        <ele>161.60</ele>
        <time>2012-04-22T07:46:28Z</time>
      </trkpt>
      <trkpt lat="41.616074000" lon="2.541883100">
        <ele>163.10</ele>
        <time>2012-04-22T07:46:38Z</time>
      </trkpt>
      <trkpt lat="41.616341000" lon="2.542068100">
        <ele>165.50</ele>
        <time>2012-04-22T07:46:49Z</time>
      </trkpt>
      <trkpt lat="41.616570000" lon="2.542169100">
        <ele>166.40</ele>
        <time>2012-04-22T07:46:59Z</time>
      </trkpt>
      <trkpt lat="41.616760000" lon="2.542140100">
        <ele>167.90</ele>
        <time>2012-04-22T07:47:06Z</time>
      </trkpt>
      <trkpt lat="41.616982000" lon="2.541990100">
        <ele>168.90</ele>
        <time>2012-04-22T07:47:13Z</time>
      </trkpt>
      <trkpt lat="41.617245000" lon="2.541711100">
        <ele>169.80</ele>
        <time>2012-04-22T07:47:25Z</time>
      </trkpt>
      <trkpt lat="41.617413000" lon="2.541474100">
        <ele>170.30</ele>
        <time>2012-04-22T07:47:32Z</time>
      </trkpt>
      <trkpt lat="41.617554000" lon="2.541193100">
        <ele>171.20</ele>
        <time>2012-04-22T07:47:41Z</time>
      </trkpt>
      <trkpt lat="41.617699000" lon="2.540898100">
        <ele>173.20</ele>
        <time>2012-04-22T07:47:51Z</time>
      </trkpt>
      <trkpt lat="41.617802000" lon="2.540663100">
        <ele>176.50</ele>
        <time>2012-04-22T07:48:00Z</time>
      </trkpt>
      <trkpt lat="41.617840000" lon="2.540556100">
        <ele>179.90</ele>
        <time>2012-04-22T07:48:04Z</time>
      </trkpt>
      <trkpt lat="41.617931000" lon="2.540342100">
        <ele>180.90</ele>
        <time>2012-04-22T07:48:12Z</time>
      </trkpt>
      <trkpt lat="41.617973000" lon="2.540265100">
        <ele>180.90</ele>
        <time>2012-04-22T07:48:16Z</time>
      </trkpt>
      <trkpt lat="41.618076000" lon="2.540270100">
        <ele>181.80</ele>
        <time>2012-04-22T07:48:21Z</time>
      </trkpt>
      <trkpt lat="41.618107000" lon="2.540389100">
        <ele>182.30</ele>
        <time>2012-04-22T07:48:26Z</time>
      </trkpt>
      <trkpt lat="41.618057000" lon="2.540636100">
        <ele>184.70</ele>
        <time>2012-04-22T07:48:37Z</time>
      </trkpt>
      <trkpt lat="41.617943000" lon="2.540869100">
        <ele>186.10</ele>
        <time>2012-04-22T07:48:45Z</time>
      </trkpt>
      <trkpt lat="41.617977000" lon="2.541060100">
        <ele>187.10</ele>
        <time>2012-04-22T07:48:52Z</time>
      </trkpt>
      <trkpt lat="41.618038000" lon="2.541235100">
        <ele>190.50</ele>
        <time>2012-04-22T07:48:59Z</time>
      </trkpt>
      <trkpt lat="41.618187000" lon="2.541613100">
        <ele>191.90</ele>
        <time>2012-04-22T07:49:12Z</time>
      </trkpt>
      <trkpt lat="41.618328000" lon="2.541967100">
        <ele>192.90</ele>
        <time>2012-04-22T07:49:24Z</time>
      </trkpt>
      <trkpt lat="41.618477000" lon="2.542252100">
        <ele>194.30</ele>
        <time>2012-04-22T07:49:34Z</time>
      </trkpt>
      <trkpt lat="41.618610000" lon="2.542421100">
        <ele>195.80</ele>
        <time>2012-04-22T07:49:43Z</time>
      </trkpt>
      <trkpt lat="41.618782000" lon="2.542597100">
        <ele>197.70</ele>
        <time>2012-04-22T07:49:52Z</time>
      </trkpt>
      <trkpt lat="41.618977000" lon="2.542764100">
        <ele>199.10</ele>
        <time>2012-04-22T07:50:02Z</time>
      </trkpt>
      <trkpt lat="41.619183000" lon="2.542797100">
        <ele>200.10</ele>
        <time>2012-04-22T07:50:09Z</time>
      </trkpt>
      <trkpt lat="41.619373000" lon="2.542791100">
        <ele>201.10</ele>
        <time>2012-04-22T07:50:18Z</time>
      </trkpt>
      <trkpt lat="41.619434000" lon="2.542811100">
        <ele>201.50</ele>
        <time>2012-04-22T07:50:23Z</time>
      </trkpt>
      <trkpt lat="41.619484000" lon="2.542724100">
        <ele>202.00</ele>
        <time>2012-04-22T07:50:30Z</time>
      </trkpt>
      <trkpt lat="41.619553000" lon="2.542727100">
        <ele>202.50</ele>
        <time>2012-04-22T07:50:37Z</time>
      </trkpt>
      <trkpt lat="41.619614000" lon="2.542765100">
        <ele>202.50</ele>
        <time>2012-04-22T07:50:44Z</time>
      </trkpt>
      <trkpt lat="41.619717000" lon="2.542861100">
        <ele>201.50</ele>
        <time>2012-04-22T07:50:51Z</time>
      </trkpt>
      <trkpt lat="41.619839000" lon="2.543018100">
        <ele>200.60</ele>
        <time>2012-04-22T07:50:56Z</time>
      </trkpt>
      <trkpt lat="41.619900000" lon="2.543061100">
        <ele>200.10</ele>
        <time>2012-04-22T07:51:00Z</time>
      </trkpt>
      <trkpt lat="41.620007000" lon="2.542915100">
        <ele>196.70</ele>
        <time>2012-04-22T07:51:05Z</time>
      </trkpt>
      <trkpt lat="41.620075000" lon="2.542801100">
        <ele>193.40</ele>
        <time>2012-04-22T07:51:08Z</time>
      </trkpt>
      <trkpt lat="41.620171000" lon="2.542706100">
        <ele>191.00</ele>
        <time>2012-04-22T07:51:10Z</time>
      </trkpt>
      <trkpt lat="41.620243000" lon="2.542508100">
        <ele>188.60</ele>
        <time>2012-04-22T07:51:15Z</time>
      </trkpt>
      <trkpt lat="41.620258000" lon="2.542455100">
        <ele>189.00</ele>
        <time>2012-04-22T07:51:17Z</time>
      </trkpt>
      <trkpt lat="41.620388000" lon="2.542259100">
        <ele>189.00</ele>
        <time>2012-04-22T07:51:20Z</time>
      </trkpt>
      <trkpt lat="41.620506000" lon="2.542072100">
        <ele>189.00</ele>
        <time>2012-04-22T07:51:26Z</time>
      </trkpt>
      <trkpt lat="41.620583000" lon="2.542011100">
        <ele>189.00</ele>
        <time>2012-04-22T07:51:29Z</time>
      </trkpt>
      <trkpt lat="41.620701000" lon="2.541950100">
        <ele>190.50</ele>
        <time>2012-04-22T07:51:36Z</time>
      </trkpt>
      <trkpt lat="41.620857000" lon="2.541934100">
        <ele>191.90</ele>
        <time>2012-04-22T07:51:43Z</time>
      </trkpt>
      <trkpt lat="41.620972000" lon="2.541950100">
        <ele>195.80</ele>
        <time>2012-04-22T07:51:50Z</time>
      </trkpt>
      <trkpt lat="41.621113000" lon="2.541965100">
        <ele>197.70</ele>
        <time>2012-04-22T07:51:59Z</time>
      </trkpt>
      <trkpt lat="41.621265000" lon="2.542021100">
        <ele>198.60</ele>
        <time>2012-04-22T07:52:09Z</time>
      </trkpt>
      <trkpt lat="41.621399000" lon="2.542114100">
        <ele>199.60</ele>
        <time>2012-04-22T07:52:20Z</time>
      </trkpt>
      <trkpt lat="41.621498000" lon="2.542242100">
        <ele>200.60</ele>
        <time>2012-04-22T07:52:28Z</time>
      </trkpt>
      <trkpt lat="41.621590000" lon="2.542383100">
        <ele>202.00</ele>
        <time>2012-04-22T07:52:37Z</time>
      </trkpt>
      <trkpt lat="41.621593000" lon="2.542515100">
        <ele>203.50</ele>
        <time>2012-04-22T07:52:46Z</time>
      </trkpt>
      <trkpt lat="41.621536000" lon="2.542637100">
        <ele>204.40</ele>
        <time>2012-04-22T07:52:53Z</time>
      </trkpt>
      <trkpt lat="41.621521000" lon="2.542757100">
        <ele>205.40</ele>
        <time>2012-04-22T07:53:00Z</time>
      </trkpt>
      <trkpt lat="41.621586000" lon="2.542758100">
        <ele>206.30</ele>
        <time>2012-04-22T07:53:05Z</time>
      </trkpt>
      <trkpt lat="41.621647000" lon="2.542620100">
        <ele>207.80</ele>
        <time>2012-04-22T07:53:12Z</time>
      </trkpt>
      <trkpt lat="41.621731000" lon="2.542450100">
        <ele>209.20</ele>
        <time>2012-04-22T07:53:22Z</time>
      </trkpt>
      <trkpt lat="41.621830000" lon="2.542368100">
        <ele>210.70</ele>
        <time>2012-04-22T07:53:29Z</time>
      </trkpt>
      <trkpt lat="41.621948000" lon="2.542243100">
        <ele>212.10</ele>
        <time>2012-04-22T07:53:38Z</time>
      </trkpt>
      <trkpt lat="41.622082000" lon="2.542151100">
        <ele>213.10</ele>
        <time>2012-04-22T07:53:48Z</time>
      </trkpt>
      <trkpt lat="41.622097000" lon="2.542148100">
        <ele>213.60</ele>
        <time>2012-04-22T07:53:50Z</time>
      </trkpt>
      <trkpt lat="41.622154000" lon="2.542129100">
        <ele>214.50</ele>
        <time>2012-04-22T07:53:54Z</time>
      </trkpt>
      <trkpt lat="41.622318000" lon="2.542084100">
        <ele>215.90</ele>
        <time>2012-04-22T07:54:04Z</time>
      </trkpt>
      <trkpt lat="41.622433000" lon="2.542062100">
        <ele>219.30</ele>
        <time>2012-04-22T07:54:11Z</time>
      </trkpt>
      <trkpt lat="41.622555000" lon="2.542055100">
        <ele>221.20</ele>
        <time>2012-04-22T07:54:20Z</time>
      </trkpt>
      <trkpt lat="41.622646000" lon="2.542036100">
        <ele>221.20</ele>
        <time>2012-04-22T07:54:27Z</time>
      </trkpt>
      <trkpt lat="41.622765000" lon="2.542011100">
        <ele>221.70</ele>
        <time>2012-04-22T07:54:35Z</time>
      </trkpt>
      <trkpt lat="41.622894000" lon="2.541993100">
        <ele>223.60</ele>
        <time>2012-04-22T07:54:44Z</time>
      </trkpt>
      <trkpt lat="41.623001000" lon="2.541953100">
        <ele>225.10</ele>
        <time>2012-04-22T07:54:53Z</time>
      </trkpt>
      <trkpt lat="41.623154000" lon="2.541868100">
        <ele>227.00</ele>
        <time>2012-04-22T07:55:02Z</time>
      </trkpt>
      <trkpt lat="41.623280000" lon="2.541859100">
        <ele>228.40</ele>
        <time>2012-04-22T07:55:10Z</time>
      </trkpt>
      <trkpt lat="41.623360000" lon="2.541829100">
        <ele>229.40</ele>
        <time>2012-04-22T07:55:16Z</time>
      </trkpt>
      <trkpt lat="41.623455000" lon="2.541705100">
        <ele>232.80</ele>
        <time>2012-04-22T07:55:24Z</time>
      </trkpt>
      <trkpt lat="41.623489000" lon="2.541662100">
        <ele>236.60</ele>
        <time>2012-04-22T07:55:28Z</time>
      </trkpt>
      <trkpt lat="41.623562000" lon="2.541577100">
        <ele>238.10</ele>
        <time>2012-04-22T07:55:33Z</time>
      </trkpt>
      <trkpt lat="41.623642000" lon="2.541490100">
        <ele>238.10</ele>
        <time>2012-04-22T07:55:38Z</time>
      </trkpt>
      <trkpt lat="41.623760000" lon="2.541460100">
        <ele>237.10</ele>
        <time>2012-04-22T07:55:47Z</time>
      </trkpt>
      <trkpt lat="41.623867000" lon="2.541451100">
        <ele>237.10</ele>
        <time>2012-04-22T07:55:54Z</time>
      </trkpt>
      <trkpt lat="41.623913000" lon="2.541445100">
        <ele>238.50</ele>
        <time>2012-04-22T07:55:57Z</time>
      </trkpt>
      <trkpt lat="41.623993000" lon="2.541409100">
        <ele>242.40</ele>
        <time>2012-04-22T07:56:04Z</time>
      </trkpt>
      <trkpt lat="41.624084000" lon="2.541346100">
        <ele>245.80</ele>
        <time>2012-04-22T07:56:11Z</time>
      </trkpt>
      <trkpt lat="41.624210000" lon="2.541275100">
        <ele>245.80</ele>
        <time>2012-04-22T07:56:20Z</time>
      </trkpt>
      <trkpt lat="41.624329000" lon="2.541150100">
        <ele>245.80</ele>
        <time>2012-04-22T07:56:29Z</time>
      </trkpt>
      <trkpt lat="41.624355000" lon="2.541107100">
        <ele>245.80</ele>
        <time>2012-04-22T07:56:32Z</time>
      </trkpt>
      <trkpt lat="41.624386000" lon="2.541065100">
        <ele>245.80</ele>
        <time>2012-04-22T07:56:36Z</time>
      </trkpt>
      <trkpt lat="41.624493000" lon="2.540960100">
        <ele>246.70</ele>
        <time>2012-04-22T07:56:46Z</time>
      </trkpt>
      <trkpt lat="41.624672000" lon="2.540791100">
        <ele>248.20</ele>
        <time>2012-04-22T07:57:00Z</time>
      </trkpt>
      <trkpt lat="41.624783000" lon="2.540661100">
        <ele>250.10</ele>
        <time>2012-04-22T07:57:11Z</time>
      </trkpt>
      <trkpt lat="41.624863000" lon="2.540563100">
        <ele>251.00</ele>
        <time>2012-04-22T07:57:19Z</time>
      </trkpt>
      <trkpt lat="41.624966000" lon="2.540491100">
        <ele>253.00</ele>
        <time>2012-04-22T07:57:28Z</time>
      </trkpt>
      <trkpt lat="41.625019000" lon="2.540467100">
        <ele>253.40</ele>
        <time>2012-04-22T07:57:33Z</time>
      </trkpt>
      <trkpt lat="41.625084000" lon="2.540407100">
        <ele>257.30</ele>
        <time>2012-04-22T07:57:38Z</time>
      </trkpt>
      <trkpt lat="41.625164000" lon="2.540319100">
        <ele>260.20</ele>
        <time>2012-04-22T07:57:45Z</time>
      </trkpt>
      <trkpt lat="41.625305000" lon="2.540203100">
        <ele>260.20</ele>
        <time>2012-04-22T07:57:56Z</time>
      </trkpt>
      <trkpt lat="41.625427000" lon="2.540092100">
        <ele>260.20</ele>
        <time>2012-04-22T07:58:06Z</time>
      </trkpt>
      <trkpt lat="41.625538000" lon="2.540015100">
        <ele>260.60</ele>
        <time>2012-04-22T07:58:15Z</time>
      </trkpt>
      <trkpt lat="41.625622000" lon="2.539963100">
        <ele>261.10</ele>
        <time>2012-04-22T07:58:22Z</time>
      </trkpt>
      <trkpt lat="41.625706000" lon="2.539908100">
        <ele>262.60</ele>
        <time>2012-04-22T07:58:29Z</time>
      </trkpt>
      <trkpt lat="41.625816000" lon="2.539833100">
        <ele>263.50</ele>
        <time>2012-04-22T07:58:36Z</time>
      </trkpt>
      <trkpt lat="41.625904000" lon="2.539769100">
        <ele>265.00</ele>
        <time>2012-04-22T07:58:43Z</time>
      </trkpt>
      <trkpt lat="41.626007000" lon="2.539704100">
        <ele>265.90</ele>
        <time>2012-04-22T07:58:52Z</time>
      </trkpt>
      <trkpt lat="41.626118000" lon="2.539616100">
        <ele>267.90</ele>
        <time>2012-04-22T07:59:00Z</time>
      </trkpt>
      <trkpt lat="41.626152000" lon="2.539603100">
        <ele>268.40</ele>
        <time>2012-04-22T07:59:02Z</time>
      </trkpt>
      <trkpt lat="41.626217000" lon="2.539591100">
        <ele>272.20</ele>
        <time>2012-04-22T07:59:07Z</time>
      </trkpt>
      <trkpt lat="41.626324000" lon="2.539531100">
        <ele>275.60</ele>
        <time>2012-04-22T07:59:14Z</time>
      </trkpt>
      <trkpt lat="41.626419000" lon="2.539429100">
        <ele>275.10</ele>
        <time>2012-04-22T07:59:21Z</time>
      </trkpt>
      <trkpt lat="41.626472000" lon="2.539363100">
        <ele>275.10</ele>
        <time>2012-04-22T07:59:26Z</time>
      </trkpt>
      <trkpt lat="41.626545000" lon="2.539294100">
        <ele>275.10</ele>
        <time>2012-04-22T07:59:33Z</time>
      </trkpt>
      <trkpt lat="41.626694000" lon="2.539149100">
        <ele>276.00</ele>
        <time>2012-04-22T07:59:44Z</time>
      </trkpt>
      <trkpt lat="41.626816000" lon="2.539141100">
        <ele>277.00</ele>
        <time>2012-04-22T07:59:54Z</time>
      </trkpt>
      <trkpt lat="41.626904000" lon="2.539152100">
        <ele>278.40</ele>
        <time>2012-04-22T07:59:58Z</time>
      </trkpt>
      <trkpt lat="41.627064000" lon="2.539167100">
        <ele>279.40</ele>
        <time>2012-04-22T08:00:10Z</time>
      </trkpt>
      <trkpt lat="41.627110000" lon="2.539163100">
        <ele>279.90</ele>
        <time>2012-04-22T08:00:12Z</time>
      </trkpt>
      <trkpt lat="41.627258000" lon="2.539182100">
        <ele>282.30</ele>
        <time>2012-04-22T08:00:24Z</time>
      </trkpt>
      <trkpt lat="41.627369000" lon="2.539222100">
        <ele>283.20</ele>
        <time>2012-04-22T08:00:31Z</time>
      </trkpt>
      <trkpt lat="41.627495000" lon="2.539272100">
        <ele>284.70</ele>
        <time>2012-04-22T08:00:41Z</time>
      </trkpt>
      <trkpt lat="41.627632000" lon="2.539351100">
        <ele>286.10</ele>
        <time>2012-04-22T08:00:50Z</time>
      </trkpt>
      <trkpt lat="41.627739000" lon="2.539439100">
        <ele>288.00</ele>
        <time>2012-04-22T08:00:59Z</time>
      </trkpt>
      <trkpt lat="41.627819000" lon="2.539518100">
        <ele>288.50</ele>
        <time>2012-04-22T08:01:06Z</time>
      </trkpt>
      <trkpt lat="41.627918000" lon="2.539629100">
        <ele>290.50</ele>
        <time>2012-04-22T08:01:14Z</time>
      </trkpt>
      <trkpt lat="41.628006000" lon="2.539704100">
        <ele>291.40</ele>
        <time>2012-04-22T08:01:21Z</time>
      </trkpt>
      <trkpt lat="41.628101000" lon="2.539766100">
        <ele>292.90</ele>
        <time>2012-04-22T08:01:28Z</time>
      </trkpt>
      <trkpt lat="41.628159000" lon="2.539810100">
        <ele>293.30</ele>
        <time>2012-04-22T08:01:32Z</time>
      </trkpt>
      <trkpt lat="41.628262000" lon="2.539803100">
        <ele>295.70</ele>
        <time>2012-04-22T08:01:41Z</time>
      </trkpt>
      <trkpt lat="41.628349000" lon="2.539815100">
        <ele>299.60</ele>
        <time>2012-04-22T08:01:46Z</time>
      </trkpt>
      <trkpt lat="41.628468000" lon="2.539900100">
        <ele>300.10</ele>
        <time>2012-04-22T08:01:53Z</time>
      </trkpt>
      <trkpt lat="41.628548000" lon="2.540015100">
        <ele>300.10</ele>
        <time>2012-04-22T08:02:01Z</time>
      </trkpt>
      <trkpt lat="41.628662000" lon="2.540172100">
        <ele>301.00</ele>
        <time>2012-04-22T08:02:14Z</time>
      </trkpt>
      <trkpt lat="41.628742000" lon="2.540306100">
        <ele>302.00</ele>
        <time>2012-04-22T08:02:22Z</time>
      </trkpt>
      <trkpt lat="41.628807000" lon="2.540423100">
        <ele>303.40</ele>
        <time>2012-04-22T08:02:31Z</time>
      </trkpt>
      <trkpt lat="41.628895000" lon="2.540557100">
        <ele>305.40</ele>
        <time>2012-04-22T08:02:40Z</time>
      </trkpt>
      <trkpt lat="41.628948000" lon="2.540663100">
        <ele>308.70</ele>
        <time>2012-04-22T08:02:48Z</time>
      </trkpt>
      <trkpt lat="41.628983000" lon="2.540718100">
        <ele>312.60</ele>
        <time>2012-04-22T08:02:52Z</time>
      </trkpt>
      <trkpt lat="41.629021000" lon="2.540798100">
        <ele>314.50</ele>
        <time>2012-04-22T08:02:59Z</time>
      </trkpt>
      <trkpt lat="41.629112000" lon="2.540862100">
        <ele>314.50</ele>
        <time>2012-04-22T08:03:08Z</time>
      </trkpt>
      <trkpt lat="41.629200000" lon="2.540848100">
        <ele>315.50</ele>
        <time>2012-04-22T08:03:16Z</time>
      </trkpt>
      <trkpt lat="41.629238000" lon="2.540827100">
        <ele>316.40</ele>
        <time>2012-04-22T08:03:18Z</time>
      </trkpt>
      <trkpt lat="41.629341000" lon="2.540760100">
        <ele>317.40</ele>
        <time>2012-04-22T08:03:29Z</time>
      </trkpt>
      <trkpt lat="41.629406000" lon="2.540722100">
        <ele>318.30</ele>
        <time>2012-04-22T08:03:36Z</time>
      </trkpt>
      <trkpt lat="41.629486000" lon="2.540692100">
        <ele>320.30</ele>
        <time>2012-04-22T08:03:44Z</time>
      </trkpt>
      <trkpt lat="41.629536000" lon="2.540657100">
        <ele>321.20</ele>
        <time>2012-04-22T08:03:48Z</time>
      </trkpt>
      <trkpt lat="41.629559000" lon="2.540653100">
        <ele>322.20</ele>
        <time>2012-04-22T08:03:51Z</time>
      </trkpt>
      <trkpt lat="41.629620000" lon="2.540595100">
        <ele>325.50</ele>
        <time>2012-04-22T08:03:58Z</time>
      </trkpt>
      <trkpt lat="41.629658000" lon="2.540561100">
        <ele>327.50</ele>
        <time>2012-04-22T08:04:00Z</time>
      </trkpt>
      <trkpt lat="41.629745000" lon="2.540476100">
        <ele>329.40</ele>
        <time>2012-04-22T08:04:10Z</time>
      </trkpt>
      <trkpt lat="41.629780000" lon="2.540465100">
        <ele>329.40</ele>
        <time>2012-04-22T08:04:12Z</time>
      </trkpt>
      <trkpt lat="41.629879000" lon="2.540461100">
        <ele>330.80</ele>
        <time>2012-04-22T08:04:21Z</time>
      </trkpt>
      <trkpt lat="41.629971000" lon="2.540482100">
        <ele>331.80</ele>
        <time>2012-04-22T08:04:28Z</time>
      </trkpt>
      <trkpt lat="41.630062000" lon="2.540436100">
        <ele>332.80</ele>
        <time>2012-04-22T08:04:38Z</time>
      </trkpt>
      <trkpt lat="41.630112000" lon="2.540390100">
        <ele>333.20</ele>
        <time>2012-04-22T08:04:42Z</time>
      </trkpt>
      <trkpt lat="41.630260000" lon="2.540202100">
        <ele>333.20</ele>
        <time>2012-04-22T08:04:50Z</time>
      </trkpt>
      <trkpt lat="41.630348000" lon="2.540027100">
        <ele>333.20</ele>
        <time>2012-04-22T08:04:57Z</time>
      </trkpt>
      <trkpt lat="41.630447000" lon="2.539818100">
        <ele>333.20</ele>
        <time>2012-04-22T08:05:04Z</time>
      </trkpt>
      <trkpt lat="41.630573000" lon="2.539564100">
        <ele>333.20</ele>
        <time>2012-04-22T08:05:11Z</time>
      </trkpt>
      <trkpt lat="41.630665000" lon="2.539446100">
        <ele>333.20</ele>
        <time>2012-04-22T08:05:17Z</time>
      </trkpt>
      <trkpt lat="41.630699000" lon="2.539402100">
        <ele>332.30</ele>
        <time>2012-04-22T08:05:20Z</time>
      </trkpt>
      <trkpt lat="41.630737000" lon="2.539380100">
        <ele>331.80</ele>
        <time>2012-04-22T08:05:22Z</time>
      </trkpt>
      <trkpt lat="41.630768000" lon="2.539371100">
        <ele>331.80</ele>
        <time>2012-04-22T08:05:25Z</time>
      </trkpt>
      <trkpt lat="41.630875000" lon="2.539231100">
        <ele>331.30</ele>
        <time>2012-04-22T08:05:30Z</time>
      </trkpt>
      <trkpt lat="41.630890000" lon="2.539201100">
        <ele>330.80</ele>
        <time>2012-04-22T08:05:32Z</time>
      </trkpt>
      <trkpt lat="41.631035000" lon="2.539165100">
        <ele>328.00</ele>
        <time>2012-04-22T08:05:39Z</time>
      </trkpt>
      <trkpt lat="41.631248000" lon="2.539268100">
        <ele>324.10</ele>
        <time>2012-04-22T08:05:43Z</time>
      </trkpt>
      <trkpt lat="41.631462000" lon="2.539343100">
        <ele>321.20</ele>
        <time>2012-04-22T08:05:48Z</time>
      </trkpt>
      <trkpt lat="41.631580000" lon="2.539339100">
        <ele>319.80</ele>
        <time>2012-04-22T08:05:50Z</time>
      </trkpt>
      <trkpt lat="41.631779000" lon="2.539143100">
        <ele>317.90</ele>
        <time>2012-04-22T08:05:55Z</time>
      </trkpt>
      <trkpt lat="41.631924000" lon="2.539026100">
        <ele>316.40</ele>
        <time>2012-04-22T08:06:00Z</time>
      </trkpt>
      <trkpt lat="41.631969000" lon="2.539106100">
        <ele>315.50</ele>
        <time>2012-04-22T08:06:04Z</time>
      </trkpt>
      <trkpt lat="41.632000000" lon="2.539304100">
        <ele>315.50</ele>
        <time>2012-04-22T08:06:07Z</time>
      </trkpt>
      <trkpt lat="41.632156000" lon="2.539417100">
        <ele>315.00</ele>
        <time>2012-04-22T08:06:12Z</time>
      </trkpt>
      <trkpt lat="41.632397000" lon="2.539282100">
        <ele>314.50</ele>
        <time>2012-04-22T08:06:19Z</time>
      </trkpt>
      <trkpt lat="41.632507000" lon="2.539197100">
        <ele>314.50</ele>
        <time>2012-04-22T08:06:26Z</time>
      </trkpt>
      <trkpt lat="41.632607000" lon="2.539164100">
        <ele>314.50</ele>
        <time>2012-04-22T08:06:30Z</time>
      </trkpt>
      <trkpt lat="41.632626000" lon="2.539171100">
        <ele>314.50</ele>
        <time>2012-04-22T08:06:31Z</time>
      </trkpt>
      <trkpt lat="41.632645000" lon="2.539182100">
        <ele>314.50</ele>
        <time>2012-04-22T08:06:33Z</time>
      </trkpt>
      <trkpt lat="41.632671000" lon="2.539332100">
        <ele>314.50</ele>
        <time>2012-04-22T08:06:40Z</time>
      </trkpt>
      <trkpt lat="41.632671000" lon="2.539505100">
        <ele>316.90</ele>
        <time>2012-04-22T08:06:49Z</time>
      </trkpt>
      <trkpt lat="41.632694000" lon="2.539600100">
        <ele>317.40</ele>
        <time>2012-04-22T08:06:54Z</time>
      </trkpt>
      <trkpt lat="41.632729000" lon="2.539748100">
        <ele>319.30</ele>
        <time>2012-04-22T08:07:01Z</time>
      </trkpt>
      <trkpt lat="41.632740000" lon="2.539925100">
        <ele>320.70</ele>
        <time>2012-04-22T08:07:10Z</time>
      </trkpt>
      <trkpt lat="41.632767000" lon="2.540062100">
        <ele>322.20</ele>
        <time>2012-04-22T08:07:18Z</time>
      </trkpt>
      <trkpt lat="41.632793000" lon="2.540155100">
        <ele>325.10</ele>
        <time>2012-04-22T08:07:24Z</time>
      </trkpt>
      <trkpt lat="41.632805000" lon="2.540217100">
        <ele>328.00</ele>
        <time>2012-04-22T08:07:29Z</time>
      </trkpt>
      <trkpt lat="41.632885000" lon="2.540310100">
        <ele>329.40</ele>
        <time>2012-04-22T08:07:38Z</time>
      </trkpt>
      <trkpt lat="41.632900000" lon="2.540306100">
        <ele>329.40</ele>
        <time>2012-04-22T08:07:41Z</time>
      </trkpt>
      <trkpt lat="41.632984000" lon="2.540283100">
        <ele>330.40</ele>
        <time>2012-04-22T08:07:48Z</time>
      </trkpt>
      <trkpt lat="41.633106000" lon="2.540256100">
        <ele>331.80</ele>
        <time>2012-04-22T08:07:57Z</time>
      </trkpt>
      <trkpt lat="41.633255000" lon="2.540248100">
        <ele>331.80</ele>
        <time>2012-04-22T08:08:02Z</time>
      </trkpt>
      <trkpt lat="41.633430000" lon="2.540311100">
        <ele>331.80</ele>
        <time>2012-04-22T08:08:09Z</time>
      </trkpt>
      <trkpt lat="41.633545000" lon="2.540305100">
        <ele>330.40</ele>
        <time>2012-04-22T08:08:16Z</time>
      </trkpt>
      <trkpt lat="41.633640000" lon="2.540305100">
        <ele>328.40</ele>
        <time>2012-04-22T08:08:23Z</time>
      </trkpt>
      <trkpt lat="41.633671000" lon="2.540319100">
        <ele>328.00</ele>
        <time>2012-04-22T08:08:30Z</time>
      </trkpt>
      <trkpt lat="41.633671000" lon="2.540318100">
        <ele>327.00</ele>
        <time>2012-04-22T08:08:35Z</time>
      </trkpt>
      <trkpt lat="41.633717000" lon="2.540351100">
        <ele>327.00</ele>
        <time>2012-04-22T08:08:40Z</time>
      </trkpt>
      <trkpt lat="41.633747000" lon="2.540382100">
        <ele>326.50</ele>
        <time>2012-04-22T08:08:47Z</time>
      </trkpt>
      <trkpt lat="41.633759000" lon="2.540417100">
        <ele>326.50</ele>
        <time>2012-04-22T08:08:53Z</time>
      </trkpt>
      <trkpt lat="41.633793000" lon="2.540480100">
        <ele>326.50</ele>
        <time>2012-04-22T08:09:01Z</time>
      </trkpt>
      <trkpt lat="41.633823000" lon="2.540525100">
        <ele>327.50</ele>
        <time>2012-04-22T08:09:08Z</time>
      </trkpt>
      <trkpt lat="41.633881000" lon="2.540633100">
        <ele>328.00</ele>
        <time>2012-04-22T08:09:15Z</time>
      </trkpt>
      <trkpt lat="41.633884000" lon="2.540648100">
        <ele>328.40</ele>
        <time>2012-04-22T08:09:22Z</time>
      </trkpt>
      <trkpt lat="41.633900000" lon="2.540678100">
        <ele>328.90</ele>
        <time>2012-04-22T08:09:29Z</time>
      </trkpt>
      <trkpt lat="41.633907000" lon="2.540695100">
        <ele>328.90</ele>
        <time>2012-04-22T08:09:34Z</time>
      </trkpt>
      <trkpt lat="41.633934000" lon="2.540794100">
        <ele>328.90</ele>
        <time>2012-04-22T08:09:38Z</time>
      </trkpt>
      <trkpt lat="41.633972000" lon="2.540925100">
        <ele>329.40</ele>
        <time>2012-04-22T08:09:45Z</time>
      </trkpt>
      <trkpt lat="41.633980000" lon="2.540939100">
        <ele>330.40</ele>
        <time>2012-04-22T08:09:47Z</time>
      </trkpt>
      <trkpt lat="41.634064000" lon="2.541005100">
        <ele>330.40</ele>
        <time>2012-04-22T08:09:52Z</time>
      </trkpt>
      <trkpt lat="41.634174000" lon="2.540974100">
        <ele>330.40</ele>
        <time>2012-04-22T08:09:57Z</time>
      </trkpt>
      <trkpt lat="41.634357000" lon="2.540878100">
        <ele>330.40</ele>
        <time>2012-04-22T08:10:02Z</time>
      </trkpt>
      <trkpt lat="41.634434000" lon="2.540845100">
        <ele>328.90</ele>
        <time>2012-04-22T08:10:04Z</time>
      </trkpt>
      <trkpt lat="41.634583000" lon="2.540829100">
        <ele>326.50</ele>
        <time>2012-04-22T08:10:07Z</time>
      </trkpt>
      <trkpt lat="41.634747000" lon="2.540762100">
        <ele>324.10</ele>
        <time>2012-04-22T08:10:11Z</time>
      </trkpt>
      <trkpt lat="41.634872000" lon="2.540732100">
        <ele>323.10</ele>
        <time>2012-04-22T08:10:16Z</time>
      </trkpt>
      <trkpt lat="41.634987000" lon="2.540741100">
        <ele>323.10</ele>
        <time>2012-04-22T08:10:18Z</time>
      </trkpt>
      <trkpt lat="41.635082000" lon="2.540612100">
        <ele>323.10</ele>
        <time>2012-04-22T08:10:23Z</time>
      </trkpt>
      <trkpt lat="41.635090000" lon="2.540545100">
        <ele>323.10</ele>
        <time>2012-04-22T08:10:23Z</time>
      </trkpt>
      <trkpt lat="41.635086000" lon="2.540352100">
        <ele>323.10</ele>
        <time>2012-04-22T08:10:27Z</time>
      </trkpt>
      <trkpt lat="41.635078000" lon="2.539929100">
        <ele>320.70</ele>
        <time>2012-04-22T08:10:32Z</time>
      </trkpt>
      <trkpt lat="41.635075000" lon="2.539834100">
        <ele>318.80</ele>
        <time>2012-04-22T08:10:35Z</time>
      </trkpt>
      <trkpt lat="41.635075000" lon="2.539796100">
        <ele>317.90</ele>
        <time>2012-04-22T08:10:35Z</time>
      </trkpt>
      <trkpt lat="41.635014000" lon="2.539622100">
        <ele>314.50</ele>
        <time>2012-04-22T08:10:39Z</time>
      </trkpt>
      <trkpt lat="41.635006000" lon="2.539583100">
        <ele>314.00</ele>
        <time>2012-04-22T08:10:39Z</time>
      </trkpt>
      <trkpt lat="41.635006000" lon="2.539471100">
        <ele>312.60</ele>
        <time>2012-04-22T08:10:42Z</time>
      </trkpt>
      <trkpt lat="41.635006000" lon="2.539348100">
        <ele>312.10</ele>
        <time>2012-04-22T08:10:44Z</time>
      </trkpt>
      <trkpt lat="41.635025000" lon="2.539302100">
        <ele>312.10</ele>
        <time>2012-04-22T08:10:46Z</time>
      </trkpt>
      <trkpt lat="41.635132000" lon="2.539296100">
        <ele>312.10</ele>
        <time>2012-04-22T08:10:49Z</time>
      </trkpt>
      <trkpt lat="41.635201000" lon="2.539301100">
        <ele>313.50</ele>
        <time>2012-04-22T08:10:53Z</time>
      </trkpt>
      <trkpt lat="41.635216000" lon="2.539304100">
        <ele>313.50</ele>
        <time>2012-04-22T08:10:54Z</time>
      </trkpt>
      <trkpt lat="41.635323000" lon="2.539249100">
        <ele>317.40</ele>
        <time>2012-04-22T08:11:03Z</time>
      </trkpt>
      <trkpt lat="41.635353000" lon="2.539202100">
        <ele>320.30</ele>
        <time>2012-04-22T08:11:07Z</time>
      </trkpt>
      <trkpt lat="41.635376000" lon="2.539179100">
        <ele>321.70</ele>
        <time>2012-04-22T08:11:10Z</time>
      </trkpt>
      <trkpt lat="41.635418000" lon="2.539145100">
        <ele>322.70</ele>
        <time>2012-04-22T08:11:14Z</time>
      </trkpt>
      <trkpt lat="41.635597000" lon="2.539173100">
        <ele>322.70</ele>
        <time>2012-04-22T08:11:24Z</time>
      </trkpt>
      <trkpt lat="41.635624000" lon="2.539181100">
        <ele>323.10</ele>
        <time>2012-04-22T08:11:26Z</time>
      </trkpt>
      <trkpt lat="41.635700000" lon="2.539159100">
        <ele>323.60</ele>
        <time>2012-04-22T08:11:33Z</time>
      </trkpt>
      <trkpt lat="41.635742000" lon="2.539100100">
        <ele>324.60</ele>
        <time>2012-04-22T08:11:38Z</time>
      </trkpt>
      <trkpt lat="41.635780000" lon="2.538961100">
        <ele>326.00</ele>
        <time>2012-04-22T08:11:47Z</time>
      </trkpt>
      <trkpt lat="41.635815000" lon="2.538809100">
        <ele>327.50</ele>
        <time>2012-04-22T08:11:55Z</time>
      </trkpt>
      <trkpt lat="41.635876000" lon="2.538672100">
        <ele>328.40</ele>
        <time>2012-04-22T08:12:04Z</time>
      </trkpt>
      <trkpt lat="41.635967000" lon="2.538572100">
        <ele>328.90</ele>
        <time>2012-04-22T08:12:11Z</time>
      </trkpt>
      <trkpt lat="41.636074000" lon="2.538464100">
        <ele>329.90</ele>
        <time>2012-04-22T08:12:18Z</time>
      </trkpt>
      <trkpt lat="41.636147000" lon="2.538260100">
        <ele>330.40</ele>
        <time>2012-04-22T08:12:25Z</time>
      </trkpt>
      <trkpt lat="41.636150000" lon="2.538006100">
        <ele>330.40</ele>
        <time>2012-04-22T08:12:32Z</time>
      </trkpt>
      <trkpt lat="41.636196000" lon="2.537934100">
        <ele>330.40</ele>
        <time>2012-04-22T08:12:37Z</time>
      </trkpt>
      <trkpt lat="41.636272000" lon="2.537886100">
        <ele>330.40</ele>
        <time>2012-04-22T08:12:41Z</time>
      </trkpt>
      <trkpt lat="41.636303000" lon="2.537879100">
        <ele>330.40</ele>
        <time>2012-04-22T08:12:44Z</time>
      </trkpt>
      <trkpt lat="41.636421000" lon="2.537851100">
        <ele>331.30</ele>
        <time>2012-04-22T08:12:51Z</time>
      </trkpt>
      <trkpt lat="41.636475000" lon="2.537751100">
        <ele>331.30</ele>
        <time>2012-04-22T08:12:55Z</time>
      </trkpt>
      <trkpt lat="41.636486000" lon="2.537547100">
        <ele>332.30</ele>
        <time>2012-04-22T08:13:05Z</time>
      </trkpt>
      <trkpt lat="41.636456000" lon="2.537401100">
        <ele>333.20</ele>
        <time>2012-04-22T08:13:12Z</time>
      </trkpt>
      <trkpt lat="41.636459000" lon="2.537307100">
        <ele>334.20</ele>
        <time>2012-04-22T08:13:17Z</time>
      </trkpt>
      <trkpt lat="41.636532000" lon="2.537256100">
        <ele>335.20</ele>
        <time>2012-04-22T08:13:23Z</time>
      </trkpt>
      <trkpt lat="41.636578000" lon="2.537246100">
        <ele>336.60</ele>
        <time>2012-04-22T08:13:31Z</time>
      </trkpt>
      <trkpt lat="41.636608000" lon="2.537257100">
        <ele>337.60</ele>
        <time>2012-04-22T08:13:38Z</time>
      </trkpt>
      <trkpt lat="41.636662000" lon="2.537252100">
        <ele>337.60</ele>
        <time>2012-04-22T08:13:42Z</time>
      </trkpt>
      <trkpt lat="41.636772000" lon="2.537273100">
        <ele>339.50</ele>
        <time>2012-04-22T08:13:50Z</time>
      </trkpt>
      <trkpt lat="41.636890000" lon="2.537386100">
        <ele>340.90</ele>
        <time>2012-04-22T08:14:01Z</time>
      </trkpt>
      <trkpt lat="41.636898000" lon="2.537401100">
        <ele>340.90</ele>
        <time>2012-04-22T08:14:01Z</time>
      </trkpt>
      <trkpt lat="41.636997000" lon="2.537500100">
        <ele>342.40</ele>
        <time>2012-04-22T08:14:11Z</time>
      </trkpt>
      <trkpt lat="41.637035000" lon="2.537508100">
        <ele>343.30</ele>
        <time>2012-04-22T08:14:15Z</time>
      </trkpt>
      <trkpt lat="41.637115000" lon="2.537556100">
        <ele>344.30</ele>
        <time>2012-04-22T08:14:22Z</time>
      </trkpt>
      <trkpt lat="41.637131000" lon="2.537559100">
        <ele>345.20</ele>
        <time>2012-04-22T08:14:22Z</time>
      </trkpt>
      <trkpt lat="41.637161000" lon="2.537555100">
        <ele>345.70</ele>
        <time>2012-04-22T08:14:25Z</time>
      </trkpt>
      <trkpt lat="41.637211000" lon="2.537561100">
        <ele>346.70</ele>
        <time>2012-04-22T08:14:29Z</time>
      </trkpt>
      <trkpt lat="41.637310000" lon="2.537593100">
        <ele>348.10</ele>
        <time>2012-04-22T08:14:37Z</time>
      </trkpt>
      <trkpt lat="41.637337000" lon="2.537592100">
        <ele>348.60</ele>
        <time>2012-04-22T08:14:39Z</time>
      </trkpt>
      <trkpt lat="41.637360000" lon="2.537565100">
        <ele>349.10</ele>
        <time>2012-04-22T08:14:43Z</time>
      </trkpt>
      <trkpt lat="41.637390000" lon="2.537444100">
        <ele>350.50</ele>
        <time>2012-04-22T08:14:51Z</time>
      </trkpt>
      <trkpt lat="41.637421000" lon="2.537314100">
        <ele>352.00</ele>
        <time>2012-04-22T08:15:00Z</time>
      </trkpt>
      <trkpt lat="41.637463000" lon="2.537216100">
        <ele>352.90</ele>
        <time>2012-04-22T08:15:09Z</time>
      </trkpt>
      <trkpt lat="41.637508000" lon="2.537054100">
        <ele>354.40</ele>
        <time>2012-04-22T08:15:19Z</time>
      </trkpt>
      <trkpt lat="41.637520000" lon="2.536837100">
        <ele>355.30</ele>
        <time>2012-04-22T08:15:28Z</time>
      </trkpt>
      <trkpt lat="41.637539000" lon="2.536617100">
        <ele>355.80</ele>
        <time>2012-04-22T08:15:35Z</time>
      </trkpt>
      <trkpt lat="41.637547000" lon="2.536535100">
        <ele>355.80</ele>
        <time>2012-04-22T08:15:38Z</time>
      </trkpt>
      <trkpt lat="41.637482000" lon="2.536367100">
        <ele>356.30</ele>
        <time>2012-04-22T08:15:47Z</time>
      </trkpt>
      <trkpt lat="41.637436000" lon="2.536218100">
        <ele>357.80</ele>
        <time>2012-04-22T08:15:54Z</time>
      </trkpt>
      <trkpt lat="41.637417000" lon="2.536042100">
        <ele>358.20</ele>
        <time>2012-04-22T08:16:01Z</time>
      </trkpt>
      <trkpt lat="41.637482000" lon="2.535897100">
        <ele>358.70</ele>
        <time>2012-04-22T08:16:08Z</time>
      </trkpt>
      <trkpt lat="41.637573000" lon="2.535794100">
        <ele>358.70</ele>
        <time>2012-04-22T08:16:15Z</time>
      </trkpt>
      <trkpt lat="41.637680000" lon="2.535699100">
        <ele>360.10</ele>
        <time>2012-04-22T08:16:22Z</time>
      </trkpt>
      <trkpt lat="41.637794000" lon="2.535592100">
        <ele>361.10</ele>
        <time>2012-04-22T08:16:31Z</time>
      </trkpt>
      <trkpt lat="41.637878000" lon="2.535447100">
        <ele>361.60</ele>
        <time>2012-04-22T08:16:38Z</time>
      </trkpt>
      <trkpt lat="41.637959000" lon="2.535241100">
        <ele>362.50</ele>
        <time>2012-04-22T08:16:46Z</time>
      </trkpt>
      <trkpt lat="41.638031000" lon="2.535060100">
        <ele>363.00</ele>
        <time>2012-04-22T08:16:55Z</time>
      </trkpt>
      <trkpt lat="41.638092000" lon="2.534798100">
        <ele>364.50</ele>
        <time>2012-04-22T08:17:11Z</time>
      </trkpt>
      <trkpt lat="41.638149000" lon="2.534727100">
        <ele>365.00</ele>
        <time>2012-04-22T08:17:18Z</time>
      </trkpt>
      <trkpt lat="41.638283000" lon="2.534622100">
        <ele>365.00</ele>
        <time>2012-04-22T08:17:25Z</time>
      </trkpt>
      <trkpt lat="41.638454000" lon="2.534612100">
        <ele>365.00</ele>
        <time>2012-04-22T08:17:33Z</time>
      </trkpt>
      <trkpt lat="41.638634000" lon="2.534702100">
        <ele>365.00</ele>
        <time>2012-04-22T08:17:40Z</time>
      </trkpt>
      <trkpt lat="41.638893000" lon="2.534844100">
        <ele>365.00</ele>
        <time>2012-04-22T08:17:51Z</time>
      </trkpt>
      <trkpt lat="41.639118000" lon="2.534936100">
        <ele>364.50</ele>
        <time>2012-04-22T08:17:59Z</time>
      </trkpt>
      <trkpt lat="41.639290000" lon="2.534946100">
        <ele>364.50</ele>
        <time>2012-04-22T08:18:06Z</time>
      </trkpt>
      <trkpt lat="41.639462000" lon="2.534976100">
        <ele>365.90</ele>
        <time>2012-04-22T08:18:15Z</time>
      </trkpt>
      <trkpt lat="41.639626000" lon="2.534979100">
        <ele>366.90</ele>
        <time>2012-04-22T08:18:22Z</time>
      </trkpt>
      <trkpt lat="41.639832000" lon="2.535036100">
        <ele>368.80</ele>
        <time>2012-04-22T08:18:31Z</time>
      </trkpt>
      <trkpt lat="41.639954000" lon="2.535090100">
        <ele>369.80</ele>
        <time>2012-04-22T08:18:38Z</time>
      </trkpt>
      <trkpt lat="41.640076000" lon="2.535172100">
        <ele>371.20</ele>
        <time>2012-04-22T08:18:45Z</time>
      </trkpt>
      <trkpt lat="41.640190000" lon="2.535249100">
        <ele>372.20</ele>
        <time>2012-04-22T08:18:52Z</time>
      </trkpt>
      <trkpt lat="41.640415000" lon="2.535217100">
        <ele>373.10</ele>
        <time>2012-04-22T08:19:02Z</time>
      </trkpt>
      <trkpt lat="41.640602000" lon="2.535188100">
        <ele>373.60</ele>
        <time>2012-04-22T08:19:09Z</time>
      </trkpt>
      <trkpt lat="41.640736000" lon="2.535213100">
        <ele>374.10</ele>
        <time>2012-04-22T08:19:16Z</time>
      </trkpt>
      <trkpt lat="41.640892000" lon="2.535343100">
        <ele>374.60</ele>
        <time>2012-04-22T08:19:23Z</time>
      </trkpt>
      <trkpt lat="41.640923000" lon="2.535364100">
        <ele>374.60</ele>
        <time>2012-04-22T08:19:25Z</time>
      </trkpt>
      <trkpt lat="41.641026000" lon="2.535488100">
        <ele>374.60</ele>
        <time>2012-04-22T08:19:30Z</time>
      </trkpt>
      <trkpt lat="41.641136000" lon="2.535723100">
        <ele>374.60</ele>
        <time>2012-04-22T08:19:39Z</time>
      </trkpt>
      <trkpt lat="41.641224000" lon="2.535938100">
        <ele>375.50</ele>
        <time>2012-04-22T08:19:46Z</time>
      </trkpt>
      <trkpt lat="41.641296000" lon="2.536164100">
        <ele>377.00</ele>
        <time>2012-04-22T08:19:56Z</time>
      </trkpt>
      <trkpt lat="41.641342000" lon="2.536340100">
        <ele>377.90</ele>
        <time>2012-04-22T08:20:03Z</time>
      </trkpt>
      <trkpt lat="41.641407000" lon="2.536582100">
        <ele>379.40</ele>
        <time>2012-04-22T08:20:12Z</time>
      </trkpt>
      <trkpt lat="41.641487000" lon="2.536729100">
        <ele>380.30</ele>
        <time>2012-04-22T08:20:17Z</time>
      </trkpt>
      <trkpt lat="41.641563000" lon="2.536846100">
        <ele>381.80</ele>
        <time>2012-04-22T08:20:24Z</time>
      </trkpt>
      <trkpt lat="41.641602000" lon="2.536942100">
        <ele>382.30</ele>
        <time>2012-04-22T08:20:28Z</time>
      </trkpt>
      <trkpt lat="41.641605000" lon="2.537169100">
        <ele>382.70</ele>
        <time>2012-04-22T08:20:35Z</time>
      </trkpt>
      <trkpt lat="41.641571000" lon="2.537387100">
        <ele>383.20</ele>
        <time>2012-04-22T08:20:40Z</time>
      </trkpt>
      <trkpt lat="41.641586000" lon="2.537657100">
        <ele>383.20</ele>
        <time>2012-04-22T08:20:47Z</time>
      </trkpt>
      <trkpt lat="41.641624000" lon="2.537915100">
        <ele>383.70</ele>
        <time>2012-04-22T08:20:55Z</time>
      </trkpt>
      <trkpt lat="41.641731000" lon="2.538200100">
        <ele>384.70</ele>
        <time>2012-04-22T08:21:04Z</time>
      </trkpt>
      <trkpt lat="41.641926000" lon="2.538442100">
        <ele>384.70</ele>
        <time>2012-04-22T08:21:11Z</time>
      </trkpt>
      <trkpt lat="41.642178000" lon="2.538533100">
        <ele>384.70</ele>
        <time>2012-04-22T08:21:18Z</time>
      </trkpt>
      <trkpt lat="41.642418000" lon="2.538551100">
        <ele>384.70</ele>
        <time>2012-04-22T08:21:27Z</time>
      </trkpt>
      <trkpt lat="41.642616000" lon="2.538714100">
        <ele>386.10</ele>
        <time>2012-04-22T08:21:36Z</time>
      </trkpt>
      <trkpt lat="41.642803000" lon="2.538876100">
        <ele>386.10</ele>
        <time>2012-04-22T08:21:44Z</time>
      </trkpt>
      <trkpt lat="41.643040000" lon="2.539032100">
        <ele>386.10</ele>
        <time>2012-04-22T08:21:51Z</time>
      </trkpt>
      <trkpt lat="41.643208000" lon="2.539129100">
        <ele>384.20</ele>
        <time>2012-04-22T08:21:56Z</time>
      </trkpt>
      <trkpt lat="41.643234000" lon="2.539157100">
        <ele>384.20</ele>
        <time>2012-04-22T08:21:58Z</time>
      </trkpt>
      <trkpt lat="41.643379000" lon="2.539373100">
        <ele>380.30</ele>
        <time>2012-04-22T08:22:02Z</time>
      </trkpt>
      <trkpt lat="41.643494000" lon="2.539467100">
        <ele>376.50</ele>
        <time>2012-04-22T08:22:05Z</time>
      </trkpt>
      <trkpt lat="41.643543000" lon="2.539493100">
        <ele>375.00</ele>
        <time>2012-04-22T08:22:07Z</time>
      </trkpt>
      <trkpt lat="41.643658000" lon="2.539553100">
        <ele>374.10</ele>
        <time>2012-04-22T08:22:09Z</time>
      </trkpt>
      <trkpt lat="41.643852000" lon="2.539681100">
        <ele>372.20</ele>
        <time>2012-04-22T08:22:12Z</time>
      </trkpt>
      <trkpt lat="41.644146000" lon="2.540045100">
        <ele>369.30</ele>
        <time>2012-04-22T08:22:19Z</time>
      </trkpt>
      <trkpt lat="41.644218000" lon="2.540161100">
        <ele>367.80</ele>
        <time>2012-04-22T08:22:21Z</time>
      </trkpt>
      <trkpt lat="41.644283000" lon="2.540385100">
        <ele>363.50</ele>
        <time>2012-04-22T08:22:26Z</time>
      </trkpt>
      <trkpt lat="41.644295000" lon="2.540427100">
        <ele>362.50</ele>
        <time>2012-04-22T08:22:26Z</time>
      </trkpt>
      <trkpt lat="41.644447000" lon="2.540417100">
        <ele>358.20</ele>
        <time>2012-04-22T08:22:31Z</time>
      </trkpt>
      <trkpt lat="41.644508000" lon="2.540283100">
        <ele>357.80</ele>
        <time>2012-04-22T08:22:35Z</time>
      </trkpt>
      <trkpt lat="41.644554000" lon="2.540079100">
        <ele>357.30</ele>
        <time>2012-04-22T08:22:38Z</time>
      </trkpt>
      <trkpt lat="41.644665000" lon="2.539855100">
        <ele>355.80</ele>
        <time>2012-04-22T08:22:42Z</time>
      </trkpt>
      <trkpt lat="41.644775000" lon="2.539880100">
        <ele>353.90</ele>
        <time>2012-04-22T08:22:43Z</time>
      </trkpt>
      <trkpt lat="41.645039000" lon="2.540015100">
        <ele>350.10</ele>
        <time>2012-04-22T08:22:49Z</time>
      </trkpt>
      <trkpt lat="41.645149000" lon="2.540077100">
        <ele>348.60</ele>
        <time>2012-04-22T08:22:50Z</time>
      </trkpt>
      <trkpt lat="41.645405000" lon="2.540155100">
        <ele>346.70</ele>
        <time>2012-04-22T08:22:54Z</time>
      </trkpt>
      <trkpt lat="41.645874000" lon="2.540338100">
        <ele>346.20</ele>
        <time>2012-04-22T08:23:01Z</time>
      </trkpt>
      <trkpt lat="41.645988000" lon="2.540474100">
        <ele>346.70</ele>
        <time>2012-04-22T08:23:06Z</time>
      </trkpt>
      <trkpt lat="41.646122000" lon="2.540622100">
        <ele>349.10</ele>
        <time>2012-04-22T08:23:15Z</time>
      </trkpt>
      <trkpt lat="41.646194000" lon="2.540666100">
        <ele>352.50</ele>
        <time>2012-04-22T08:23:20Z</time>
      </trkpt>
      <trkpt lat="41.646290000" lon="2.540702100">
        <ele>355.30</ele>
        <time>2012-04-22T08:23:25Z</time>
      </trkpt>
      <trkpt lat="41.646420000" lon="2.540756100">
        <ele>355.30</ele>
        <time>2012-04-22T08:23:34Z</time>
      </trkpt>
      <trkpt lat="41.646530000" lon="2.540799100">
        <ele>357.30</ele>
        <time>2012-04-22T08:23:43Z</time>
      </trkpt>
      <trkpt lat="41.646648000" lon="2.540834100">
        <ele>358.70</ele>
        <time>2012-04-22T08:23:51Z</time>
      </trkpt>
      <trkpt lat="41.646774000" lon="2.540816100">
        <ele>361.10</ele>
        <time>2012-04-22T08:24:02Z</time>
      </trkpt>
      <trkpt lat="41.646801000" lon="2.540811100">
        <ele>361.60</ele>
        <time>2012-04-22T08:24:04Z</time>
      </trkpt>
      <trkpt lat="41.646931000" lon="2.540779100">
        <ele>362.50</ele>
        <time>2012-04-22T08:24:12Z</time>
      </trkpt>
      <trkpt lat="41.646946000" lon="2.540779100">
        <ele>362.50</ele>
        <time>2012-04-22T08:24:14Z</time>
      </trkpt>
      <trkpt lat="41.647079000" lon="2.540770100">
        <ele>363.50</ele>
        <time>2012-04-22T08:24:21Z</time>
      </trkpt>
      <trkpt lat="41.647217000" lon="2.540770100">
        <ele>365.00</ele>
        <time>2012-04-22T08:24:30Z</time>
      </trkpt>
      <trkpt lat="41.647339000" lon="2.540778100">
        <ele>365.40</ele>
        <time>2012-04-22T08:24:37Z</time>
      </trkpt>
      <trkpt lat="41.647472000" lon="2.540820100">
        <ele>366.40</ele>
        <time>2012-04-22T08:24:45Z</time>
      </trkpt>
      <trkpt lat="41.647579000" lon="2.540898100">
        <ele>368.30</ele>
        <time>2012-04-22T08:24:54Z</time>
      </trkpt>
      <trkpt lat="41.647701000" lon="2.541014100">
        <ele>370.20</ele>
        <time>2012-04-22T08:25:06Z</time>
      </trkpt>
      <trkpt lat="41.647804000" lon="2.541120100">
        <ele>372.60</ele>
        <time>2012-04-22T08:25:15Z</time>
      </trkpt>
      <trkpt lat="41.647915000" lon="2.541203100">
        <ele>374.10</ele>
        <time>2012-04-22T08:25:24Z</time>
      </trkpt>
      <trkpt lat="41.647934000" lon="2.541225100">
        <ele>374.60</ele>
        <time>2012-04-22T08:25:27Z</time>
      </trkpt>
      <trkpt lat="41.648060000" lon="2.541255100">
        <ele>376.00</ele>
        <time>2012-04-22T08:25:36Z</time>
      </trkpt>
      <trkpt lat="41.648163000" lon="2.541279100">
        <ele>377.00</ele>
        <time>2012-04-22T08:25:41Z</time>
      </trkpt>
      <trkpt lat="41.648346000" lon="2.541345100">
        <ele>377.90</ele>
        <time>2012-04-22T08:25:53Z</time>
      </trkpt>
      <trkpt lat="41.648483000" lon="2.541386100">
        <ele>379.40</ele>
        <time>2012-04-22T08:26:02Z</time>
      </trkpt>
      <trkpt lat="41.648586000" lon="2.541398100">
        <ele>380.30</ele>
        <time>2012-04-22T08:26:09Z</time>
      </trkpt>
      <trkpt lat="41.648720000" lon="2.541417100">
        <ele>380.80</ele>
        <time>2012-04-22T08:26:16Z</time>
      </trkpt>
      <trkpt lat="41.648876000" lon="2.541513100">
        <ele>382.30</ele>
        <time>2012-04-22T08:26:28Z</time>
      </trkpt>
      <trkpt lat="41.648994000" lon="2.541675100">
        <ele>383.20</ele>
        <time>2012-04-22T08:26:37Z</time>
      </trkpt>
      <trkpt lat="41.649052000" lon="2.541847100">
        <ele>383.70</ele>
        <time>2012-04-22T08:26:46Z</time>
      </trkpt>
      <trkpt lat="41.649055000" lon="2.542053100">
        <ele>384.20</ele>
        <time>2012-04-22T08:26:54Z</time>
      </trkpt>
      <trkpt lat="41.649044000" lon="2.542246100">
        <ele>385.60</ele>
        <time>2012-04-22T08:27:01Z</time>
      </trkpt>
      <trkpt lat="41.649086000" lon="2.542486100">
        <ele>386.10</ele>
        <time>2012-04-22T08:27:10Z</time>
      </trkpt>
      <trkpt lat="41.649147000" lon="2.542686100">
        <ele>386.60</ele>
        <time>2012-04-22T08:27:19Z</time>
      </trkpt>
      <trkpt lat="41.649212000" lon="2.542860100">
        <ele>387.10</ele>
        <time>2012-04-22T08:27:26Z</time>
      </trkpt>
      <trkpt lat="41.649269000" lon="2.543010100">
        <ele>387.50</ele>
        <time>2012-04-22T08:27:33Z</time>
      </trkpt>
      <trkpt lat="41.649338000" lon="2.543240100">
        <ele>388.50</ele>
        <time>2012-04-22T08:27:41Z</time>
      </trkpt>
      <trkpt lat="41.649384000" lon="2.543434100">
        <ele>389.00</ele>
        <time>2012-04-22T08:27:50Z</time>
      </trkpt>
      <trkpt lat="41.649418000" lon="2.543660100">
        <ele>390.00</ele>
        <time>2012-04-22T08:27:59Z</time>
      </trkpt>
      <trkpt lat="41.649441000" lon="2.543833100">
        <ele>391.40</ele>
        <time>2012-04-22T08:28:06Z</time>
      </trkpt>
      <trkpt lat="41.649441000" lon="2.544058100">
        <ele>392.80</ele>
        <time>2012-04-22T08:28:16Z</time>
      </trkpt>
      <trkpt lat="41.649475000" lon="2.544265100">
        <ele>393.80</ele>
        <time>2012-04-22T08:28:25Z</time>
      </trkpt>
      <trkpt lat="41.649475000" lon="2.544364100">
        <ele>393.80</ele>
        <time>2012-04-22T08:28:30Z</time>
      </trkpt>
      <trkpt lat="41.649437000" lon="2.544443100">
        <ele>393.80</ele>
        <time>2012-04-22T08:28:35Z</time>
      </trkpt>
      <trkpt lat="41.649441000" lon="2.544444100">
        <ele>393.80</ele>
        <time>2012-04-22T08:29:31Z</time>
      </trkpt>
      <trkpt lat="41.649437000" lon="2.544460100">
        <ele>393.80</ele>
        <time>2012-04-22T08:29:55Z</time>
      </trkpt>
      <trkpt lat="41.649460000" lon="2.544581100">
        <ele>393.80</ele>
        <time>2012-04-22T08:30:01Z</time>
      </trkpt>
      <trkpt lat="41.649540000" lon="2.544772100">
        <ele>392.40</ele>
        <time>2012-04-22T08:30:06Z</time>
      </trkpt>
      <trkpt lat="41.649696000" lon="2.545067100">
        <ele>391.90</ele>
        <time>2012-04-22T08:30:15Z</time>
      </trkpt>
      <trkpt lat="41.649883000" lon="2.545156100">
        <ele>390.40</ele>
        <time>2012-04-22T08:30:20Z</time>
      </trkpt>
      <trkpt lat="41.650028000" lon="2.545089100">
        <ele>390.00</ele>
        <time>2012-04-22T08:30:25Z</time>
      </trkpt>
      <trkpt lat="41.650257000" lon="2.545105100">
        <ele>389.50</ele>
        <time>2012-04-22T08:30:30Z</time>
      </trkpt>
      <trkpt lat="41.650284000" lon="2.545139100">
        <ele>389.50</ele>
        <time>2012-04-22T08:30:32Z</time>
      </trkpt>
      <trkpt lat="41.650517000" lon="2.545455100">
        <ele>388.50</ele>
        <time>2012-04-22T08:30:39Z</time>
      </trkpt>
      <trkpt lat="41.650650000" lon="2.545640100">
        <ele>385.60</ele>
        <time>2012-04-22T08:30:41Z</time>
      </trkpt>
      <trkpt lat="41.650818000" lon="2.545796100">
        <ele>382.70</ele>
        <time>2012-04-22T08:30:44Z</time>
      </trkpt>
      <trkpt lat="41.650879000" lon="2.546010100">
        <ele>379.40</ele>
        <time>2012-04-22T08:30:48Z</time>
      </trkpt>
      <trkpt lat="41.650845000" lon="2.546045100">
        <ele>379.90</ele>
        <time>2012-04-22T08:30:49Z</time>
      </trkpt>
      <trkpt lat="41.650723000" lon="2.546241100">
        <ele>379.40</ele>
        <time>2012-04-22T08:30:55Z</time>
      </trkpt>
      <trkpt lat="41.650757000" lon="2.546440100">
        <ele>380.80</ele>
        <time>2012-04-22T08:31:00Z</time>
      </trkpt>
      <trkpt lat="41.650890000" lon="2.546641100">
        <ele>380.80</ele>
        <time>2012-04-22T08:31:05Z</time>
      </trkpt>
      <trkpt lat="41.651241000" lon="2.546593100">
        <ele>374.10</ele>
        <time>2012-04-22T08:31:12Z</time>
      </trkpt>
      <trkpt lat="41.651379000" lon="2.546723100">
        <ele>371.70</ele>
        <time>2012-04-22T08:31:14Z</time>
      </trkpt>
      <trkpt lat="41.651405000" lon="2.546790100">
        <ele>370.70</ele>
        <time>2012-04-22T08:31:16Z</time>
      </trkpt>
      <trkpt lat="41.651489000" lon="2.547022100">
        <ele>369.30</ele>
        <time>2012-04-22T08:31:19Z</time>
      </trkpt>
      <trkpt lat="41.651691000" lon="2.547312100">
        <ele>366.90</ele>
        <time>2012-04-22T08:31:24Z</time>
      </trkpt>
      <trkpt lat="41.651802000" lon="2.547353100">
        <ele>367.40</ele>
        <time>2012-04-22T08:31:26Z</time>
      </trkpt>
      <trkpt lat="41.651997000" lon="2.547439100">
        <ele>364.00</ele>
        <time>2012-04-22T08:31:29Z</time>
      </trkpt>
      <trkpt lat="41.652012000" lon="2.547568100">
        <ele>362.50</ele>
        <time>2012-04-22T08:31:33Z</time>
      </trkpt>
      <trkpt lat="41.652004000" lon="2.547605100">
        <ele>362.50</ele>
        <time>2012-04-22T08:31:35Z</time>
      </trkpt>
      <trkpt lat="41.651932000" lon="2.547736100">
        <ele>362.50</ele>
        <time>2012-04-22T08:31:40Z</time>
      </trkpt>
      <trkpt lat="41.651859000" lon="2.547822100">
        <ele>364.50</ele>
        <time>2012-04-22T08:31:43Z</time>
      </trkpt>
      <trkpt lat="41.651741000" lon="2.548023100">
        <ele>365.40</ele>
        <time>2012-04-22T08:31:52Z</time>
      </trkpt>
      <trkpt lat="41.651627000" lon="2.548193100">
        <ele>366.40</ele>
        <time>2012-04-22T08:31:59Z</time>
      </trkpt>
      <trkpt lat="41.651512000" lon="2.548402100">
        <ele>367.80</ele>
        <time>2012-04-22T08:32:06Z</time>
      </trkpt>
      <trkpt lat="41.651466000" lon="2.548595100">
        <ele>368.80</ele>
        <time>2012-04-22T08:32:13Z</time>
      </trkpt>
      <trkpt lat="41.651531000" lon="2.548747100">
        <ele>369.30</ele>
        <time>2012-04-22T08:32:18Z</time>
      </trkpt>
      <trkpt lat="41.651627000" lon="2.548877100">
        <ele>371.20</ele>
        <time>2012-04-22T08:32:25Z</time>
      </trkpt>
      <trkpt lat="41.651661000" lon="2.548949100">
        <ele>371.70</ele>
        <time>2012-04-22T08:32:29Z</time>
      </trkpt>
      <trkpt lat="41.651669000" lon="2.549085100">
        <ele>376.00</ele>
        <time>2012-04-22T08:32:36Z</time>
      </trkpt>
      <trkpt lat="41.651615000" lon="2.549276100">
        <ele>378.90</ele>
        <time>2012-04-22T08:32:44Z</time>
      </trkpt>
      <trkpt lat="41.651539000" lon="2.549444100">
        <ele>378.90</ele>
        <time>2012-04-22T08:32:53Z</time>
      </trkpt>
      <trkpt lat="41.651516000" lon="2.549481100">
        <ele>378.90</ele>
        <time>2012-04-22T08:32:55Z</time>
      </trkpt>
      <trkpt lat="41.651489000" lon="2.549564100">
        <ele>378.90</ele>
        <time>2012-04-22T08:32:58Z</time>
      </trkpt>
      <trkpt lat="41.651455000" lon="2.549747100">
        <ele>379.40</ele>
        <time>2012-04-22T08:33:07Z</time>
      </trkpt>
      <trkpt lat="41.651485000" lon="2.549906100">
        <ele>380.80</ele>
        <time>2012-04-22T08:33:16Z</time>
      </trkpt>
      <trkpt lat="41.651531000" lon="2.550018100">
        <ele>382.30</ele>
        <time>2012-04-22T08:33:23Z</time>
      </trkpt>
      <trkpt lat="41.651581000" lon="2.550224100">
        <ele>383.20</ele>
        <time>2012-04-22T08:33:30Z</time>
      </trkpt>
      <trkpt lat="41.651588000" lon="2.550403100">
        <ele>383.70</ele>
        <time>2012-04-22T08:33:35Z</time>
      </trkpt>
      <trkpt lat="41.651550000" lon="2.550664100">
        <ele>384.70</ele>
        <time>2012-04-22T08:33:45Z</time>
      </trkpt>
      <trkpt lat="41.651558000" lon="2.550891100">
        <ele>386.60</ele>
        <time>2012-04-22T08:33:54Z</time>
      </trkpt>
      <trkpt lat="41.651615000" lon="2.551050100">
        <ele>387.10</ele>
        <time>2012-04-22T08:34:01Z</time>
      </trkpt>
      <trkpt lat="41.651695000" lon="2.551272100">
        <ele>388.00</ele>
        <time>2012-04-22T08:34:10Z</time>
      </trkpt>
      <trkpt lat="41.651707000" lon="2.551294100">
        <ele>388.00</ele>
        <time>2012-04-22T08:34:12Z</time>
      </trkpt>
      <trkpt lat="41.651848000" lon="2.551456100">
        <ele>389.00</ele>
        <time>2012-04-22T08:34:22Z</time>
      </trkpt>
      <trkpt lat="41.651974000" lon="2.551551100">
        <ele>390.90</ele>
        <time>2012-04-22T08:34:31Z</time>
      </trkpt>
      <trkpt lat="41.652122000" lon="2.551638100">
        <ele>392.40</ele>
        <time>2012-04-22T08:34:41Z</time>
      </trkpt>
      <trkpt lat="41.652233000" lon="2.551662100">
        <ele>394.30</ele>
        <time>2012-04-22T08:34:48Z</time>
      </trkpt>
      <trkpt lat="41.652336000" lon="2.551689100">
        <ele>395.20</ele>
        <time>2012-04-22T08:34:55Z</time>
      </trkpt>
      <trkpt lat="41.652390000" lon="2.551705100">
        <ele>398.60</ele>
        <time>2012-04-22T08:35:00Z</time>
      </trkpt>
      <trkpt lat="41.652447000" lon="2.551731100">
        <ele>402.00</ele>
        <time>2012-04-22T08:35:04Z</time>
      </trkpt>
      <trkpt lat="41.652546000" lon="2.551793100">
        <ele>402.50</ele>
        <time>2012-04-22T08:35:11Z</time>
      </trkpt>
      <trkpt lat="41.652603000" lon="2.551893100">
        <ele>402.50</ele>
        <time>2012-04-22T08:35:18Z</time>
      </trkpt>
      <trkpt lat="41.652599000" lon="2.551908100">
        <ele>402.50</ele>
        <time>2012-04-22T08:35:18Z</time>
      </trkpt>
      <trkpt lat="41.652519000" lon="2.552063100">
        <ele>402.90</ele>
        <time>2012-04-22T08:35:28Z</time>
      </trkpt>
      <trkpt lat="41.652462000" lon="2.552156100">
        <ele>404.40</ele>
        <time>2012-04-22T08:35:35Z</time>
      </trkpt>
      <trkpt lat="41.652359000" lon="2.552271100">
        <ele>405.30</ele>
        <time>2012-04-22T08:35:44Z</time>
      </trkpt>
      <trkpt lat="41.652294000" lon="2.552365100">
        <ele>406.30</ele>
        <time>2012-04-22T08:35:51Z</time>
      </trkpt>
      <trkpt lat="41.652210000" lon="2.552442100">
        <ele>406.80</ele>
        <time>2012-04-22T08:35:58Z</time>
      </trkpt>
      <trkpt lat="41.652115000" lon="2.552521100">
        <ele>406.80</ele>
        <time>2012-04-22T08:36:05Z</time>
      </trkpt>
      <trkpt lat="41.652042000" lon="2.552679100">
        <ele>405.80</ele>
        <time>2012-04-22T08:36:10Z</time>
      </trkpt>
      <trkpt lat="41.651989000" lon="2.552922100">
        <ele>404.90</ele>
        <time>2012-04-22T08:36:17Z</time>
      </trkpt>
      <trkpt lat="41.651924000" lon="2.553090100">
        <ele>404.40</ele>
        <time>2012-04-22T08:36:22Z</time>
      </trkpt>
      <trkpt lat="41.651848000" lon="2.553271100">
        <ele>403.40</ele>
        <time>2012-04-22T08:36:27Z</time>
      </trkpt>
      <trkpt lat="41.651661000" lon="2.553433100">
        <ele>402.90</ele>
        <time>2012-04-22T08:36:34Z</time>
      </trkpt>
      <trkpt lat="41.651649000" lon="2.553619100">
        <ele>402.50</ele>
        <time>2012-04-22T08:36:41Z</time>
      </trkpt>
      <trkpt lat="41.651726000" lon="2.553709100">
        <ele>402.50</ele>
        <time>2012-04-22T08:36:45Z</time>
      </trkpt>
      <trkpt lat="41.651943000" lon="2.553791100">
        <ele>402.50</ele>
        <time>2012-04-22T08:36:52Z</time>
      </trkpt>
      <trkpt lat="41.652134000" lon="2.553967100">
        <ele>402.50</ele>
        <time>2012-04-22T08:37:00Z</time>
      </trkpt>
      <trkpt lat="41.652233000" lon="2.554220100">
        <ele>402.50</ele>
        <time>2012-04-22T08:37:06Z</time>
      </trkpt>
      <trkpt lat="41.652393000" lon="2.554339100">
        <ele>402.00</ele>
        <time>2012-04-22T08:37:13Z</time>
      </trkpt>
      <trkpt lat="41.652538000" lon="2.554593100">
        <ele>402.00</ele>
        <time>2012-04-22T08:37:20Z</time>
      </trkpt>
      <trkpt lat="41.652626000" lon="2.554842100">
        <ele>401.50</ele>
        <time>2012-04-22T08:37:25Z</time>
      </trkpt>
      <trkpt lat="41.652531000" lon="2.554997100">
        <ele>401.00</ele>
        <time>2012-04-22T08:37:30Z</time>
      </trkpt>
      <trkpt lat="41.652313000" lon="2.555040100">
        <ele>399.60</ele>
        <time>2012-04-22T08:37:37Z</time>
      </trkpt>
      <trkpt lat="41.652100000" lon="2.555238100">
        <ele>398.60</ele>
        <time>2012-04-22T08:37:44Z</time>
      </trkpt>
      <trkpt lat="41.651863000" lon="2.555472100">
        <ele>396.70</ele>
        <time>2012-04-22T08:37:51Z</time>
      </trkpt>
      <trkpt lat="41.651585000" lon="2.555776100">
        <ele>395.20</ele>
        <time>2012-04-22T08:38:00Z</time>
      </trkpt>
      <trkpt lat="41.651375000" lon="2.556033100">
        <ele>393.80</ele>
        <time>2012-04-22T08:38:07Z</time>
      </trkpt>
      <trkpt lat="41.651272000" lon="2.556147100">
        <ele>393.30</ele>
        <time>2012-04-22T08:38:10Z</time>
      </trkpt>
      <trkpt lat="41.650940000" lon="2.556341100">
        <ele>392.40</ele>
        <time>2012-04-22T08:38:17Z</time>
      </trkpt>
      <trkpt lat="41.650738000" lon="2.556580100">
        <ele>387.50</ele>
        <time>2012-04-22T08:38:22Z</time>
      </trkpt>
      <trkpt lat="41.650669000" lon="2.556684100">
        <ele>385.10</ele>
        <time>2012-04-22T08:38:24Z</time>
      </trkpt>
      <trkpt lat="41.650578000" lon="2.556916100">
        <ele>381.80</ele>
        <time>2012-04-22T08:38:28Z</time>
      </trkpt>
      <trkpt lat="41.650536000" lon="2.557401100">
        <ele>380.80</ele>
        <time>2012-04-22T08:38:36Z</time>
      </trkpt>
      <trkpt lat="41.650543000" lon="2.557672100">
        <ele>380.80</ele>
        <time>2012-04-22T08:38:40Z</time>
      </trkpt>
      <trkpt lat="41.650536000" lon="2.558199100">
        <ele>380.80</ele>
        <time>2012-04-22T08:38:47Z</time>
      </trkpt>
      <trkpt lat="41.650528000" lon="2.558385100">
        <ele>380.80</ele>
        <time>2012-04-22T08:38:50Z</time>
      </trkpt>
      <trkpt lat="41.650581000" lon="2.558684100">
        <ele>380.80</ele>
        <time>2012-04-22T08:38:57Z</time>
      </trkpt>
      <trkpt lat="41.650707000" lon="2.559021100">
        <ele>380.80</ele>
        <time>2012-04-22T08:39:06Z</time>
      </trkpt>
      <trkpt lat="41.650742000" lon="2.559131100">
        <ele>380.80</ele>
        <time>2012-04-22T08:39:09Z</time>
      </trkpt>
      <trkpt lat="41.650677000" lon="2.559283100">
        <ele>380.80</ele>
        <time>2012-04-22T08:39:13Z</time>
      </trkpt>
      <trkpt lat="41.650654000" lon="2.559285100">
        <ele>380.80</ele>
        <time>2012-04-22T08:39:15Z</time>
      </trkpt>
      <trkpt lat="41.650372000" lon="2.559223100">
        <ele>380.80</ele>
        <time>2012-04-22T08:39:22Z</time>
      </trkpt>
      <trkpt lat="41.650127000" lon="2.559085100">
        <ele>377.00</ele>
        <time>2012-04-22T08:39:27Z</time>
      </trkpt>
      <trkpt lat="41.650082000" lon="2.559059100">
        <ele>375.50</ele>
        <time>2012-04-22T08:39:27Z</time>
      </trkpt>
      <trkpt lat="41.649929000" lon="2.559004100">
        <ele>372.20</ele>
        <time>2012-04-22T08:39:30Z</time>
      </trkpt>
      <trkpt lat="41.649658000" lon="2.558849100">
        <ele>367.40</ele>
        <time>2012-04-22T08:39:35Z</time>
      </trkpt>
      <trkpt lat="41.649609000" lon="2.558820100">
        <ele>366.40</ele>
        <time>2012-04-22T08:39:37Z</time>
      </trkpt>
      <trkpt lat="41.649429000" lon="2.558731100">
        <ele>364.50</ele>
        <time>2012-04-22T08:39:41Z</time>
      </trkpt>
      <trkpt lat="41.649162000" lon="2.558825100">
        <ele>360.60</ele>
        <time>2012-04-22T08:39:46Z</time>
      </trkpt>
      <trkpt lat="41.649067000" lon="2.558897100">
        <ele>359.70</ele>
        <time>2012-04-22T08:39:48Z</time>
      </trkpt>
      <trkpt lat="41.648964000" lon="2.558979100">
        <ele>358.70</ele>
        <time>2012-04-22T08:39:51Z</time>
      </trkpt>
      <trkpt lat="41.648708000" lon="2.558983100">
        <ele>356.80</ele>
        <time>2012-04-22T08:39:55Z</time>
      </trkpt>
      <trkpt lat="41.648544000" lon="2.558864100">
        <ele>353.40</ele>
        <time>2012-04-22T08:40:00Z</time>
      </trkpt>
      <trkpt lat="41.648506000" lon="2.558860100">
        <ele>352.90</ele>
        <time>2012-04-22T08:40:00Z</time>
      </trkpt>
      <trkpt lat="41.648174000" lon="2.558887100">
        <ele>348.10</ele>
        <time>2012-04-22T08:40:07Z</time>
      </trkpt>
      <trkpt lat="41.647957000" lon="2.558919100">
        <ele>344.80</ele>
        <time>2012-04-22T08:40:10Z</time>
      </trkpt>
      <trkpt lat="41.647720000" lon="2.558932100">
        <ele>341.40</ele>
        <time>2012-04-22T08:40:14Z</time>
      </trkpt>
      <trkpt lat="41.647469000" lon="2.558933100">
        <ele>338.00</ele>
        <time>2012-04-22T08:40:19Z</time>
      </trkpt>
      <trkpt lat="41.647411000" lon="2.558934100">
        <ele>337.10</ele>
        <time>2012-04-22T08:40:19Z</time>
      </trkpt>
      <trkpt lat="41.647289000" lon="2.559142100">
        <ele>333.20</ele>
        <time>2012-04-22T08:40:24Z</time>
      </trkpt>
      <trkpt lat="41.647408000" lon="2.559230100">
        <ele>333.20</ele>
        <time>2012-04-22T08:40:28Z</time>
      </trkpt>
      <trkpt lat="41.647461000" lon="2.559241100">
        <ele>333.20</ele>
        <time>2012-04-22T08:40:28Z</time>
      </trkpt>
      <trkpt lat="41.647697000" lon="2.559422100">
        <ele>333.20</ele>
        <time>2012-04-22T08:40:33Z</time>
      </trkpt>
      <trkpt lat="41.647884000" lon="2.559698100">
        <ele>332.80</ele>
        <time>2012-04-22T08:40:38Z</time>
      </trkpt>
      <trkpt lat="41.647854000" lon="2.559839100">
        <ele>332.80</ele>
        <time>2012-04-22T08:40:40Z</time>
      </trkpt>
      <trkpt lat="41.647724000" lon="2.560295100">
        <ele>329.40</ele>
        <time>2012-04-22T08:40:45Z</time>
      </trkpt>
      <trkpt lat="41.647694000" lon="2.560507100">
        <ele>326.00</ele>
        <time>2012-04-22T08:40:47Z</time>
      </trkpt>
      <trkpt lat="41.647682000" lon="2.560607100">
        <ele>324.60</ele>
        <time>2012-04-22T08:40:49Z</time>
      </trkpt>
      <trkpt lat="41.647686000" lon="2.560843100">
        <ele>319.30</ele>
        <time>2012-04-22T08:40:52Z</time>
      </trkpt>
      <trkpt lat="41.647713000" lon="2.560915100">
        <ele>318.30</ele>
        <time>2012-04-22T08:40:52Z</time>
      </trkpt>
      <trkpt lat="41.647789000" lon="2.561077100">
        <ele>315.90</ele>
        <time>2012-04-22T08:40:54Z</time>
      </trkpt>
      <trkpt lat="41.647884000" lon="2.561208100">
        <ele>315.50</ele>
        <time>2012-04-22T08:40:57Z</time>
      </trkpt>
      <trkpt lat="41.648010000" lon="2.561321100">
        <ele>315.00</ele>
        <time>2012-04-22T08:40:59Z</time>
      </trkpt>
      <trkpt lat="41.648254000" lon="2.561615100">
        <ele>315.00</ele>
        <time>2012-04-22T08:41:03Z</time>
      </trkpt>
      <trkpt lat="41.648312000" lon="2.561869100">
        <ele>314.50</ele>
        <time>2012-04-22T08:41:06Z</time>
      </trkpt>
      <trkpt lat="41.648254000" lon="2.561932100">
        <ele>314.50</ele>
        <time>2012-04-22T08:41:08Z</time>
      </trkpt>
      <trkpt lat="41.648167000" lon="2.561973100">
        <ele>314.00</ele>
        <time>2012-04-22T08:41:11Z</time>
      </trkpt>
      <trkpt lat="41.647972000" lon="2.562076100">
        <ele>312.10</ele>
        <time>2012-04-22T08:41:15Z</time>
      </trkpt>
      <trkpt lat="41.647781000" lon="2.562147100">
        <ele>309.70</ele>
        <time>2012-04-22T08:41:18Z</time>
      </trkpt>
      <trkpt lat="41.647610000" lon="2.562216100">
        <ele>309.20</ele>
        <time>2012-04-22T08:41:22Z</time>
      </trkpt>
      <trkpt lat="41.647427000" lon="2.562354100">
        <ele>309.20</ele>
        <time>2012-04-22T08:41:27Z</time>
      </trkpt>
      <trkpt lat="41.647331000" lon="2.562411100">
        <ele>309.20</ele>
        <time>2012-04-22T08:41:29Z</time>
      </trkpt>
      <trkpt lat="41.647118000" lon="2.562483100">
        <ele>308.70</ele>
        <time>2012-04-22T08:41:32Z</time>
      </trkpt>
      <trkpt lat="41.646824000" lon="2.562443100">
        <ele>308.70</ele>
        <time>2012-04-22T08:41:37Z</time>
      </trkpt>
      <trkpt lat="41.646507000" lon="2.562254100">
        <ele>307.80</ele>
        <time>2012-04-22T08:41:43Z</time>
      </trkpt>
      <trkpt lat="41.646328000" lon="2.562068100">
        <ele>303.40</ele>
        <time>2012-04-22T08:41:46Z</time>
      </trkpt>
      <trkpt lat="41.646290000" lon="2.562039100">
        <ele>302.00</ele>
        <time>2012-04-22T08:41:48Z</time>
      </trkpt>
      <trkpt lat="41.646152000" lon="2.561992100">
        <ele>297.70</ele>
        <time>2012-04-22T08:41:51Z</time>
      </trkpt>
      <trkpt lat="41.645916000" lon="2.562085100">
        <ele>296.20</ele>
        <time>2012-04-22T08:41:57Z</time>
      </trkpt>
      <trkpt lat="41.645824000" lon="2.561949100">
        <ele>296.20</ele>
        <time>2012-04-22T08:42:00Z</time>
      </trkpt>
      <trkpt lat="41.645828000" lon="2.561822100">
        <ele>296.20</ele>
        <time>2012-04-22T08:42:02Z</time>
      </trkpt>
      <trkpt lat="41.645775000" lon="2.561513100">
        <ele>295.70</ele>
        <time>2012-04-22T08:42:07Z</time>
      </trkpt>
      <trkpt lat="41.645657000" lon="2.561444100">
        <ele>295.30</ele>
        <time>2012-04-22T08:42:09Z</time>
      </trkpt>
      <trkpt lat="41.645515000" lon="2.561393100">
        <ele>292.90</ele>
        <time>2012-04-22T08:42:11Z</time>
      </trkpt>
      <trkpt lat="41.645294000" lon="2.561288100">
        <ele>289.50</ele>
        <time>2012-04-22T08:42:14Z</time>
      </trkpt>
      <trkpt lat="41.645039000" lon="2.561304100">
        <ele>284.70</ele>
        <time>2012-04-22T08:42:17Z</time>
      </trkpt>
      <trkpt lat="41.644867000" lon="2.561512100">
        <ele>281.30</ele>
        <time>2012-04-22T08:42:21Z</time>
      </trkpt>
      <trkpt lat="41.644726000" lon="2.561646100">
        <ele>279.90</ele>
        <time>2012-04-22T08:42:23Z</time>
      </trkpt>
      <trkpt lat="41.644466000" lon="2.561709100">
        <ele>277.00</ele>
        <time>2012-04-22T08:42:26Z</time>
      </trkpt>
      <trkpt lat="41.644043000" lon="2.561599100">
        <ele>273.60</ele>
        <time>2012-04-22T08:42:31Z</time>
      </trkpt>
      <trkpt lat="41.643841000" lon="2.561467100">
        <ele>270.80</ele>
        <time>2012-04-22T08:42:35Z</time>
      </trkpt>
      <trkpt lat="41.643822000" lon="2.561403100">
        <ele>270.30</ele>
        <time>2012-04-22T08:42:37Z</time>
      </trkpt>
      <trkpt lat="41.643803000" lon="2.561184100">
        <ele>269.30</ele>
        <time>2012-04-22T08:42:40Z</time>
      </trkpt>
      <trkpt lat="41.643806000" lon="2.560645100">
        <ele>268.40</ele>
        <time>2012-04-22T08:42:45Z</time>
      </trkpt>
      <trkpt lat="41.643673000" lon="2.560430100">
        <ele>267.40</ele>
        <time>2012-04-22T08:42:49Z</time>
      </trkpt>
      <trkpt lat="41.643600000" lon="2.560374100">
        <ele>266.90</ele>
        <time>2012-04-22T08:42:51Z</time>
      </trkpt>
      <trkpt lat="41.643307000" lon="2.560189100">
        <ele>263.10</ele>
        <time>2012-04-22T08:42:54Z</time>
      </trkpt>
      <trkpt lat="41.642963000" lon="2.560116100">
        <ele>258.20</ele>
        <time>2012-04-22T08:42:59Z</time>
      </trkpt>
      <trkpt lat="41.642521000" lon="2.560235100">
        <ele>253.90</ele>
        <time>2012-04-22T08:43:03Z</time>
      </trkpt>
      <trkpt lat="41.642200000" lon="2.560188100">
        <ele>253.00</ele>
        <time>2012-04-22T08:43:08Z</time>
      </trkpt>
      <trkpt lat="41.641895000" lon="2.559952100">
        <ele>251.50</ele>
        <time>2012-04-22T08:43:13Z</time>
      </trkpt>
      <trkpt lat="41.641720000" lon="2.560028100">
        <ele>248.20</ele>
        <time>2012-04-22T08:43:15Z</time>
      </trkpt>
      <trkpt lat="41.641624000" lon="2.560117100">
        <ele>246.70</ele>
        <time>2012-04-22T08:43:17Z</time>
      </trkpt>
      <trkpt lat="41.641430000" lon="2.560157100">
        <ele>245.30</ele>
        <time>2012-04-22T08:43:22Z</time>
      </trkpt>
      <trkpt lat="41.641350000" lon="2.559928100">
        <ele>244.80</ele>
        <time>2012-04-22T08:43:25Z</time>
      </trkpt>
      <trkpt lat="41.641232000" lon="2.559698100">
        <ele>244.30</ele>
        <time>2012-04-22T08:43:29Z</time>
      </trkpt>
      <trkpt lat="41.641106000" lon="2.559652100">
        <ele>244.30</ele>
        <time>2012-04-22T08:43:32Z</time>
      </trkpt>
      <trkpt lat="41.640965000" lon="2.559621100">
        <ele>243.40</ele>
        <time>2012-04-22T08:43:36Z</time>
      </trkpt>
      <trkpt lat="41.640770000" lon="2.559541100">
        <ele>242.40</ele>
        <time>2012-04-22T08:43:41Z</time>
      </trkpt>
      <trkpt lat="41.640659000" lon="2.559552100">
        <ele>241.90</ele>
        <time>2012-04-22T08:43:45Z</time>
      </trkpt>
      <trkpt lat="41.640404000" lon="2.559610100">
        <ele>239.00</ele>
        <time>2012-04-22T08:43:50Z</time>
      </trkpt>
      <trkpt lat="41.640282000" lon="2.559574100">
        <ele>236.60</ele>
        <time>2012-04-22T08:43:52Z</time>
      </trkpt>
      <trkpt lat="41.640049000" lon="2.559550100">
        <ele>232.30</ele>
        <time>2012-04-22T08:43:55Z</time>
      </trkpt>
      <trkpt lat="41.639912000" lon="2.559365100">
        <ele>230.90</ele>
        <time>2012-04-22T08:43:59Z</time>
      </trkpt>
      <trkpt lat="41.639782000" lon="2.559330100">
        <ele>229.40</ele>
        <time>2012-04-22T08:44:02Z</time>
      </trkpt>
      <trkpt lat="41.639736000" lon="2.559371100">
        <ele>229.40</ele>
        <time>2012-04-22T08:44:02Z</time>
      </trkpt>
      <trkpt lat="41.639370000" lon="2.559819100">
        <ele>226.50</ele>
        <time>2012-04-22T08:44:09Z</time>
      </trkpt>
      <trkpt lat="41.639095000" lon="2.560034100">
        <ele>225.10</ele>
        <time>2012-04-22T08:44:14Z</time>
      </trkpt>
      <trkpt lat="41.638683000" lon="2.560058100">
        <ele>220.30</ele>
        <time>2012-04-22T08:44:19Z</time>
      </trkpt>
      <trkpt lat="41.638367000" lon="2.559881100">
        <ele>215.90</ele>
        <time>2012-04-22T08:44:25Z</time>
      </trkpt>
      <trkpt lat="41.638145000" lon="2.559865100">
        <ele>214.00</ele>
        <time>2012-04-22T08:44:28Z</time>
      </trkpt>
      <trkpt lat="41.638077000" lon="2.559976100">
        <ele>214.50</ele>
        <time>2012-04-22T08:44:30Z</time>
      </trkpt>
      <trkpt lat="41.638020000" lon="2.560113100">
        <ele>214.00</ele>
        <time>2012-04-22T08:44:33Z</time>
      </trkpt>
      <trkpt lat="41.637783000" lon="2.560452100">
        <ele>212.60</ele>
        <time>2012-04-22T08:44:37Z</time>
      </trkpt>
      <trkpt lat="41.637768000" lon="2.560683100">
        <ele>210.20</ele>
        <time>2012-04-22T08:44:42Z</time>
      </trkpt>
      <trkpt lat="41.637856000" lon="2.560781100">
        <ele>208.70</ele>
        <time>2012-04-22T08:44:44Z</time>
      </trkpt>
      <trkpt lat="41.638279000" lon="2.561137100">
        <ele>205.40</ele>
        <time>2012-04-22T08:44:51Z</time>
      </trkpt>
      <trkpt lat="41.638409000" lon="2.561331100">
        <ele>204.90</ele>
        <time>2012-04-22T08:44:54Z</time>
      </trkpt>
      <trkpt lat="41.638565000" lon="2.561467100">
        <ele>203.90</ele>
        <time>2012-04-22T08:44:56Z</time>
      </trkpt>
      <trkpt lat="41.638992000" lon="2.561706100">
        <ele>200.60</ele>
        <time>2012-04-22T08:45:03Z</time>
      </trkpt>
      <trkpt lat="41.639133000" lon="2.561794100">
        <ele>199.60</ele>
        <time>2012-04-22T08:45:05Z</time>
      </trkpt>
      <trkpt lat="41.639370000" lon="2.562014100">
        <ele>198.20</ele>
        <time>2012-04-22T08:45:08Z</time>
      </trkpt>
      <trkpt lat="41.639553000" lon="2.562138100">
        <ele>197.70</ele>
        <time>2012-04-22T08:45:12Z</time>
      </trkpt>
      <trkpt lat="41.639652000" lon="2.562328100">
        <ele>197.70</ele>
        <time>2012-04-22T08:45:15Z</time>
      </trkpt>
      <trkpt lat="41.639603000" lon="2.562591100">
        <ele>196.70</ele>
        <time>2012-04-22T08:45:19Z</time>
      </trkpt>
      <trkpt lat="41.639744000" lon="2.562747100">
        <ele>192.90</ele>
        <time>2012-04-22T08:45:24Z</time>
      </trkpt>
      <trkpt lat="41.639843000" lon="2.562777100">
        <ele>191.40</ele>
        <time>2012-04-22T08:45:26Z</time>
      </trkpt>
      <trkpt lat="41.640053000" lon="2.562791100">
        <ele>190.50</ele>
        <time>2012-04-22T08:45:29Z</time>
      </trkpt>
      <trkpt lat="41.640205000" lon="2.562881100">
        <ele>190.00</ele>
        <time>2012-04-22T08:45:34Z</time>
      </trkpt>
      <trkpt lat="41.640232000" lon="2.563021100">
        <ele>190.00</ele>
        <time>2012-04-22T08:45:41Z</time>
      </trkpt>
      <trkpt lat="41.640213000" lon="2.563159100">
        <ele>190.00</ele>
        <time>2012-04-22T08:45:48Z</time>
      </trkpt>
      <trkpt lat="41.640213000" lon="2.563156100">
        <ele>190.00</ele>
        <time>2012-04-22T08:46:16Z</time>
      </trkpt>
      <trkpt lat="41.640221000" lon="2.563171100">
        <ele>190.00</ele>
        <time>2012-04-22T08:46:42Z</time>
      </trkpt>
      <trkpt lat="41.640228000" lon="2.563170100">
        <ele>190.00</ele>
        <time>2012-04-22T08:47:19Z</time>
      </trkpt>
      <trkpt lat="41.640236000" lon="2.563188100">
        <ele>190.00</ele>
        <time>2012-04-22T08:48:30Z</time>
      </trkpt>
      <trkpt lat="41.640236000" lon="2.563198100">
        <ele>190.00</ele>
        <time>2012-04-22T08:49:35Z</time>
      </trkpt>
      <trkpt lat="41.640236000" lon="2.563196100">
        <ele>190.00</ele>
        <time>2012-04-22T08:49:40Z</time>
      </trkpt>
      <trkpt lat="41.640358000" lon="2.563385100">
        <ele>190.00</ele>
        <time>2012-04-22T08:49:49Z</time>
      </trkpt>
      <trkpt lat="41.640450000" lon="2.563522100">
        <ele>191.00</ele>
        <time>2012-04-22T08:49:57Z</time>
      </trkpt>
      <trkpt lat="41.640553000" lon="2.563686100">
        <ele>191.90</ele>
        <time>2012-04-22T08:50:04Z</time>
      </trkpt>
      <trkpt lat="41.640671000" lon="2.563861100">
        <ele>193.40</ele>
        <time>2012-04-22T08:50:13Z</time>
      </trkpt>
      <trkpt lat="41.640766000" lon="2.564012100">
        <ele>194.30</ele>
        <time>2012-04-22T08:50:20Z</time>
      </trkpt>
      <trkpt lat="41.640850000" lon="2.564141100">
        <ele>195.80</ele>
        <time>2012-04-22T08:50:27Z</time>
      </trkpt>
      <trkpt lat="41.640862000" lon="2.564157100">
        <ele>195.80</ele>
        <time>2012-04-22T08:50:27Z</time>
      </trkpt>
      <trkpt lat="41.640888000" lon="2.564327100">
        <ele>197.20</ele>
        <time>2012-04-22T08:50:36Z</time>
      </trkpt>
      <trkpt lat="41.640888000" lon="2.564405100">
        <ele>197.70</ele>
        <time>2012-04-22T08:50:41Z</time>
      </trkpt>
      <trkpt lat="41.640930000" lon="2.564615100">
        <ele>198.60</ele>
        <time>2012-04-22T08:50:48Z</time>
      </trkpt>
      <trkpt lat="41.640934000" lon="2.564661100">
        <ele>199.10</ele>
        <time>2012-04-22T08:50:50Z</time>
      </trkpt>
      <trkpt lat="41.640999000" lon="2.564874100">
        <ele>199.60</ele>
        <time>2012-04-22T08:51:00Z</time>
      </trkpt>
      <trkpt lat="41.641075000" lon="2.565013100">
        <ele>201.10</ele>
        <time>2012-04-22T08:51:07Z</time>
      </trkpt>
      <trkpt lat="41.641113000" lon="2.565136100">
        <ele>201.50</ele>
        <time>2012-04-22T08:51:12Z</time>
      </trkpt>
      <trkpt lat="41.641212000" lon="2.565301100">
        <ele>202.50</ele>
        <time>2012-04-22T08:51:21Z</time>
      </trkpt>
      <trkpt lat="41.641327000" lon="2.565458100">
        <ele>203.00</ele>
        <time>2012-04-22T08:51:28Z</time>
      </trkpt>
      <trkpt lat="41.641479000" lon="2.565592100">
        <ele>203.90</ele>
        <time>2012-04-22T08:51:35Z</time>
      </trkpt>
      <trkpt lat="41.641655000" lon="2.565741100">
        <ele>205.40</ele>
        <time>2012-04-22T08:51:45Z</time>
      </trkpt>
      <trkpt lat="41.641743000" lon="2.565910100">
        <ele>206.80</ele>
        <time>2012-04-22T08:51:54Z</time>
      </trkpt>
      <trkpt lat="41.641777000" lon="2.566117100">
        <ele>208.30</ele>
        <time>2012-04-22T08:52:03Z</time>
      </trkpt>
      <trkpt lat="41.641830000" lon="2.566318100">
        <ele>209.20</ele>
        <time>2012-04-22T08:52:11Z</time>
      </trkpt>
      <trkpt lat="41.641933000" lon="2.566509100">
        <ele>211.60</ele>
        <time>2012-04-22T08:52:22Z</time>
      </trkpt>
      <trkpt lat="41.641964000" lon="2.566676100">
        <ele>213.10</ele>
        <time>2012-04-22T08:52:29Z</time>
      </trkpt>
      <trkpt lat="41.641987000" lon="2.566901100">
        <ele>214.50</ele>
        <time>2012-04-22T08:52:38Z</time>
      </trkpt>
      <trkpt lat="41.642052000" lon="2.567130100">
        <ele>215.90</ele>
        <time>2012-04-22T08:52:48Z</time>
      </trkpt>
      <trkpt lat="41.642143000" lon="2.567247100">
        <ele>217.40</ele>
        <time>2012-04-22T08:52:55Z</time>
      </trkpt>
      <trkpt lat="41.642239000" lon="2.567384100">
        <ele>219.30</ele>
        <time>2012-04-22T08:53:04Z</time>
      </trkpt>
      <trkpt lat="41.642338000" lon="2.567574100">
        <ele>220.30</ele>
        <time>2012-04-22T08:53:14Z</time>
      </trkpt>
      <trkpt lat="41.642368000" lon="2.567636100">
        <ele>221.20</ele>
        <time>2012-04-22T08:53:18Z</time>
      </trkpt>
      <trkpt lat="41.642403000" lon="2.567861100">
        <ele>222.70</ele>
        <time>2012-04-22T08:53:25Z</time>
      </trkpt>
      <trkpt lat="41.642471000" lon="2.568047100">
        <ele>223.20</ele>
        <time>2012-04-22T08:53:33Z</time>
      </trkpt>
      <trkpt lat="41.642612000" lon="2.568237100">
        <ele>224.60</ele>
        <time>2012-04-22T08:53:42Z</time>
      </trkpt>
      <trkpt lat="41.642712000" lon="2.568340100">
        <ele>225.10</ele>
        <time>2012-04-22T08:53:49Z</time>
      </trkpt>
      <trkpt lat="41.642815000" lon="2.568423100">
        <ele>226.10</ele>
        <time>2012-04-22T08:53:56Z</time>
      </trkpt>
      <trkpt lat="41.642857000" lon="2.568455100">
        <ele>227.00</ele>
        <time>2012-04-22T08:53:59Z</time>
      </trkpt>
      <trkpt lat="41.642883000" lon="2.568504100">
        <ele>227.50</ele>
        <time>2012-04-22T08:54:03Z</time>
      </trkpt>
      <trkpt lat="41.642941000" lon="2.568669100">
        <ele>229.40</ele>
        <time>2012-04-22T08:54:12Z</time>
      </trkpt>
      <trkpt lat="41.643009000" lon="2.568867100">
        <ele>231.80</ele>
        <time>2012-04-22T08:54:22Z</time>
      </trkpt>
      <trkpt lat="41.643093000" lon="2.568996100">
        <ele>233.70</ele>
        <time>2012-04-22T08:54:29Z</time>
      </trkpt>
      <trkpt lat="41.643230000" lon="2.569162100">
        <ele>235.70</ele>
        <time>2012-04-22T08:54:38Z</time>
      </trkpt>
      <trkpt lat="41.643269000" lon="2.569344100">
        <ele>237.10</ele>
        <time>2012-04-22T08:54:45Z</time>
      </trkpt>
      <trkpt lat="41.643250000" lon="2.569501100">
        <ele>238.50</ele>
        <time>2012-04-22T08:54:54Z</time>
      </trkpt>
      <trkpt lat="41.643246000" lon="2.569687100">
        <ele>240.50</ele>
        <time>2012-04-22T08:55:02Z</time>
      </trkpt>
      <trkpt lat="41.643276000" lon="2.569876100">
        <ele>241.90</ele>
        <time>2012-04-22T08:55:11Z</time>
      </trkpt>
      <trkpt lat="41.643368000" lon="2.570038100">
        <ele>242.90</ele>
        <time>2012-04-22T08:55:20Z</time>
      </trkpt>
      <trkpt lat="41.643490000" lon="2.570157100">
        <ele>244.30</ele>
        <time>2012-04-22T08:55:30Z</time>
      </trkpt>
      <trkpt lat="41.643562000" lon="2.570225100">
        <ele>245.30</ele>
        <time>2012-04-22T08:55:35Z</time>
      </trkpt>
      <trkpt lat="41.643524000" lon="2.570342100">
        <ele>246.70</ele>
        <time>2012-04-22T08:55:42Z</time>
      </trkpt>
      <trkpt lat="41.643486000" lon="2.570331100">
        <ele>247.70</ele>
        <time>2012-04-22T08:55:46Z</time>
      </trkpt>
      <trkpt lat="41.643383000" lon="2.570199100">
        <ele>248.60</ele>
        <time>2012-04-22T08:55:54Z</time>
      </trkpt>
      <trkpt lat="41.643257000" lon="2.570088100">
        <ele>249.60</ele>
        <time>2012-04-22T08:56:03Z</time>
      </trkpt>
      <trkpt lat="41.643158000" lon="2.569949100">
        <ele>250.60</ele>
        <time>2012-04-22T08:56:10Z</time>
      </trkpt>
      <trkpt lat="41.643013000" lon="2.569791100">
        <ele>251.00</ele>
        <time>2012-04-22T08:56:19Z</time>
      </trkpt>
      <trkpt lat="41.642841000" lon="2.569762100">
        <ele>251.50</ele>
        <time>2012-04-22T08:56:26Z</time>
      </trkpt>
      <trkpt lat="41.642666000" lon="2.569761100">
        <ele>253.00</ele>
        <time>2012-04-22T08:56:36Z</time>
      </trkpt>
      <trkpt lat="41.642624000" lon="2.569774100">
        <ele>253.40</ele>
        <time>2012-04-22T08:56:38Z</time>
      </trkpt>
      <trkpt lat="41.642574000" lon="2.569837100">
        <ele>254.90</ele>
        <time>2012-04-22T08:56:43Z</time>
      </trkpt>
      <trkpt lat="41.642593000" lon="2.569919100">
        <ele>255.90</ele>
        <time>2012-04-22T08:56:48Z</time>
      </trkpt>
      <trkpt lat="41.642735000" lon="2.570019100">
        <ele>259.70</ele>
        <time>2012-04-22T08:56:59Z</time>
      </trkpt>
      <trkpt lat="41.642803000" lon="2.570112100">
        <ele>263.10</ele>
        <time>2012-04-22T08:57:04Z</time>
      </trkpt>
      <trkpt lat="41.642902000" lon="2.570275100">
        <ele>262.60</ele>
        <time>2012-04-22T08:57:15Z</time>
      </trkpt>
      <trkpt lat="41.642960000" lon="2.570317100">
        <ele>262.60</ele>
        <time>2012-04-22T08:57:18Z</time>
      </trkpt>
      <trkpt lat="41.643066000" lon="2.570444100">
        <ele>264.50</ele>
        <time>2012-04-22T08:57:27Z</time>
      </trkpt>
      <trkpt lat="41.643147000" lon="2.570595100">
        <ele>265.90</ele>
        <time>2012-04-22T08:57:37Z</time>
      </trkpt>
      <trkpt lat="41.643177000" lon="2.570653100">
        <ele>266.90</ele>
        <time>2012-04-22T08:57:41Z</time>
      </trkpt>
      <trkpt lat="41.643200000" lon="2.570775100">
        <ele>268.40</ele>
        <time>2012-04-22T08:57:48Z</time>
      </trkpt>
      <trkpt lat="41.643188000" lon="2.570912100">
        <ele>269.30</ele>
        <time>2012-04-22T08:57:55Z</time>
      </trkpt>
      <trkpt lat="41.643181000" lon="2.571074100">
        <ele>271.20</ele>
        <time>2012-04-22T08:58:03Z</time>
      </trkpt>
      <trkpt lat="41.643230000" lon="2.571218100">
        <ele>272.70</ele>
        <time>2012-04-22T08:58:12Z</time>
      </trkpt>
      <trkpt lat="41.643307000" lon="2.571333100">
        <ele>274.60</ele>
        <time>2012-04-22T08:58:19Z</time>
      </trkpt>
      <trkpt lat="41.643353000" lon="2.571410100">
        <ele>278.40</ele>
        <time>2012-04-22T08:58:24Z</time>
      </trkpt>
      <trkpt lat="41.643372000" lon="2.571451100">
        <ele>280.40</ele>
        <time>2012-04-22T08:58:28Z</time>
      </trkpt>
      <trkpt lat="41.643349000" lon="2.571636100">
        <ele>281.30</ele>
        <time>2012-04-22T08:58:38Z</time>
      </trkpt>
      <trkpt lat="41.643314000" lon="2.571754100">
        <ele>281.30</ele>
        <time>2012-04-22T08:58:45Z</time>
      </trkpt>
      <trkpt lat="41.643276000" lon="2.571908100">
        <ele>281.80</ele>
        <time>2012-04-22T08:58:54Z</time>
      </trkpt>
      <trkpt lat="41.643272000" lon="2.572073100">
        <ele>282.80</ele>
        <time>2012-04-22T08:59:03Z</time>
      </trkpt>
      <trkpt lat="41.643261000" lon="2.572285100">
        <ele>283.70</ele>
        <time>2012-04-22T08:59:11Z</time>
      </trkpt>
      <trkpt lat="41.643265000" lon="2.572451100">
        <ele>286.10</ele>
        <time>2012-04-22T08:59:20Z</time>
      </trkpt>
      <trkpt lat="41.643265000" lon="2.572469100">
        <ele>286.10</ele>
        <time>2012-04-22T08:59:20Z</time>
      </trkpt>
      <trkpt lat="41.643288000" lon="2.572551100">
        <ele>287.10</ele>
        <time>2012-04-22T08:59:25Z</time>
      </trkpt>
      <trkpt lat="41.643364000" lon="2.572590100">
        <ele>287.10</ele>
        <time>2012-04-22T08:59:29Z</time>
      </trkpt>
      <trkpt lat="41.643482000" lon="2.572535100">
        <ele>287.60</ele>
        <time>2012-04-22T08:59:39Z</time>
      </trkpt>
      <trkpt lat="41.643581000" lon="2.572479100">
        <ele>289.00</ele>
        <time>2012-04-22T08:59:46Z</time>
      </trkpt>
      <trkpt lat="41.643696000" lon="2.572510100">
        <ele>290.00</ele>
        <time>2012-04-22T08:59:55Z</time>
      </trkpt>
      <trkpt lat="41.643772000" lon="2.572599100">
        <ele>290.50</ele>
        <time>2012-04-22T09:00:02Z</time>
      </trkpt>
      <trkpt lat="41.643784000" lon="2.572616100">
        <ele>290.90</ele>
        <time>2012-04-22T09:00:02Z</time>
      </trkpt>
      <trkpt lat="41.643826000" lon="2.572677100">
        <ele>291.90</ele>
        <time>2012-04-22T09:00:07Z</time>
      </trkpt>
      <trkpt lat="41.643867000" lon="2.572846100">
        <ele>292.40</ele>
        <time>2012-04-22T09:00:16Z</time>
      </trkpt>
      <trkpt lat="41.643909000" lon="2.573087100">
        <ele>293.80</ele>
        <time>2012-04-22T09:00:26Z</time>
      </trkpt>
      <trkpt lat="41.643936000" lon="2.573129100">
        <ele>294.30</ele>
        <time>2012-04-22T09:00:28Z</time>
      </trkpt>
      <trkpt lat="41.644047000" lon="2.573208100">
        <ele>295.30</ele>
        <time>2012-04-22T09:00:37Z</time>
      </trkpt>
      <trkpt lat="41.644211000" lon="2.573243100">
        <ele>296.20</ele>
        <time>2012-04-22T09:00:47Z</time>
      </trkpt>
      <trkpt lat="41.644352000" lon="2.573246100">
        <ele>296.70</ele>
        <time>2012-04-22T09:00:54Z</time>
      </trkpt>
      <trkpt lat="41.644558000" lon="2.573345100">
        <ele>297.70</ele>
        <time>2012-04-22T09:01:03Z</time>
      </trkpt>
      <trkpt lat="41.644726000" lon="2.573477100">
        <ele>297.70</ele>
        <time>2012-04-22T09:01:08Z</time>
      </trkpt>
      <trkpt lat="41.644897000" lon="2.573630100">
        <ele>297.70</ele>
        <time>2012-04-22T09:01:15Z</time>
      </trkpt>
      <trkpt lat="41.644917000" lon="2.573654100">
        <ele>297.70</ele>
        <time>2012-04-22T09:01:20Z</time>
      </trkpt>
      <trkpt lat="41.644917000" lon="2.573650100">
        <ele>297.70</ele>
        <time>2012-04-22T09:01:31Z</time>
      </trkpt>
      <trkpt lat="41.644913000" lon="2.573644100">
        <ele>297.70</ele>
        <time>2012-04-22T09:01:59Z</time>
      </trkpt>
      <trkpt lat="41.644913000" lon="2.573655100">
        <ele>297.70</ele>
        <time>2012-04-22T09:02:11Z</time>
      </trkpt>
      <trkpt lat="41.644909000" lon="2.573658100">
        <ele>297.70</ele>
        <time>2012-04-22T09:02:47Z</time>
      </trkpt>
      <trkpt lat="41.644909000" lon="2.573657100">
        <ele>297.70</ele>
        <time>2012-04-22T09:03:03Z</time>
      </trkpt>
      <trkpt lat="41.644962000" lon="2.573841100">
        <ele>297.20</ele>
        <time>2012-04-22T09:03:22Z</time>
      </trkpt>
      <trkpt lat="41.644962000" lon="2.574013100">
        <ele>297.20</ele>
        <time>2012-04-22T09:03:24Z</time>
      </trkpt>
      <trkpt lat="41.644913000" lon="2.574408100">
        <ele>296.20</ele>
        <time>2012-04-22T09:03:31Z</time>
      </trkpt>
      <trkpt lat="41.644863000" lon="2.574834100">
        <ele>294.80</ele>
        <time>2012-04-22T09:03:38Z</time>
      </trkpt>
      <trkpt lat="41.644939000" lon="2.575114100">
        <ele>293.80</ele>
        <time>2012-04-22T09:03:43Z</time>
      </trkpt>
      <trkpt lat="41.645111000" lon="2.575088100">
        <ele>293.30</ele>
        <time>2012-04-22T09:03:45Z</time>
      </trkpt>
      <trkpt lat="41.645432000" lon="2.574908100">
        <ele>290.50</ele>
        <time>2012-04-22T09:03:50Z</time>
      </trkpt>
      <trkpt lat="41.645500000" lon="2.574897100">
        <ele>289.50</ele>
        <time>2012-04-22T09:03:52Z</time>
      </trkpt>
      <trkpt lat="41.645893000" lon="2.574845100">
        <ele>284.20</ele>
        <time>2012-04-22T09:03:57Z</time>
      </trkpt>
      <trkpt lat="41.645962000" lon="2.574841100">
        <ele>283.70</ele>
        <time>2012-04-22T09:03:57Z</time>
      </trkpt>
      <trkpt lat="41.646107000" lon="2.575025100">
        <ele>281.80</ele>
        <time>2012-04-22T09:04:02Z</time>
      </trkpt>
      <trkpt lat="41.646069000" lon="2.575347100">
        <ele>282.30</ele>
        <time>2012-04-22T09:04:06Z</time>
      </trkpt>
      <trkpt lat="41.645996000" lon="2.575668100">
        <ele>281.80</ele>
        <time>2012-04-22T09:04:09Z</time>
      </trkpt>
      <trkpt lat="41.646057000" lon="2.575915100">
        <ele>280.80</ele>
        <time>2012-04-22T09:04:13Z</time>
      </trkpt>
      <trkpt lat="41.646156000" lon="2.575933100">
        <ele>281.30</ele>
        <time>2012-04-22T09:04:16Z</time>
      </trkpt>
      <trkpt lat="41.646503000" lon="2.575964100">
        <ele>275.60</ele>
        <time>2012-04-22T09:04:21Z</time>
      </trkpt>
      <trkpt lat="41.646496000" lon="2.576194100">
        <ele>272.70</ele>
        <time>2012-04-22T09:04:25Z</time>
      </trkpt>
      <trkpt lat="41.646465000" lon="2.576285100">
        <ele>271.70</ele>
        <time>2012-04-22T09:04:25Z</time>
      </trkpt>
      <trkpt lat="41.646397000" lon="2.576479100">
        <ele>269.80</ele>
        <time>2012-04-22T09:04:28Z</time>
      </trkpt>
      <trkpt lat="41.646179000" lon="2.576892100">
        <ele>265.90</ele>
        <time>2012-04-22T09:04:32Z</time>
      </trkpt>
      <trkpt lat="41.646069000" lon="2.577281100">
        <ele>261.60</ele>
        <time>2012-04-22T09:04:35Z</time>
      </trkpt>
      <trkpt lat="41.646069000" lon="2.577873100">
        <ele>258.70</ele>
        <time>2012-04-22T09:04:42Z</time>
      </trkpt>
      <trkpt lat="41.646057000" lon="2.578207100">
        <ele>258.70</ele>
        <time>2012-04-22T09:04:46Z</time>
      </trkpt>
      <trkpt lat="41.646015000" lon="2.578429100">
        <ele>260.20</ele>
        <time>2012-04-22T09:04:49Z</time>
      </trkpt>
      <trkpt lat="41.646038000" lon="2.578631100">
        <ele>261.10</ele>
        <time>2012-04-22T09:04:54Z</time>
      </trkpt>
      <trkpt lat="41.646080000" lon="2.578675100">
        <ele>261.60</ele>
        <time>2012-04-22T09:04:56Z</time>
      </trkpt>
      <trkpt lat="41.646248000" lon="2.578694100">
        <ele>262.60</ele>
        <time>2012-04-22T09:05:03Z</time>
      </trkpt>
      <trkpt lat="41.646412000" lon="2.578628100">
        <ele>263.50</ele>
        <time>2012-04-22T09:05:10Z</time>
      </trkpt>
      <trkpt lat="41.646580000" lon="2.578622100">
        <ele>264.00</ele>
        <time>2012-04-22T09:05:17Z</time>
      </trkpt>
      <trkpt lat="41.646790000" lon="2.578624100">
        <ele>265.50</ele>
        <time>2012-04-22T09:05:26Z</time>
      </trkpt>
      <trkpt lat="41.646996000" lon="2.578593100">
        <ele>265.50</ele>
        <time>2012-04-22T09:05:33Z</time>
      </trkpt>
      <trkpt lat="41.647202000" lon="2.578592100">
        <ele>265.90</ele>
        <time>2012-04-22T09:05:40Z</time>
      </trkpt>
      <trkpt lat="41.647434000" lon="2.578655100">
        <ele>266.40</ele>
        <time>2012-04-22T09:05:47Z</time>
      </trkpt>
      <trkpt lat="41.647610000" lon="2.578804100">
        <ele>266.40</ele>
        <time>2012-04-22T09:05:54Z</time>
      </trkpt>
      <trkpt lat="41.647820000" lon="2.578811100">
        <ele>266.90</ele>
        <time>2012-04-22T09:05:59Z</time>
      </trkpt>
      <trkpt lat="41.648094000" lon="2.578814100">
        <ele>266.90</ele>
        <time>2012-04-22T09:06:06Z</time>
      </trkpt>
      <trkpt lat="41.648209000" lon="2.578945100">
        <ele>266.90</ele>
        <time>2012-04-22T09:06:11Z</time>
      </trkpt>
      <trkpt lat="41.648212000" lon="2.579015100">
        <ele>266.90</ele>
        <time>2012-04-22T09:06:13Z</time>
      </trkpt>
      <trkpt lat="41.648140000" lon="2.579268100">
        <ele>267.90</ele>
        <time>2012-04-22T09:06:20Z</time>
      </trkpt>
      <trkpt lat="41.648033000" lon="2.579340100">
        <ele>270.30</ele>
        <time>2012-04-22T09:06:27Z</time>
      </trkpt>
      <trkpt lat="41.647938000" lon="2.579380100">
        <ele>274.10</ele>
        <time>2012-04-22T09:06:30Z</time>
      </trkpt>
      <trkpt lat="41.647911000" lon="2.579395100">
        <ele>274.10</ele>
        <time>2012-04-22T09:06:32Z</time>
      </trkpt>
      <trkpt lat="41.647758000" lon="2.579587100">
        <ele>276.00</ele>
        <time>2012-04-22T09:06:39Z</time>
      </trkpt>
      <trkpt lat="41.647621000" lon="2.579811100">
        <ele>276.00</ele>
        <time>2012-04-22T09:06:48Z</time>
      </trkpt>
      <trkpt lat="41.647564000" lon="2.580018100">
        <ele>276.00</ele>
        <time>2012-04-22T09:06:55Z</time>
      </trkpt>
      <trkpt lat="41.647675000" lon="2.580263100">
        <ele>276.50</ele>
        <time>2012-04-22T09:07:03Z</time>
      </trkpt>
      <trkpt lat="41.647842000" lon="2.580410100">
        <ele>277.00</ele>
        <time>2012-04-22T09:07:12Z</time>
      </trkpt>
      <trkpt lat="41.648006000" lon="2.580497100">
        <ele>277.50</ele>
        <time>2012-04-22T09:07:19Z</time>
      </trkpt>
      <trkpt lat="41.648193000" lon="2.580683100">
        <ele>278.00</ele>
        <time>2012-04-22T09:07:26Z</time>
      </trkpt>
      <trkpt lat="41.648350000" lon="2.580869100">
        <ele>278.00</ele>
        <time>2012-04-22T09:07:31Z</time>
      </trkpt>
      <trkpt lat="41.648502000" lon="2.580970100">
        <ele>278.00</ele>
        <time>2012-04-22T09:07:36Z</time>
      </trkpt>
      <trkpt lat="41.648521000" lon="2.581008100">
        <ele>278.00</ele>
        <time>2012-04-22T09:07:38Z</time>
      </trkpt>
      <trkpt lat="41.648453000" lon="2.581150100">
        <ele>278.00</ele>
        <time>2012-04-22T09:07:42Z</time>
      </trkpt>
      <trkpt lat="41.648327000" lon="2.581140100">
        <ele>278.00</ele>
        <time>2012-04-22T09:07:45Z</time>
      </trkpt>
      <trkpt lat="41.648067000" lon="2.581163100">
        <ele>277.00</ele>
        <time>2012-04-22T09:07:52Z</time>
      </trkpt>
      <trkpt lat="41.647793000" lon="2.581232100">
        <ele>277.00</ele>
        <time>2012-04-22T09:08:01Z</time>
      </trkpt>
      <trkpt lat="41.647587000" lon="2.581279100">
        <ele>277.00</ele>
        <time>2012-04-22T09:08:08Z</time>
      </trkpt>
      <trkpt lat="41.647381000" lon="2.581322100">
        <ele>278.90</ele>
        <time>2012-04-22T09:08:15Z</time>
      </trkpt>
      <trkpt lat="41.647343000" lon="2.581479100">
        <ele>278.90</ele>
        <time>2012-04-22T09:08:20Z</time>
      </trkpt>
      <trkpt lat="41.647354000" lon="2.581518100">
        <ele>278.90</ele>
        <time>2012-04-22T09:08:22Z</time>
      </trkpt>
      <trkpt lat="41.647511000" lon="2.581698100">
        <ele>278.90</ele>
        <time>2012-04-22T09:08:29Z</time>
      </trkpt>
      <trkpt lat="41.647736000" lon="2.581825100">
        <ele>278.90</ele>
        <time>2012-04-22T09:08:36Z</time>
      </trkpt>
      <trkpt lat="41.647923000" lon="2.581959100">
        <ele>278.90</ele>
        <time>2012-04-22T09:08:43Z</time>
      </trkpt>
      <trkpt lat="41.648094000" lon="2.582146100">
        <ele>278.90</ele>
        <time>2012-04-22T09:08:51Z</time>
      </trkpt>
      <trkpt lat="41.648067000" lon="2.582318100">
        <ele>278.90</ele>
        <time>2012-04-22T09:08:57Z</time>
      </trkpt>
      <trkpt lat="41.647934000" lon="2.582329100">
        <ele>279.40</ele>
        <time>2012-04-22T09:09:02Z</time>
      </trkpt>
      <trkpt lat="41.647846000" lon="2.582334100">
        <ele>279.40</ele>
        <time>2012-04-22T09:09:05Z</time>
      </trkpt>
      <trkpt lat="41.647591000" lon="2.582363100">
        <ele>279.90</ele>
        <time>2012-04-22T09:09:14Z</time>
      </trkpt>
      <trkpt lat="41.647377000" lon="2.582438100">
        <ele>280.40</ele>
        <time>2012-04-22T09:09:21Z</time>
      </trkpt>
      <trkpt lat="41.647175000" lon="2.582520100">
        <ele>282.30</ele>
        <time>2012-04-22T09:09:30Z</time>
      </trkpt>
      <trkpt lat="41.647026000" lon="2.582571100">
        <ele>282.30</ele>
        <time>2012-04-22T09:09:35Z</time>
      </trkpt>
      <trkpt lat="41.646790000" lon="2.582633100">
        <ele>284.20</ele>
        <time>2012-04-22T09:09:45Z</time>
      </trkpt>
      <trkpt lat="41.646656000" lon="2.582815100">
        <ele>285.20</ele>
        <time>2012-04-22T09:09:54Z</time>
      </trkpt>
      <trkpt lat="41.646481000" lon="2.582928100">
        <ele>285.60</ele>
        <time>2012-04-22T09:10:01Z</time>
      </trkpt>
      <trkpt lat="41.646328000" lon="2.582865100">
        <ele>285.60</ele>
        <time>2012-04-22T09:10:06Z</time>
      </trkpt>
      <trkpt lat="41.646286000" lon="2.582952100">
        <ele>285.60</ele>
        <time>2012-04-22T09:10:10Z</time>
      </trkpt>
      <trkpt lat="41.646347000" lon="2.583012100">
        <ele>285.60</ele>
        <time>2012-04-22T09:10:13Z</time>
      </trkpt>
      <trkpt lat="41.646572000" lon="2.583153100">
        <ele>284.20</ele>
        <time>2012-04-22T09:10:20Z</time>
      </trkpt>
      <trkpt lat="41.646736000" lon="2.583328100">
        <ele>280.40</ele>
        <time>2012-04-22T09:10:25Z</time>
      </trkpt>
      <trkpt lat="41.646778000" lon="2.583461100">
        <ele>277.00</ele>
        <time>2012-04-22T09:10:29Z</time>
      </trkpt>
      <trkpt lat="41.646824000" lon="2.583816100">
        <ele>274.10</ele>
        <time>2012-04-22T09:10:36Z</time>
      </trkpt>
      <trkpt lat="41.646725000" lon="2.583921100">
        <ele>274.10</ele>
        <time>2012-04-22T09:10:43Z</time>
      </trkpt>
      <trkpt lat="41.646637000" lon="2.583994100">
        <ele>274.10</ele>
        <time>2012-04-22T09:10:48Z</time>
      </trkpt>
      <trkpt lat="41.646484000" lon="2.584077100">
        <ele>275.60</ele>
        <time>2012-04-22T09:10:57Z</time>
      </trkpt>
      <trkpt lat="41.646324000" lon="2.584137100">
        <ele>276.00</ele>
        <time>2012-04-22T09:11:04Z</time>
      </trkpt>
      <trkpt lat="41.646294000" lon="2.584160100">
        <ele>276.00</ele>
        <time>2012-04-22T09:11:04Z</time>
      </trkpt>
      <trkpt lat="41.646103000" lon="2.584286100">
        <ele>275.10</ele>
        <time>2012-04-22T09:11:09Z</time>
      </trkpt>
      <trkpt lat="41.645935000" lon="2.584343100">
        <ele>272.70</ele>
        <time>2012-04-22T09:11:14Z</time>
      </trkpt>
      <trkpt lat="41.645699000" lon="2.584435100">
        <ele>268.80</ele>
        <time>2012-04-22T09:11:19Z</time>
      </trkpt>
      <trkpt lat="41.645363000" lon="2.584637100">
        <ele>267.90</ele>
        <time>2012-04-22T09:11:26Z</time>
      </trkpt>
      <trkpt lat="41.645309000" lon="2.584670100">
        <ele>267.90</ele>
        <time>2012-04-22T09:11:28Z</time>
      </trkpt>
      <trkpt lat="41.645164000" lon="2.584775100">
        <ele>267.90</ele>
        <time>2012-04-22T09:11:30Z</time>
      </trkpt>
      <trkpt lat="41.645061000" lon="2.584820100">
        <ele>267.90</ele>
        <time>2012-04-22T09:11:33Z</time>
      </trkpt>
      <trkpt lat="41.644794000" lon="2.584965100">
        <ele>266.90</ele>
        <time>2012-04-22T09:11:39Z</time>
      </trkpt>
      <trkpt lat="41.644840000" lon="2.585140100">
        <ele>266.40</ele>
        <time>2012-04-22T09:11:42Z</time>
      </trkpt>
      <trkpt lat="41.644905000" lon="2.585253100">
        <ele>264.50</ele>
        <time>2012-04-22T09:11:44Z</time>
      </trkpt>
      <trkpt lat="41.644947000" lon="2.585354100">
        <ele>263.10</ele>
        <time>2012-04-22T09:11:47Z</time>
      </trkpt>
      <trkpt lat="41.644985000" lon="2.585536100">
        <ele>261.10</ele>
        <time>2012-04-22T09:11:49Z</time>
      </trkpt>
      <trkpt lat="41.644981000" lon="2.585747100">
        <ele>260.20</ele>
        <time>2012-04-22T09:11:53Z</time>
      </trkpt>
      <trkpt lat="41.644985000" lon="2.586117100">
        <ele>257.80</ele>
        <time>2012-04-22T09:11:58Z</time>
      </trkpt>
      <trkpt lat="41.645088000" lon="2.586311100">
        <ele>254.90</ele>
        <time>2012-04-22T09:12:01Z</time>
      </trkpt>
      <trkpt lat="41.645172000" lon="2.586386100">
        <ele>252.50</ele>
        <time>2012-04-22T09:12:05Z</time>
      </trkpt>
      <trkpt lat="41.645317000" lon="2.586585100">
        <ele>247.70</ele>
        <time>2012-04-22T09:12:10Z</time>
      </trkpt>
      <trkpt lat="41.645477000" lon="2.586765100">
        <ele>245.30</ele>
        <time>2012-04-22T09:12:13Z</time>
      </trkpt>
      <trkpt lat="41.645580000" lon="2.586878100">
        <ele>243.40</ele>
        <time>2012-04-22T09:12:17Z</time>
      </trkpt>
      <trkpt lat="41.645588000" lon="2.587074100">
        <ele>241.40</ele>
        <time>2012-04-22T09:12:22Z</time>
      </trkpt>
      <trkpt lat="41.645561000" lon="2.587097100">
        <ele>241.40</ele>
        <time>2012-04-22T09:12:24Z</time>
      </trkpt>
      <trkpt lat="41.645515000" lon="2.587116100">
        <ele>241.40</ele>
        <time>2012-04-22T09:12:26Z</time>
      </trkpt>
      <trkpt lat="41.645401000" lon="2.587133100">
        <ele>244.80</ele>
        <time>2012-04-22T09:12:31Z</time>
      </trkpt>
      <trkpt lat="41.645271000" lon="2.587132100">
        <ele>248.20</ele>
        <time>2012-04-22T09:12:38Z</time>
      </trkpt>
      <trkpt lat="41.645027000" lon="2.587086100">
        <ele>247.70</ele>
        <time>2012-04-22T09:12:48Z</time>
      </trkpt>
      <trkpt lat="41.644855000" lon="2.587083100">
        <ele>247.70</ele>
        <time>2012-04-22T09:12:55Z</time>
      </trkpt>
      <trkpt lat="41.644703000" lon="2.587047100">
        <ele>248.60</ele>
        <time>2012-04-22T09:13:02Z</time>
      </trkpt>
      <trkpt lat="41.644554000" lon="2.586974100">
        <ele>249.10</ele>
        <time>2012-04-22T09:13:09Z</time>
      </trkpt>
      <trkpt lat="41.644413000" lon="2.586906100">
        <ele>249.60</ele>
        <time>2012-04-22T09:13:16Z</time>
      </trkpt>
      <trkpt lat="41.644253000" lon="2.586825100">
        <ele>251.50</ele>
        <time>2012-04-22T09:13:25Z</time>
      </trkpt>
      <trkpt lat="41.644112000" lon="2.586859100">
        <ele>253.00</ele>
        <time>2012-04-22T09:13:32Z</time>
      </trkpt>
      <trkpt lat="41.643948000" lon="2.586936100">
        <ele>253.40</ele>
        <time>2012-04-22T09:13:39Z</time>
      </trkpt>
      <trkpt lat="41.643791000" lon="2.587006100">
        <ele>253.40</ele>
        <time>2012-04-22T09:13:46Z</time>
      </trkpt>
      <trkpt lat="41.643627000" lon="2.587072100">
        <ele>253.40</ele>
        <time>2012-04-22T09:13:51Z</time>
      </trkpt>
      <trkpt lat="41.643421000" lon="2.587210100">
        <ele>253.40</ele>
        <time>2012-04-22T09:13:58Z</time>
      </trkpt>
      <trkpt lat="41.643387000" lon="2.587244100">
        <ele>253.40</ele>
        <time>2012-04-22T09:14:00Z</time>
      </trkpt>
      <trkpt lat="41.643158000" lon="2.587538100">
        <ele>252.00</ele>
        <time>2012-04-22T09:14:07Z</time>
      </trkpt>
      <trkpt lat="41.643093000" lon="2.587602100">
        <ele>251.50</ele>
        <time>2012-04-22T09:14:10Z</time>
      </trkpt>
      <trkpt lat="41.642925000" lon="2.587662100">
        <ele>251.00</ele>
        <time>2012-04-22T09:14:14Z</time>
      </trkpt>
      <trkpt lat="41.642876000" lon="2.587711100">
        <ele>247.20</ele>
        <time>2012-04-22T09:14:19Z</time>
      </trkpt>
      <trkpt lat="41.642918000" lon="2.587750100">
        <ele>246.20</ele>
        <time>2012-04-22T09:14:22Z</time>
      </trkpt>
      <trkpt lat="41.643063000" lon="2.587826100">
        <ele>247.20</ele>
        <time>2012-04-22T09:14:33Z</time>
      </trkpt>
      <trkpt lat="41.643093000" lon="2.587846100">
        <ele>247.70</ele>
        <time>2012-04-22T09:14:35Z</time>
      </trkpt>
      <trkpt lat="41.643188000" lon="2.587884100">
        <ele>249.10</ele>
        <time>2012-04-22T09:14:41Z</time>
      </trkpt>
      <trkpt lat="41.643204000" lon="2.587892100">
        <ele>249.60</ele>
        <time>2012-04-22T09:14:43Z</time>
      </trkpt>
      <trkpt lat="41.643364000" lon="2.587970100">
        <ele>251.00</ele>
        <time>2012-04-22T09:14:52Z</time>
      </trkpt>
      <trkpt lat="41.643490000" lon="2.588100100">
        <ele>252.00</ele>
        <time>2012-04-22T09:15:01Z</time>
      </trkpt>
      <trkpt lat="41.643597000" lon="2.588270100">
        <ele>253.40</ele>
        <time>2012-04-22T09:15:09Z</time>
      </trkpt>
      <trkpt lat="41.643711000" lon="2.588453100">
        <ele>253.90</ele>
        <time>2012-04-22T09:15:16Z</time>
      </trkpt>
      <trkpt lat="41.643833000" lon="2.588667100">
        <ele>254.90</ele>
        <time>2012-04-22T09:15:27Z</time>
      </trkpt>
      <trkpt lat="41.644005000" lon="2.588792100">
        <ele>255.90</ele>
        <time>2012-04-22T09:15:35Z</time>
      </trkpt>
      <trkpt lat="41.644188000" lon="2.588912100">
        <ele>256.30</ele>
        <time>2012-04-22T09:15:44Z</time>
      </trkpt>
      <trkpt lat="41.644329000" lon="2.588994100">
        <ele>257.30</ele>
        <time>2012-04-22T09:15:53Z</time>
      </trkpt>
      <trkpt lat="41.644501000" lon="2.589044100">
        <ele>258.20</ele>
        <time>2012-04-22T09:16:00Z</time>
      </trkpt>
      <trkpt lat="41.644703000" lon="2.589097100">
        <ele>259.20</ele>
        <time>2012-04-22T09:16:10Z</time>
      </trkpt>
      <trkpt lat="41.644886000" lon="2.589189100">
        <ele>260.20</ele>
        <time>2012-04-22T09:16:19Z</time>
      </trkpt>
      <trkpt lat="41.645046000" lon="2.589322100">
        <ele>261.60</ele>
        <time>2012-04-22T09:16:28Z</time>
      </trkpt>
      <trkpt lat="41.645199000" lon="2.589420100">
        <ele>262.60</ele>
        <time>2012-04-22T09:16:36Z</time>
      </trkpt>
      <trkpt lat="41.645355000" lon="2.589529100">
        <ele>263.50</ele>
        <time>2012-04-22T09:16:45Z</time>
      </trkpt>
      <trkpt lat="41.645493000" lon="2.589626100">
        <ele>264.00</ele>
        <time>2012-04-22T09:16:50Z</time>
      </trkpt>
      <trkpt lat="41.645466000" lon="2.589760100">
        <ele>264.00</ele>
        <time>2012-04-22T09:16:56Z</time>
      </trkpt>
      <trkpt lat="41.645443000" lon="2.589770100">
        <ele>264.00</ele>
        <time>2012-04-22T09:16:57Z</time>
      </trkpt>
      <trkpt lat="41.645252000" lon="2.589744100">
        <ele>264.00</ele>
        <time>2012-04-22T09:17:04Z</time>
      </trkpt>
      <trkpt lat="41.645039000" lon="2.589718100">
        <ele>264.50</ele>
        <time>2012-04-22T09:17:13Z</time>
      </trkpt>
      <trkpt lat="41.644848000" lon="2.589665100">
        <ele>265.00</ele>
        <time>2012-04-22T09:17:22Z</time>
      </trkpt>
      <trkpt lat="41.644634000" lon="2.589623100">
        <ele>265.00</ele>
        <time>2012-04-22T09:17:29Z</time>
      </trkpt>
      <trkpt lat="41.644344000" lon="2.589583100">
        <ele>265.00</ele>
        <time>2012-04-22T09:17:36Z</time>
      </trkpt>
      <trkpt lat="41.644184000" lon="2.589567100">
        <ele>265.00</ele>
        <time>2012-04-22T09:17:43Z</time>
      </trkpt>
      <trkpt lat="41.644165000" lon="2.589698100">
        <ele>265.00</ele>
        <time>2012-04-22T09:17:48Z</time>
      </trkpt>
      <trkpt lat="41.644249000" lon="2.589792100">
        <ele>266.40</ele>
        <time>2012-04-22T09:17:55Z</time>
      </trkpt>
      <trkpt lat="41.644390000" lon="2.589811100">
        <ele>268.40</ele>
        <time>2012-04-22T09:18:04Z</time>
      </trkpt>
      <trkpt lat="41.644524000" lon="2.589855100">
        <ele>269.80</ele>
        <time>2012-04-22T09:18:12Z</time>
      </trkpt>
      <trkpt lat="41.644669000" lon="2.589902100">
        <ele>271.20</ele>
        <time>2012-04-22T09:18:21Z</time>
      </trkpt>
      <trkpt lat="41.644798000" lon="2.589970100">
        <ele>273.10</ele>
        <time>2012-04-22T09:18:30Z</time>
      </trkpt>
      <trkpt lat="41.644966000" lon="2.590044100">
        <ele>276.00</ele>
        <time>2012-04-22T09:18:40Z</time>
      </trkpt>
      <trkpt lat="41.645054000" lon="2.590094100">
        <ele>279.40</ele>
        <time>2012-04-22T09:18:47Z</time>
      </trkpt>
      <trkpt lat="41.645069000" lon="2.590101100">
        <ele>279.40</ele>
        <time>2012-04-22T09:18:47Z</time>
      </trkpt>
      <trkpt lat="41.645176000" lon="2.590218100">
        <ele>280.80</ele>
        <time>2012-04-22T09:18:58Z</time>
      </trkpt>
      <trkpt lat="41.645180000" lon="2.590235100">
        <ele>280.80</ele>
        <time>2012-04-22T09:18:59Z</time>
      </trkpt>
      <trkpt lat="41.645138000" lon="2.590278100">
        <ele>281.30</ele>
        <time>2012-04-22T09:19:03Z</time>
      </trkpt>
      <trkpt lat="41.644997000" lon="2.590302100">
        <ele>282.30</ele>
        <time>2012-04-22T09:19:12Z</time>
      </trkpt>
      <trkpt lat="41.644859000" lon="2.590352100">
        <ele>283.70</ele>
        <time>2012-04-22T09:19:22Z</time>
      </trkpt>
      <trkpt lat="41.644753000" lon="2.590429100">
        <ele>285.20</ele>
        <time>2012-04-22T09:19:29Z</time>
      </trkpt>
      <trkpt lat="41.644714000" lon="2.590460100">
        <ele>285.60</ele>
        <time>2012-04-22T09:19:32Z</time>
      </trkpt>
      <trkpt lat="41.644596000" lon="2.590601100">
        <ele>286.60</ele>
        <time>2012-04-22T09:19:43Z</time>
      </trkpt>
      <trkpt lat="41.644485000" lon="2.590758100">
        <ele>288.50</ele>
        <time>2012-04-22T09:19:53Z</time>
      </trkpt>
      <trkpt lat="41.644371000" lon="2.590939100">
        <ele>290.00</ele>
        <time>2012-04-22T09:20:04Z</time>
      </trkpt>
      <trkpt lat="41.644295000" lon="2.591091100">
        <ele>292.40</ele>
        <time>2012-04-22T09:20:12Z</time>
      </trkpt>
      <trkpt lat="41.644283000" lon="2.591227100">
        <ele>293.30</ele>
        <time>2012-04-22T09:20:21Z</time>
      </trkpt>
      <trkpt lat="41.644310000" lon="2.591402100">
        <ele>295.30</ele>
        <time>2012-04-22T09:20:30Z</time>
      </trkpt>
      <trkpt lat="41.644363000" lon="2.591565100">
        <ele>297.20</ele>
        <time>2012-04-22T09:20:39Z</time>
      </trkpt>
      <trkpt lat="41.644428000" lon="2.591733100">
        <ele>298.60</ele>
        <time>2012-04-22T09:20:47Z</time>
      </trkpt>
      <trkpt lat="41.644516000" lon="2.591896100">
        <ele>300.10</ele>
        <time>2012-04-22T09:20:58Z</time>
      </trkpt>
      <trkpt lat="41.644608000" lon="2.592044100">
        <ele>302.00</ele>
        <time>2012-04-22T09:21:08Z</time>
      </trkpt>
      <trkpt lat="41.644707000" lon="2.592156100">
        <ele>304.40</ele>
        <time>2012-04-22T09:21:17Z</time>
      </trkpt>
      <trkpt lat="41.644840000" lon="2.592248100">
        <ele>306.80</ele>
        <time>2012-04-22T09:21:27Z</time>
      </trkpt>
      <trkpt lat="41.644909000" lon="2.592285100">
        <ele>310.60</ele>
        <time>2012-04-22T09:21:33Z</time>
      </trkpt>
      <trkpt lat="41.645027000" lon="2.592341100">
        <ele>311.60</ele>
        <time>2012-04-22T09:21:41Z</time>
      </trkpt>
      <trkpt lat="41.645134000" lon="2.592394100">
        <ele>311.60</ele>
        <time>2012-04-22T09:21:50Z</time>
      </trkpt>
      <trkpt lat="41.645145000" lon="2.592397100">
        <ele>311.60</ele>
        <time>2012-04-22T09:21:50Z</time>
      </trkpt>
      <trkpt lat="41.645237000" lon="2.592428100">
        <ele>313.00</ele>
        <time>2012-04-22T09:21:59Z</time>
      </trkpt>
      <trkpt lat="41.645275000" lon="2.592442100">
        <ele>314.00</ele>
        <time>2012-04-22T09:22:02Z</time>
      </trkpt>
      <trkpt lat="41.645397000" lon="2.592482100">
        <ele>315.90</ele>
        <time>2012-04-22T09:22:11Z</time>
      </trkpt>
      <trkpt lat="41.645451000" lon="2.592484100">
        <ele>316.90</ele>
        <time>2012-04-22T09:22:16Z</time>
      </trkpt>
      <trkpt lat="41.645603000" lon="2.592509100">
        <ele>318.80</ele>
        <time>2012-04-22T09:22:27Z</time>
      </trkpt>
      <trkpt lat="41.645744000" lon="2.592525100">
        <ele>320.30</ele>
        <time>2012-04-22T09:22:37Z</time>
      </trkpt>
      <trkpt lat="41.645859000" lon="2.592557100">
        <ele>322.20</ele>
        <time>2012-04-22T09:22:46Z</time>
      </trkpt>
      <trkpt lat="41.645916000" lon="2.592583100">
        <ele>323.10</ele>
        <time>2012-04-22T09:22:51Z</time>
      </trkpt>
      <trkpt lat="41.646046000" lon="2.592661100">
        <ele>324.60</ele>
        <time>2012-04-22T09:23:00Z</time>
      </trkpt>
      <trkpt lat="41.646091000" lon="2.592692100">
        <ele>325.50</ele>
        <time>2012-04-22T09:23:05Z</time>
      </trkpt>
      <trkpt lat="41.646194000" lon="2.592777100">
        <ele>326.50</ele>
        <time>2012-04-22T09:23:14Z</time>
      </trkpt>
      <trkpt lat="41.646240000" lon="2.592819100">
        <ele>327.00</ele>
        <time>2012-04-22T09:23:17Z</time>
      </trkpt>
      <trkpt lat="41.646255000" lon="2.592850100">
        <ele>328.00</ele>
        <time>2012-04-22T09:23:19Z</time>
      </trkpt>
      <trkpt lat="41.646290000" lon="2.592940100">
        <ele>328.40</ele>
        <time>2012-04-22T09:23:24Z</time>
      </trkpt>
      <trkpt lat="41.646301000" lon="2.593135100">
        <ele>330.40</ele>
        <time>2012-04-22T09:23:35Z</time>
      </trkpt>
      <trkpt lat="41.646294000" lon="2.593258100">
        <ele>331.30</ele>
        <time>2012-04-22T09:23:40Z</time>
      </trkpt>
      <trkpt lat="41.646267000" lon="2.593429100">
        <ele>332.80</ele>
        <time>2012-04-22T09:23:50Z</time>
      </trkpt>
      <trkpt lat="41.646259000" lon="2.593446100">
        <ele>332.80</ele>
        <time>2012-04-22T09:23:50Z</time>
      </trkpt>
      <trkpt lat="41.646187000" lon="2.593597100">
        <ele>334.70</ele>
        <time>2012-04-22T09:23:59Z</time>
      </trkpt>
      <trkpt lat="41.646164000" lon="2.593629100">
        <ele>334.70</ele>
        <time>2012-04-22T09:24:01Z</time>
      </trkpt>
      <trkpt lat="41.646065000" lon="2.593764100">
        <ele>335.60</ele>
        <time>2012-04-22T09:24:11Z</time>
      </trkpt>
      <trkpt lat="41.645939000" lon="2.593919100">
        <ele>336.60</ele>
        <time>2012-04-22T09:24:20Z</time>
      </trkpt>
      <trkpt lat="41.645847000" lon="2.594018100">
        <ele>337.10</ele>
        <time>2012-04-22T09:24:25Z</time>
      </trkpt>
      <trkpt lat="41.645714000" lon="2.594190100">
        <ele>337.60</ele>
        <time>2012-04-22T09:24:34Z</time>
      </trkpt>
      <trkpt lat="41.645611000" lon="2.594355100">
        <ele>337.60</ele>
        <time>2012-04-22T09:24:42Z</time>
      </trkpt>
      <trkpt lat="41.645603000" lon="2.594432100">
        <ele>338.00</ele>
        <time>2012-04-22T09:24:46Z</time>
      </trkpt>
      <trkpt lat="41.645653000" lon="2.594516100">
        <ele>338.00</ele>
        <time>2012-04-22T09:24:51Z</time>
      </trkpt>
      <trkpt lat="41.645817000" lon="2.594576100">
        <ele>339.00</ele>
        <time>2012-04-22T09:25:02Z</time>
      </trkpt>
      <trkpt lat="41.645935000" lon="2.594598100">
        <ele>340.40</ele>
        <time>2012-04-22T09:25:09Z</time>
      </trkpt>
      <trkpt lat="41.646019000" lon="2.594646100">
        <ele>340.90</ele>
        <time>2012-04-22T09:25:14Z</time>
      </trkpt>
      <trkpt lat="41.646118000" lon="2.594663100">
        <ele>340.90</ele>
        <time>2012-04-22T09:25:19Z</time>
      </trkpt>
      <trkpt lat="41.646339000" lon="2.594697100">
        <ele>341.40</ele>
        <time>2012-04-22T09:25:26Z</time>
      </trkpt>
      <trkpt lat="41.646667000" lon="2.594800100">
        <ele>341.40</ele>
        <time>2012-04-22T09:25:35Z</time>
      </trkpt>
      <trkpt lat="41.646885000" lon="2.594975100">
        <ele>341.40</ele>
        <time>2012-04-22T09:25:42Z</time>
      </trkpt>
      <trkpt lat="41.647083000" lon="2.595054100">
        <ele>341.40</ele>
        <time>2012-04-22T09:25:47Z</time>
      </trkpt>
      <trkpt lat="41.647198000" lon="2.595061100">
        <ele>341.40</ele>
        <time>2012-04-22T09:25:50Z</time>
      </trkpt>
      <trkpt lat="41.647293000" lon="2.595074100">
        <ele>340.40</ele>
        <time>2012-04-22T09:25:52Z</time>
      </trkpt>
      <trkpt lat="41.647484000" lon="2.595240100">
        <ele>340.00</ele>
        <time>2012-04-22T09:25:57Z</time>
      </trkpt>
      <trkpt lat="41.647610000" lon="2.595587100">
        <ele>338.00</ele>
        <time>2012-04-22T09:26:04Z</time>
      </trkpt>
      <trkpt lat="41.647743000" lon="2.595813100">
        <ele>333.70</ele>
        <time>2012-04-22T09:26:08Z</time>
      </trkpt>
      <trkpt lat="41.647869000" lon="2.595913100">
        <ele>331.30</ele>
        <time>2012-04-22T09:26:10Z</time>
      </trkpt>
      <trkpt lat="41.648132000" lon="2.596066100">
        <ele>326.00</ele>
        <time>2012-04-22T09:26:13Z</time>
      </trkpt>
      <trkpt lat="41.648502000" lon="2.596216100">
        <ele>323.60</ele>
        <time>2012-04-22T09:26:20Z</time>
      </trkpt>
      <trkpt lat="41.648743000" lon="2.596441100">
        <ele>323.60</ele>
        <time>2012-04-22T09:26:25Z</time>
      </trkpt>
      <trkpt lat="41.648876000" lon="2.596720100">
        <ele>322.70</ele>
        <time>2012-04-22T09:26:29Z</time>
      </trkpt>
      <trkpt lat="41.649025000" lon="2.596760100">
        <ele>322.20</ele>
        <time>2012-04-22T09:26:32Z</time>
      </trkpt>
      <trkpt lat="41.649132000" lon="2.596757100">
        <ele>321.70</ele>
        <time>2012-04-22T09:26:34Z</time>
      </trkpt>
      <trkpt lat="41.649296000" lon="2.596863100">
        <ele>317.90</ele>
        <time>2012-04-22T09:26:39Z</time>
      </trkpt>
      <trkpt lat="41.649288000" lon="2.596992100">
        <ele>315.50</ele>
        <time>2012-04-22T09:26:41Z</time>
      </trkpt>
      <trkpt lat="41.649220000" lon="2.597246100">
        <ele>318.30</ele>
        <time>2012-04-22T09:26:50Z</time>
      </trkpt>
      <trkpt lat="41.649242000" lon="2.597450100">
        <ele>320.30</ele>
        <time>2012-04-22T09:26:58Z</time>
      </trkpt>
      <trkpt lat="41.649399000" lon="2.597572100">
        <ele>320.30</ele>
        <time>2012-04-22T09:27:05Z</time>
      </trkpt>
      <trkpt lat="41.649647000" lon="2.597525100">
        <ele>318.80</ele>
        <time>2012-04-22T09:27:12Z</time>
      </trkpt>
      <trkpt lat="41.649948000" lon="2.597512100">
        <ele>318.30</ele>
        <time>2012-04-22T09:27:19Z</time>
      </trkpt>
      <trkpt lat="41.650078000" lon="2.597617100">
        <ele>317.90</ele>
        <time>2012-04-22T09:27:24Z</time>
      </trkpt>
      <trkpt lat="41.650085000" lon="2.597779100">
        <ele>317.40</ele>
        <time>2012-04-22T09:27:30Z</time>
      </trkpt>
      <trkpt lat="41.649986000" lon="2.597888100">
        <ele>317.40</ele>
        <time>2012-04-22T09:27:35Z</time>
      </trkpt>
      <trkpt lat="41.649803000" lon="2.598100100">
        <ele>317.40</ele>
        <time>2012-04-22T09:27:42Z</time>
      </trkpt>
      <trkpt lat="41.649696000" lon="2.598313100">
        <ele>317.40</ele>
        <time>2012-04-22T09:27:49Z</time>
      </trkpt>
      <trkpt lat="41.649551000" lon="2.598733100">
        <ele>317.40</ele>
        <time>2012-04-22T09:28:03Z</time>
      </trkpt>
      <trkpt lat="41.649471000" lon="2.598908100">
        <ele>318.80</ele>
        <time>2012-04-22T09:28:10Z</time>
      </trkpt>
      <trkpt lat="41.649349000" lon="2.599049100">
        <ele>319.30</ele>
        <time>2012-04-22T09:28:17Z</time>
      </trkpt>
      <trkpt lat="41.649155000" lon="2.599105100">
        <ele>319.80</ele>
        <time>2012-04-22T09:28:24Z</time>
      </trkpt>
      <trkpt lat="41.648998000" lon="2.599123100">
        <ele>319.80</ele>
        <time>2012-04-22T09:28:27Z</time>
      </trkpt>
      <trkpt lat="41.648754000" lon="2.599170100">
        <ele>318.30</ele>
        <time>2012-04-22T09:28:31Z</time>
      </trkpt>
      <trkpt lat="41.648464000" lon="2.599224100">
        <ele>314.00</ele>
        <time>2012-04-22T09:28:34Z</time>
      </trkpt>
      <trkpt lat="41.648399000" lon="2.599235100">
        <ele>312.60</ele>
        <time>2012-04-22T09:28:36Z</time>
      </trkpt>
      <trkpt lat="41.648205000" lon="2.599380100">
        <ele>307.80</ele>
        <time>2012-04-22T09:28:39Z</time>
      </trkpt>
      <trkpt lat="41.648190000" lon="2.599450100">
        <ele>307.80</ele>
        <time>2012-04-22T09:28:41Z</time>
      </trkpt>
      <trkpt lat="41.648254000" lon="2.599705100">
        <ele>306.30</ele>
        <time>2012-04-22T09:28:45Z</time>
      </trkpt>
      <trkpt lat="41.648396000" lon="2.599927100">
        <ele>306.30</ele>
        <time>2012-04-22T09:28:48Z</time>
      </trkpt>
      <trkpt lat="41.648392000" lon="2.600190100">
        <ele>306.30</ele>
        <time>2012-04-22T09:28:53Z</time>
      </trkpt>
      <trkpt lat="41.648277000" lon="2.600655100">
        <ele>306.30</ele>
        <time>2012-04-22T09:29:02Z</time>
      </trkpt>
      <trkpt lat="41.648258000" lon="2.600762100">
        <ele>306.30</ele>
        <time>2012-04-22T09:29:04Z</time>
      </trkpt>
      <trkpt lat="41.648129000" lon="2.600907100">
        <ele>306.30</ele>
        <time>2012-04-22T09:29:09Z</time>
      </trkpt>
      <trkpt lat="41.648106000" lon="2.600889100">
        <ele>306.30</ele>
        <time>2012-04-22T09:29:09Z</time>
      </trkpt>
      <trkpt lat="41.647980000" lon="2.600703100">
        <ele>307.80</ele>
        <time>2012-04-22T09:29:16Z</time>
      </trkpt>
      <trkpt lat="41.647972000" lon="2.600669100">
        <ele>307.80</ele>
        <time>2012-04-22T09:29:18Z</time>
      </trkpt>
      <trkpt lat="41.647797000" lon="2.600370100">
        <ele>309.70</ele>
        <time>2012-04-22T09:29:28Z</time>
      </trkpt>
      <trkpt lat="41.647690000" lon="2.600199100">
        <ele>311.10</ele>
        <time>2012-04-22T09:29:35Z</time>
      </trkpt>
      <trkpt lat="41.647549000" lon="2.600111100">
        <ele>313.00</ele>
        <time>2012-04-22T09:29:44Z</time>
      </trkpt>
      <trkpt lat="41.647320000" lon="2.600133100">
        <ele>314.00</ele>
        <time>2012-04-22T09:29:53Z</time>
      </trkpt>
      <trkpt lat="41.647106000" lon="2.600107100">
        <ele>315.00</ele>
        <time>2012-04-22T09:30:01Z</time>
      </trkpt>
      <trkpt lat="41.646965000" lon="2.600126100">
        <ele>315.90</ele>
        <time>2012-04-22T09:30:08Z</time>
      </trkpt>
      <trkpt lat="41.646778000" lon="2.600242100">
        <ele>316.90</ele>
        <time>2012-04-22T09:30:15Z</time>
      </trkpt>
      <trkpt lat="41.646606000" lon="2.600376100">
        <ele>317.40</ele>
        <time>2012-04-22T09:30:24Z</time>
      </trkpt>
      <trkpt lat="41.646431000" lon="2.600577100">
        <ele>318.30</ele>
        <time>2012-04-22T09:30:34Z</time>
      </trkpt>
      <trkpt lat="41.646294000" lon="2.600711100">
        <ele>319.30</ele>
        <time>2012-04-22T09:30:41Z</time>
      </trkpt>
      <trkpt lat="41.646130000" lon="2.600818100">
        <ele>320.30</ele>
        <time>2012-04-22T09:30:48Z</time>
      </trkpt>
      <trkpt lat="41.645939000" lon="2.600982100">
        <ele>321.20</ele>
        <time>2012-04-22T09:30:57Z</time>
      </trkpt>
      <trkpt lat="41.645760000" lon="2.601197100">
        <ele>321.20</ele>
        <time>2012-04-22T09:31:04Z</time>
      </trkpt>
      <trkpt lat="41.645657000" lon="2.601410100">
        <ele>321.20</ele>
        <time>2012-04-22T09:31:07Z</time>
      </trkpt>
      <trkpt lat="41.645470000" lon="2.601481100">
        <ele>321.20</ele>
        <time>2012-04-22T09:31:13Z</time>
      </trkpt>
      <trkpt lat="41.645348000" lon="2.601548100">
        <ele>321.20</ele>
        <time>2012-04-22T09:31:18Z</time>
      </trkpt>
      <trkpt lat="41.645332000" lon="2.601708100">
        <ele>321.20</ele>
        <time>2012-04-22T09:31:23Z</time>
      </trkpt>
      <trkpt lat="41.645386000" lon="2.601979100">
        <ele>322.70</ele>
        <time>2012-04-22T09:31:32Z</time>
      </trkpt>
      <trkpt lat="41.645416000" lon="2.602160100">
        <ele>323.60</ele>
        <time>2012-04-22T09:31:37Z</time>
      </trkpt>
      <trkpt lat="41.645390000" lon="2.602434100">
        <ele>324.60</ele>
        <time>2012-04-22T09:31:44Z</time>
      </trkpt>
      <trkpt lat="41.645321000" lon="2.602658100">
        <ele>324.60</ele>
        <time>2012-04-22T09:31:51Z</time>
      </trkpt>
      <trkpt lat="41.645172000" lon="2.602624100">
        <ele>324.60</ele>
        <time>2012-04-22T09:31:56Z</time>
      </trkpt>
      <trkpt lat="41.644947000" lon="2.602389100">
        <ele>325.10</ele>
        <time>2012-04-22T09:32:03Z</time>
      </trkpt>
      <trkpt lat="41.644730000" lon="2.602160100">
        <ele>325.10</ele>
        <time>2012-04-22T09:32:08Z</time>
      </trkpt>
      <trkpt lat="41.644558000" lon="2.601930100">
        <ele>321.70</ele>
        <time>2012-04-22T09:32:12Z</time>
      </trkpt>
      <trkpt lat="41.644478000" lon="2.601811100">
        <ele>319.30</ele>
        <time>2012-04-22T09:32:14Z</time>
      </trkpt>
      <trkpt lat="41.644268000" lon="2.601706100">
        <ele>314.00</ele>
        <time>2012-04-22T09:32:19Z</time>
      </trkpt>
      <trkpt lat="41.644154000" lon="2.601755100">
        <ele>311.60</ele>
        <time>2012-04-22T09:32:21Z</time>
      </trkpt>
      <trkpt lat="41.644062000" lon="2.601850100">
        <ele>310.60</ele>
        <time>2012-04-22T09:32:22Z</time>
      </trkpt>
      <trkpt lat="41.643894000" lon="2.601877100">
        <ele>311.10</ele>
        <time>2012-04-22T09:32:26Z</time>
      </trkpt>
      <trkpt lat="41.643871000" lon="2.601838100">
        <ele>311.10</ele>
        <time>2012-04-22T09:32:28Z</time>
      </trkpt>
      <trkpt lat="41.643803000" lon="2.601687100">
        <ele>312.10</ele>
        <time>2012-04-22T09:32:31Z</time>
      </trkpt>
      <trkpt lat="41.643623000" lon="2.601464100">
        <ele>313.50</ele>
        <time>2012-04-22T09:32:40Z</time>
      </trkpt>
      <trkpt lat="41.643433000" lon="2.601420100">
        <ele>314.50</ele>
        <time>2012-04-22T09:32:47Z</time>
      </trkpt>
      <trkpt lat="41.643150000" lon="2.601486100">
        <ele>315.50</ele>
        <time>2012-04-22T09:32:55Z</time>
      </trkpt>
      <trkpt lat="41.642910000" lon="2.601648100">
        <ele>315.50</ele>
        <time>2012-04-22T09:33:04Z</time>
      </trkpt>
      <trkpt lat="41.642696000" lon="2.601842100">
        <ele>315.50</ele>
        <time>2012-04-22T09:33:11Z</time>
      </trkpt>
      <trkpt lat="41.642540000" lon="2.601844100">
        <ele>315.50</ele>
        <time>2012-04-22T09:33:15Z</time>
      </trkpt>
      <trkpt lat="41.642227000" lon="2.601812100">
        <ele>315.90</ele>
        <time>2012-04-22T09:33:23Z</time>
      </trkpt>
      <trkpt lat="41.641994000" lon="2.601894100">
        <ele>316.40</ele>
        <time>2012-04-22T09:33:32Z</time>
      </trkpt>
      <trkpt lat="41.641830000" lon="2.602078100">
        <ele>317.40</ele>
        <time>2012-04-22T09:33:39Z</time>
      </trkpt>
      <trkpt lat="41.641609000" lon="2.602200100">
        <ele>318.30</ele>
        <time>2012-04-22T09:33:46Z</time>
      </trkpt>
      <trkpt lat="41.641319000" lon="2.602174100">
        <ele>319.30</ele>
        <time>2012-04-22T09:33:55Z</time>
      </trkpt>
      <trkpt lat="41.641075000" lon="2.602334100">
        <ele>319.30</ele>
        <time>2012-04-22T09:34:02Z</time>
      </trkpt>
      <trkpt lat="41.640789000" lon="2.602547100">
        <ele>319.30</ele>
        <time>2012-04-22T09:34:09Z</time>
      </trkpt>
      <trkpt lat="41.640739000" lon="2.602590100">
        <ele>319.30</ele>
        <time>2012-04-22T09:34:10Z</time>
      </trkpt>
      <trkpt lat="41.640549000" lon="2.602870100">
        <ele>315.50</ele>
        <time>2012-04-22T09:34:14Z</time>
      </trkpt>
      <trkpt lat="41.640297000" lon="2.603133100">
        <ele>310.60</ele>
        <time>2012-04-22T09:34:17Z</time>
      </trkpt>
      <trkpt lat="41.639996000" lon="2.603370100">
        <ele>308.70</ele>
        <time>2012-04-22T09:34:23Z</time>
      </trkpt>
      <trkpt lat="41.639965000" lon="2.603559100">
        <ele>308.70</ele>
        <time>2012-04-22T09:34:26Z</time>
      </trkpt>
      <trkpt lat="41.640022000" lon="2.603707100">
        <ele>310.20</ele>
        <time>2012-04-22T09:34:31Z</time>
      </trkpt>
      <trkpt lat="41.640110000" lon="2.603934100">
        <ele>312.10</ele>
        <time>2012-04-22T09:34:38Z</time>
      </trkpt>
      <trkpt lat="41.640175000" lon="2.604145100">
        <ele>313.50</ele>
        <time>2012-04-22T09:34:47Z</time>
      </trkpt>
      <trkpt lat="41.640224000" lon="2.604326100">
        <ele>315.00</ele>
        <time>2012-04-22T09:34:54Z</time>
      </trkpt>
      <trkpt lat="41.640263000" lon="2.604453100">
        <ele>318.30</ele>
        <time>2012-04-22T09:34:59Z</time>
      </trkpt>
      <trkpt lat="41.640301000" lon="2.604541100">
        <ele>321.20</ele>
        <time>2012-04-22T09:35:03Z</time>
      </trkpt>
      <trkpt lat="41.640396000" lon="2.604687100">
        <ele>322.70</ele>
        <time>2012-04-22T09:35:11Z</time>
      </trkpt>
      <trkpt lat="41.640491000" lon="2.604832100">
        <ele>323.10</ele>
        <time>2012-04-22T09:35:20Z</time>
      </trkpt>
      <trkpt lat="41.640568000" lon="2.604987100">
        <ele>324.60</ele>
        <time>2012-04-22T09:35:27Z</time>
      </trkpt>
      <trkpt lat="41.640617000" lon="2.605151100">
        <ele>325.50</ele>
        <time>2012-04-22T09:35:36Z</time>
      </trkpt>
      <trkpt lat="41.640644000" lon="2.605356100">
        <ele>327.50</ele>
        <time>2012-04-22T09:35:46Z</time>
      </trkpt>
      <trkpt lat="41.640713000" lon="2.605527100">
        <ele>329.40</ele>
        <time>2012-04-22T09:35:55Z</time>
      </trkpt>
      <trkpt lat="41.640816000" lon="2.605587100">
        <ele>331.30</ele>
        <time>2012-04-22T09:36:04Z</time>
      </trkpt>
      <trkpt lat="41.640984000" lon="2.605612100">
        <ele>332.80</ele>
        <time>2012-04-22T09:36:14Z</time>
      </trkpt>
      <trkpt lat="41.641113000" lon="2.605638100">
        <ele>334.20</ele>
        <time>2012-04-22T09:36:23Z</time>
      </trkpt>
      <trkpt lat="41.641167000" lon="2.605678100">
        <ele>335.20</ele>
        <time>2012-04-22T09:36:26Z</time>
      </trkpt>
      <trkpt lat="41.641186000" lon="2.605814100">
        <ele>336.10</ele>
        <time>2012-04-22T09:36:33Z</time>
      </trkpt>
      <trkpt lat="41.641155000" lon="2.606036100">
        <ele>338.00</ele>
        <time>2012-04-22T09:36:45Z</time>
      </trkpt>
      <trkpt lat="41.641197000" lon="2.606170100">
        <ele>339.50</ele>
        <time>2012-04-22T09:36:52Z</time>
      </trkpt>
      <trkpt lat="41.641277000" lon="2.606277100">
        <ele>341.40</ele>
        <time>2012-04-22T09:36:59Z</time>
      </trkpt>
      <trkpt lat="41.641369000" lon="2.606384100">
        <ele>342.90</ele>
        <time>2012-04-22T09:37:08Z</time>
      </trkpt>
      <trkpt lat="41.641464000" lon="2.606455100">
        <ele>344.80</ele>
        <time>2012-04-22T09:37:15Z</time>
      </trkpt>
      <trkpt lat="41.641556000" lon="2.606514100">
        <ele>346.20</ele>
        <time>2012-04-22T09:37:24Z</time>
      </trkpt>
      <trkpt lat="41.641640000" lon="2.606634100">
        <ele>347.60</ele>
        <time>2012-04-22T09:37:32Z</time>
      </trkpt>
      <trkpt lat="41.641747000" lon="2.606786100">
        <ele>347.60</ele>
        <time>2012-04-22T09:37:38Z</time>
      </trkpt>
      <trkpt lat="41.641891000" lon="2.607076100">
        <ele>347.60</ele>
        <time>2012-04-22T09:37:45Z</time>
      </trkpt>
      <trkpt lat="41.641869000" lon="2.607394100">
        <ele>346.20</ele>
        <time>2012-04-22T09:37:50Z</time>
      </trkpt>
      <trkpt lat="41.641769000" lon="2.607591100">
        <ele>344.80</ele>
        <time>2012-04-22T09:37:53Z</time>
      </trkpt>
      <trkpt lat="41.641758000" lon="2.607942100">
        <ele>339.50</ele>
        <time>2012-04-22T09:37:59Z</time>
      </trkpt>
      <trkpt lat="41.641811000" lon="2.608035100">
        <ele>339.50</ele>
        <time>2012-04-22T09:38:00Z</time>
      </trkpt>
      <trkpt lat="41.641972000" lon="2.608211100">
        <ele>339.00</ele>
        <time>2012-04-22T09:38:04Z</time>
      </trkpt>
      <trkpt lat="41.642246000" lon="2.608399100">
        <ele>339.00</ele>
        <time>2012-04-22T09:38:09Z</time>
      </trkpt>
      <trkpt lat="41.642399000" lon="2.608610100">
        <ele>339.00</ele>
        <time>2012-04-22T09:38:14Z</time>
      </trkpt>
      <trkpt lat="41.642410000" lon="2.608674100">
        <ele>339.00</ele>
        <time>2012-04-22T09:38:14Z</time>
      </trkpt>
      <trkpt lat="41.642479000" lon="2.608937100">
        <ele>338.50</ele>
        <time>2012-04-22T09:38:19Z</time>
      </trkpt>
      <trkpt lat="41.642666000" lon="2.609105100">
        <ele>338.00</ele>
        <time>2012-04-22T09:38:25Z</time>
      </trkpt>
      <trkpt lat="41.642754000" lon="2.609288100">
        <ele>337.60</ele>
        <time>2012-04-22T09:38:28Z</time>
      </trkpt>
      <trkpt lat="41.642731000" lon="2.609447100">
        <ele>337.60</ele>
        <time>2012-04-22T09:38:32Z</time>
      </trkpt>
      <trkpt lat="41.642727000" lon="2.609648100">
        <ele>337.10</ele>
        <time>2012-04-22T09:38:35Z</time>
      </trkpt>
      <trkpt lat="41.642818000" lon="2.610005100">
        <ele>335.60</ele>
        <time>2012-04-22T09:38:40Z</time>
      </trkpt>
      <trkpt lat="41.642918000" lon="2.610346100">
        <ele>335.20</ele>
        <time>2012-04-22T09:38:47Z</time>
      </trkpt>
      <trkpt lat="41.642929000" lon="2.610682100">
        <ele>335.60</ele>
        <time>2012-04-22T09:38:54Z</time>
      </trkpt>
      <trkpt lat="41.642914000" lon="2.611009100">
        <ele>336.60</ele>
        <time>2012-04-22T09:39:01Z</time>
      </trkpt>
      <trkpt lat="41.642914000" lon="2.611064100">
        <ele>336.60</ele>
        <time>2012-04-22T09:39:03Z</time>
      </trkpt>
      <trkpt lat="41.642967000" lon="2.611264100">
        <ele>336.60</ele>
        <time>2012-04-22T09:39:06Z</time>
      </trkpt>
      <trkpt lat="41.643150000" lon="2.611439100">
        <ele>337.60</ele>
        <time>2012-04-22T09:39:13Z</time>
      </trkpt>
      <trkpt lat="41.643299000" lon="2.611449100">
        <ele>338.50</ele>
        <time>2012-04-22T09:39:19Z</time>
      </trkpt>
      <trkpt lat="41.643482000" lon="2.611403100">
        <ele>341.90</ele>
        <time>2012-04-22T09:39:26Z</time>
      </trkpt>
      <trkpt lat="41.643692000" lon="2.611397100">
        <ele>344.30</ele>
        <time>2012-04-22T09:39:34Z</time>
      </trkpt>
      <trkpt lat="41.643871000" lon="2.611407100">
        <ele>344.30</ele>
        <time>2012-04-22T09:39:41Z</time>
      </trkpt>
      <trkpt lat="41.644005000" lon="2.611210100">
        <ele>344.30</ele>
        <time>2012-04-22T09:39:48Z</time>
      </trkpt>
      <trkpt lat="41.644024000" lon="2.611177100">
        <ele>344.30</ele>
        <time>2012-04-22T09:39:48Z</time>
      </trkpt>
      <trkpt lat="41.644154000" lon="2.611129100">
        <ele>344.30</ele>
        <time>2012-04-22T09:39:54Z</time>
      </trkpt>
      <trkpt lat="41.644348000" lon="2.611031100">
        <ele>344.30</ele>
        <time>2012-04-22T09:40:02Z</time>
      </trkpt>
      <trkpt lat="41.644482000" lon="2.610880100">
        <ele>344.80</ele>
        <time>2012-04-22T09:40:09Z</time>
      </trkpt>
      <trkpt lat="41.644650000" lon="2.610821100">
        <ele>345.20</ele>
        <time>2012-04-22T09:40:14Z</time>
      </trkpt>
      <trkpt lat="41.644844000" lon="2.610711100">
        <ele>345.20</ele>
        <time>2012-04-22T09:40:21Z</time>
      </trkpt>
      <trkpt lat="41.645050000" lon="2.610462100">
        <ele>345.70</ele>
        <time>2012-04-22T09:40:30Z</time>
      </trkpt>
      <trkpt lat="41.645222000" lon="2.610385100">
        <ele>346.20</ele>
        <time>2012-04-22T09:40:37Z</time>
      </trkpt>
      <trkpt lat="41.645340000" lon="2.610482100">
        <ele>346.20</ele>
        <time>2012-04-22T09:40:42Z</time>
      </trkpt>
      <trkpt lat="41.645473000" lon="2.610596100">
        <ele>347.60</ele>
        <time>2012-04-22T09:40:48Z</time>
      </trkpt>
      <trkpt lat="41.645649000" lon="2.610755100">
        <ele>348.60</ele>
        <time>2012-04-22T09:40:56Z</time>
      </trkpt>
      <trkpt lat="41.645790000" lon="2.610886100">
        <ele>349.60</ele>
        <time>2012-04-22T09:41:01Z</time>
      </trkpt>
      <trkpt lat="41.646034000" lon="2.610838100">
        <ele>349.60</ele>
        <time>2012-04-22T09:41:07Z</time>
      </trkpt>
      <trkpt lat="41.646263000" lon="2.610790100">
        <ele>349.60</ele>
        <time>2012-04-22T09:41:10Z</time>
      </trkpt>
      <trkpt lat="41.646427000" lon="2.610806100">
        <ele>349.60</ele>
        <time>2012-04-22T09:41:14Z</time>
      </trkpt>
      <trkpt lat="41.646572000" lon="2.610951100">
        <ele>348.10</ele>
        <time>2012-04-22T09:41:17Z</time>
      </trkpt>
      <trkpt lat="41.646660000" lon="2.611222100">
        <ele>348.60</ele>
        <time>2012-04-22T09:41:24Z</time>
      </trkpt>
      <trkpt lat="41.646744000" lon="2.611288100">
        <ele>347.60</ele>
        <time>2012-04-22T09:41:26Z</time>
      </trkpt>
      <trkpt lat="41.647018000" lon="2.611302100">
        <ele>347.20</ele>
        <time>2012-04-22T09:41:31Z</time>
      </trkpt>
      <trkpt lat="41.647110000" lon="2.611279100">
        <ele>346.70</ele>
        <time>2012-04-22T09:41:33Z</time>
      </trkpt>
      <trkpt lat="41.647388000" lon="2.611064100">
        <ele>345.20</ele>
        <time>2012-04-22T09:41:40Z</time>
      </trkpt>
      <trkpt lat="41.647575000" lon="2.611034100">
        <ele>344.30</ele>
        <time>2012-04-22T09:41:45Z</time>
      </trkpt>
      <trkpt lat="41.647774000" lon="2.611070100">
        <ele>343.80</ele>
        <time>2012-04-22T09:41:50Z</time>
      </trkpt>
      <trkpt lat="41.647953000" lon="2.611155100">
        <ele>343.30</ele>
        <time>2012-04-22T09:41:54Z</time>
      </trkpt>
      <trkpt lat="41.647968000" lon="2.611199100">
        <ele>343.30</ele>
        <time>2012-04-22T09:41:55Z</time>
      </trkpt>
      <trkpt lat="41.647999000" lon="2.611370100">
        <ele>343.30</ele>
        <time>2012-04-22T09:41:59Z</time>
      </trkpt>
      <trkpt lat="41.647907000" lon="2.611590100">
        <ele>342.90</ele>
        <time>2012-04-22T09:42:04Z</time>
      </trkpt>
      <trkpt lat="41.647636000" lon="2.612186100">
        <ele>340.90</ele>
        <time>2012-04-22T09:42:11Z</time>
      </trkpt>
      <trkpt lat="41.647514000" lon="2.612599100">
        <ele>340.00</ele>
        <time>2012-04-22T09:42:16Z</time>
      </trkpt>
      <trkpt lat="41.647392000" lon="2.613040100">
        <ele>336.10</ele>
        <time>2012-04-22T09:42:23Z</time>
      </trkpt>
      <trkpt lat="41.647358000" lon="2.613169100">
        <ele>335.60</ele>
        <time>2012-04-22T09:42:25Z</time>
      </trkpt>
      <trkpt lat="41.647301000" lon="2.613579100">
        <ele>335.20</ele>
        <time>2012-04-22T09:42:32Z</time>
      </trkpt>
      <trkpt lat="41.647305000" lon="2.613654100">
        <ele>335.20</ele>
        <time>2012-04-22T09:42:32Z</time>
      </trkpt>
      <trkpt lat="41.647320000" lon="2.614225100">
        <ele>332.30</ele>
        <time>2012-04-22T09:42:41Z</time>
      </trkpt>
      <trkpt lat="41.647308000" lon="2.614304100">
        <ele>331.80</ele>
        <time>2012-04-22T09:42:41Z</time>
      </trkpt>
      <trkpt lat="41.647308000" lon="2.614571100">
        <ele>328.40</ele>
        <time>2012-04-22T09:42:44Z</time>
      </trkpt>
      <trkpt lat="41.647198000" lon="2.614946100">
        <ele>326.00</ele>
        <time>2012-04-22T09:42:49Z</time>
      </trkpt>
      <trkpt lat="41.647141000" lon="2.615033100">
        <ele>325.50</ele>
        <time>2012-04-22T09:42:51Z</time>
      </trkpt>
      <trkpt lat="41.647186000" lon="2.615361100">
        <ele>325.10</ele>
        <time>2012-04-22T09:42:56Z</time>
      </trkpt>
      <trkpt lat="41.647198000" lon="2.615431100">
        <ele>325.10</ele>
        <time>2012-04-22T09:42:58Z</time>
      </trkpt>
      <trkpt lat="41.647163000" lon="2.615678100">
        <ele>320.30</ele>
        <time>2012-04-22T09:43:02Z</time>
      </trkpt>
      <trkpt lat="41.647110000" lon="2.615834100">
        <ele>317.90</ele>
        <time>2012-04-22T09:43:05Z</time>
      </trkpt>
      <trkpt lat="41.647099000" lon="2.616028100">
        <ele>316.40</ele>
        <time>2012-04-22T09:43:09Z</time>
      </trkpt>
      <trkpt lat="41.647102000" lon="2.616560100">
        <ele>317.40</ele>
        <time>2012-04-22T09:43:16Z</time>
      </trkpt>
      <trkpt lat="41.647121000" lon="2.616718100">
        <ele>317.40</ele>
        <time>2012-04-22T09:43:17Z</time>
      </trkpt>
      <trkpt lat="41.647141000" lon="2.617063100">
        <ele>317.40</ele>
        <time>2012-04-22T09:43:21Z</time>
      </trkpt>
      <trkpt lat="41.647087000" lon="2.617582100">
        <ele>317.40</ele>
        <time>2012-04-22T09:43:28Z</time>
      </trkpt>
      <trkpt lat="41.647057000" lon="2.617949100">
        <ele>317.40</ele>
        <time>2012-04-22T09:43:35Z</time>
      </trkpt>
      <trkpt lat="41.647060000" lon="2.618142100">
        <ele>317.40</ele>
        <time>2012-04-22T09:43:40Z</time>
      </trkpt>
      <trkpt lat="41.647083000" lon="2.618555100">
        <ele>317.40</ele>
        <time>2012-04-22T09:43:49Z</time>
      </trkpt>
      <trkpt lat="41.647137000" lon="2.618925100">
        <ele>317.40</ele>
        <time>2012-04-22T09:43:57Z</time>
      </trkpt>
      <trkpt lat="41.647198000" lon="2.619295100">
        <ele>317.40</ele>
        <time>2012-04-22T09:44:04Z</time>
      </trkpt>
      <trkpt lat="41.647266000" lon="2.619769100">
        <ele>315.90</ele>
        <time>2012-04-22T09:44:11Z</time>
      </trkpt>
      <trkpt lat="41.647297000" lon="2.620081100">
        <ele>312.60</ele>
        <time>2012-04-22T09:44:15Z</time>
      </trkpt>
      <trkpt lat="41.647312000" lon="2.620281100">
        <ele>308.70</ele>
        <time>2012-04-22T09:44:18Z</time>
      </trkpt>
      <trkpt lat="41.647316000" lon="2.620360100">
        <ele>308.70</ele>
        <time>2012-04-22T09:44:20Z</time>
      </trkpt>
      <trkpt lat="41.647343000" lon="2.620882100">
        <ele>306.30</ele>
        <time>2012-04-22T09:44:27Z</time>
      </trkpt>
      <trkpt lat="41.647308000" lon="2.621471100">
        <ele>304.40</ele>
        <time>2012-04-22T09:44:34Z</time>
      </trkpt>
      <trkpt lat="41.647263000" lon="2.621699100">
        <ele>301.50</ele>
        <time>2012-04-22T09:44:37Z</time>
      </trkpt>
      <trkpt lat="41.647213000" lon="2.621906100">
        <ele>297.70</ele>
        <time>2012-04-22T09:44:41Z</time>
      </trkpt>
      <trkpt lat="41.647182000" lon="2.622107100">
        <ele>294.30</ele>
        <time>2012-04-22T09:44:44Z</time>
      </trkpt>
      <trkpt lat="41.647266000" lon="2.622390100">
        <ele>296.70</ele>
        <time>2012-04-22T09:44:50Z</time>
      </trkpt>
      <trkpt lat="41.647289000" lon="2.622435100">
        <ele>297.70</ele>
        <time>2012-04-22T09:44:51Z</time>
      </trkpt>
      <trkpt lat="41.647369000" lon="2.622650100">
        <ele>298.60</ele>
        <time>2012-04-22T09:44:55Z</time>
      </trkpt>
      <trkpt lat="41.647442000" lon="2.623180100">
        <ele>297.70</ele>
        <time>2012-04-22T09:45:04Z</time>
      </trkpt>
      <trkpt lat="41.647449000" lon="2.623447100">
        <ele>295.30</ele>
        <time>2012-04-22T09:45:07Z</time>
      </trkpt>
      <trkpt lat="41.647324000" lon="2.623862100">
        <ele>291.40</ele>
        <time>2012-04-22T09:45:12Z</time>
      </trkpt>
      <trkpt lat="41.647144000" lon="2.623970100">
        <ele>290.90</ele>
        <time>2012-04-22T09:45:14Z</time>
      </trkpt>
      <trkpt lat="41.647079000" lon="2.623982100">
        <ele>290.00</ele>
        <time>2012-04-22T09:45:16Z</time>
      </trkpt>
      <trkpt lat="41.646957000" lon="2.623997100">
        <ele>290.50</ele>
        <time>2012-04-22T09:45:18Z</time>
      </trkpt>
      <trkpt lat="41.646893000" lon="2.624127100">
        <ele>290.50</ele>
        <time>2012-04-22T09:45:21Z</time>
      </trkpt>
      <trkpt lat="41.647041000" lon="2.624310100">
        <ele>290.50</ele>
        <time>2012-04-22T09:45:23Z</time>
      </trkpt>
      <trkpt lat="41.647186000" lon="2.624423100">
        <ele>288.50</ele>
        <time>2012-04-22T09:45:26Z</time>
      </trkpt>
      <trkpt lat="41.647385000" lon="2.624695100">
        <ele>283.70</ele>
        <time>2012-04-22T09:45:28Z</time>
      </trkpt>
      <trkpt lat="41.647476000" lon="2.624918100">
        <ele>280.40</ele>
        <time>2012-04-22T09:45:30Z</time>
      </trkpt>
      <trkpt lat="41.647507000" lon="2.625042100">
        <ele>279.40</ele>
        <time>2012-04-22T09:45:31Z</time>
      </trkpt>
      <trkpt lat="41.647694000" lon="2.625552100">
        <ele>274.10</ele>
        <time>2012-04-22T09:45:38Z</time>
      </trkpt>
      <trkpt lat="41.647720000" lon="2.625602100">
        <ele>274.60</ele>
        <time>2012-04-22T09:45:40Z</time>
      </trkpt>
      <trkpt lat="41.647800000" lon="2.625739100">
        <ele>277.50</ele>
        <time>2012-04-22T09:45:42Z</time>
      </trkpt>
      <trkpt lat="41.647877000" lon="2.625848100">
        <ele>280.80</ele>
        <time>2012-04-22T09:45:45Z</time>
      </trkpt>
      <trkpt lat="41.648026000" lon="2.626058100">
        <ele>283.20</ele>
        <time>2012-04-22T09:45:52Z</time>
      </trkpt>
      <trkpt lat="41.648186000" lon="2.626286100">
        <ele>283.20</ele>
        <time>2012-04-22T09:46:01Z</time>
      </trkpt>
      <trkpt lat="41.648235000" lon="2.626486100">
        <ele>283.70</ele>
        <time>2012-04-22T09:46:06Z</time>
      </trkpt>
      <trkpt lat="41.648132000" lon="2.626646100">
        <ele>284.70</ele>
        <time>2012-04-22T09:46:13Z</time>
      </trkpt>
      <trkpt lat="41.647911000" lon="2.626783100">
        <ele>286.10</ele>
        <time>2012-04-22T09:46:22Z</time>
      </trkpt>
      <trkpt lat="41.647758000" lon="2.626974100">
        <ele>287.10</ele>
        <time>2012-04-22T09:46:29Z</time>
      </trkpt>
      <trkpt lat="41.647629000" lon="2.627153100">
        <ele>288.00</ele>
        <time>2012-04-22T09:46:36Z</time>
      </trkpt>
      <trkpt lat="41.647461000" lon="2.627341100">
        <ele>289.00</ele>
        <time>2012-04-22T09:46:45Z</time>
      </trkpt>
      <trkpt lat="41.647411000" lon="2.627414100">
        <ele>289.00</ele>
        <time>2012-04-22T09:46:46Z</time>
      </trkpt>
      <trkpt lat="41.647320000" lon="2.627631100">
        <ele>289.00</ele>
        <time>2012-04-22T09:46:50Z</time>
      </trkpt>
      <trkpt lat="41.647091000" lon="2.627865100">
        <ele>289.00</ele>
        <time>2012-04-22T09:46:57Z</time>
      </trkpt>
      <trkpt lat="41.647049000" lon="2.627872100">
        <ele>289.00</ele>
        <time>2012-04-22T09:46:57Z</time>
      </trkpt>
      <trkpt lat="41.646797000" lon="2.627930100">
        <ele>289.00</ele>
        <time>2012-04-22T09:47:04Z</time>
      </trkpt>
      <trkpt lat="41.646557000" lon="2.628080100">
        <ele>289.00</ele>
        <time>2012-04-22T09:47:11Z</time>
      </trkpt>
      <trkpt lat="41.646519000" lon="2.628096100">
        <ele>289.00</ele>
        <time>2012-04-22T09:47:12Z</time>
      </trkpt>
      <trkpt lat="41.646271000" lon="2.628004100">
        <ele>289.00</ele>
        <time>2012-04-22T09:47:18Z</time>
      </trkpt>
      <trkpt lat="41.646141000" lon="2.627890100">
        <ele>289.00</ele>
        <time>2012-04-22T09:47:21Z</time>
      </trkpt>
      <trkpt lat="41.645908000" lon="2.627809100">
        <ele>288.00</ele>
        <time>2012-04-22T09:47:25Z</time>
      </trkpt>
      <trkpt lat="41.645687000" lon="2.627970100">
        <ele>286.10</ele>
        <time>2012-04-22T09:47:30Z</time>
      </trkpt>
      <trkpt lat="41.645649000" lon="2.628242100">
        <ele>282.30</ele>
        <time>2012-04-22T09:47:33Z</time>
      </trkpt>
      <trkpt lat="41.645660000" lon="2.628417100">
        <ele>279.40</ele>
        <time>2012-04-22T09:47:35Z</time>
      </trkpt>
      <trkpt lat="41.645576000" lon="2.628596100">
        <ele>273.60</ele>
        <time>2012-04-22T09:47:37Z</time>
      </trkpt>
      <trkpt lat="41.645428000" lon="2.628608100">
        <ele>270.80</ele>
        <time>2012-04-22T09:47:40Z</time>
      </trkpt>
      <trkpt lat="41.644791000" lon="2.628500100">
        <ele>267.40</ele>
        <time>2012-04-22T09:47:47Z</time>
      </trkpt>
      <trkpt lat="41.644596000" lon="2.628471100">
        <ele>267.40</ele>
        <time>2012-04-22T09:47:49Z</time>
      </trkpt>
      <trkpt lat="41.644279000" lon="2.628594100">
        <ele>267.40</ele>
        <time>2012-04-22T09:47:53Z</time>
      </trkpt>
      <trkpt lat="41.643990000" lon="2.628744100">
        <ele>266.90</ele>
        <time>2012-04-22T09:47:56Z</time>
      </trkpt>
      <trkpt lat="41.643738000" lon="2.628727100">
        <ele>265.90</ele>
        <time>2012-04-22T09:48:01Z</time>
      </trkpt>
      <trkpt lat="41.643616000" lon="2.628800100">
        <ele>265.90</ele>
        <time>2012-04-22T09:48:03Z</time>
      </trkpt>
      <trkpt lat="41.643341000" lon="2.629119100">
        <ele>263.10</ele>
        <time>2012-04-22T09:48:08Z</time>
      </trkpt>
      <trkpt lat="41.643158000" lon="2.629514100">
        <ele>257.80</ele>
        <time>2012-04-22T09:48:12Z</time>
      </trkpt>
      <trkpt lat="41.643021000" lon="2.629685100">
        <ele>256.80</ele>
        <time>2012-04-22T09:48:17Z</time>
      </trkpt>
      <trkpt lat="41.643051000" lon="2.629739100">
        <ele>256.30</ele>
        <time>2012-04-22T09:48:22Z</time>
      </trkpt>
      <trkpt lat="41.643089000" lon="2.629729100">
        <ele>256.30</ele>
        <time>2012-04-22T09:48:26Z</time>
      </trkpt>
      <trkpt lat="41.643089000" lon="2.629731100">
        <ele>257.30</ele>
        <time>2012-04-22T09:48:40Z</time>
      </trkpt>
      <trkpt lat="41.643089000" lon="2.629743100">
        <ele>257.30</ele>
        <time>2012-04-22T09:49:13Z</time>
      </trkpt>
      <trkpt lat="41.643093000" lon="2.629753100">
        <ele>257.30</ele>
        <time>2012-04-22T09:49:20Z</time>
      </trkpt>
      <trkpt lat="41.643169000" lon="2.629828100">
        <ele>257.30</ele>
        <time>2012-04-22T09:49:27Z</time>
      </trkpt>
      <trkpt lat="41.643261000" lon="2.629906100">
        <ele>257.30</ele>
        <time>2012-04-22T09:49:30Z</time>
      </trkpt>
      <trkpt lat="41.643471000" lon="2.629972100">
        <ele>257.30</ele>
        <time>2012-04-22T09:49:37Z</time>
      </trkpt>
      <trkpt lat="41.643517000" lon="2.629988100">
        <ele>257.30</ele>
        <time>2012-04-22T09:49:37Z</time>
      </trkpt>
      <trkpt lat="41.643791000" lon="2.630178100">
        <ele>256.30</ele>
        <time>2012-04-22T09:49:44Z</time>
      </trkpt>
      <trkpt lat="41.643871000" lon="2.630317100">
        <ele>253.40</ele>
        <time>2012-04-22T09:49:49Z</time>
      </trkpt>
      <trkpt lat="41.643906000" lon="2.630420100">
        <ele>250.60</ele>
        <time>2012-04-22T09:49:51Z</time>
      </trkpt>
      <trkpt lat="41.643925000" lon="2.630602100">
        <ele>246.20</ele>
        <time>2012-04-22T09:49:53Z</time>
      </trkpt>
      <trkpt lat="41.643929000" lon="2.630731100">
        <ele>242.90</ele>
        <time>2012-04-22T09:49:56Z</time>
      </trkpt>
      <trkpt lat="41.643986000" lon="2.630977100">
        <ele>239.00</ele>
        <time>2012-04-22T09:49:58Z</time>
      </trkpt>
      <trkpt lat="41.644093000" lon="2.631160100">
        <ele>235.70</ele>
        <time>2012-04-22T09:50:01Z</time>
      </trkpt>
      <trkpt lat="41.644230000" lon="2.631191100">
        <ele>233.30</ele>
        <time>2012-04-22T09:50:05Z</time>
      </trkpt>
      <trkpt lat="41.644310000" lon="2.631164100">
        <ele>231.80</ele>
        <time>2012-04-22T09:50:07Z</time>
      </trkpt>
      <trkpt lat="41.644375000" lon="2.631307100">
        <ele>231.30</ele>
        <time>2012-04-22T09:50:10Z</time>
      </trkpt>
      <trkpt lat="41.644402000" lon="2.631538100">
        <ele>231.30</ele>
        <time>2012-04-22T09:50:14Z</time>
      </trkpt>
      <trkpt lat="41.644516000" lon="2.631566100">
        <ele>230.40</ele>
        <time>2012-04-22T09:50:17Z</time>
      </trkpt>
      <trkpt lat="41.644558000" lon="2.631552100">
        <ele>230.40</ele>
        <time>2012-04-22T09:50:19Z</time>
      </trkpt>
      <trkpt lat="41.644684000" lon="2.631493100">
        <ele>228.90</ele>
        <time>2012-04-22T09:50:22Z</time>
      </trkpt>
      <trkpt lat="41.644779000" lon="2.631619100">
        <ele>224.60</ele>
        <time>2012-04-22T09:50:26Z</time>
      </trkpt>
      <trkpt lat="41.644699000" lon="2.631777100">
        <ele>220.80</ele>
        <time>2012-04-22T09:50:29Z</time>
      </trkpt>
      <trkpt lat="41.644585000" lon="2.632229100">
        <ele>217.90</ele>
        <time>2012-04-22T09:50:35Z</time>
      </trkpt>
      <trkpt lat="41.644539000" lon="2.632646100">
        <ele>213.60</ele>
        <time>2012-04-22T09:50:40Z</time>
      </trkpt>
      <trkpt lat="41.644600000" lon="2.633054100">
        <ele>209.70</ele>
        <time>2012-04-22T09:50:45Z</time>
      </trkpt>
      <trkpt lat="41.644630000" lon="2.633117100">
        <ele>208.70</ele>
        <time>2012-04-22T09:50:45Z</time>
      </trkpt>
      <trkpt lat="41.644695000" lon="2.633235100">
        <ele>206.30</ele>
        <time>2012-04-22T09:50:47Z</time>
      </trkpt>
      <trkpt lat="41.644802000" lon="2.633489100">
        <ele>200.60</ele>
        <time>2012-04-22T09:50:52Z</time>
      </trkpt>
      <trkpt lat="41.644833000" lon="2.633712100">
        <ele>196.20</ele>
        <time>2012-04-22T09:50:54Z</time>
      </trkpt>
      <trkpt lat="41.644897000" lon="2.633940100">
        <ele>191.90</ele>
        <time>2012-04-22T09:50:57Z</time>
      </trkpt>
      <trkpt lat="41.644890000" lon="2.634228100">
        <ele>185.70</ele>
        <time>2012-04-22T09:51:01Z</time>
      </trkpt>
      <trkpt lat="41.644867000" lon="2.634718100">
        <ele>182.30</ele>
        <time>2012-04-22T09:51:08Z</time>
      </trkpt>
      <trkpt lat="41.644905000" lon="2.634789100">
        <ele>181.40</ele>
        <time>2012-04-22T09:51:09Z</time>
      </trkpt>
      <trkpt lat="41.644989000" lon="2.634924100">
        <ele>181.80</ele>
        <time>2012-04-22T09:51:11Z</time>
      </trkpt>
      <trkpt lat="41.645157000" lon="2.635102100">
        <ele>181.80</ele>
        <time>2012-04-22T09:51:13Z</time>
      </trkpt>
      <trkpt lat="41.645504000" lon="2.635478100">
        <ele>181.80</ele>
        <time>2012-04-22T09:51:20Z</time>
      </trkpt>
      <trkpt lat="41.645691000" lon="2.635768100">
        <ele>181.80</ele>
        <time>2012-04-22T09:51:25Z</time>
      </trkpt>
      <trkpt lat="41.645760000" lon="2.636056100">
        <ele>181.80</ele>
        <time>2012-04-22T09:51:30Z</time>
      </trkpt>
      <trkpt lat="41.645794000" lon="2.636459100">
        <ele>181.40</ele>
        <time>2012-04-22T09:51:36Z</time>
      </trkpt>
      <trkpt lat="41.645870000" lon="2.636626100">
        <ele>181.40</ele>
        <time>2012-04-22T09:51:37Z</time>
      </trkpt>
      <trkpt lat="41.646069000" lon="2.636924100">
        <ele>180.40</ele>
        <time>2012-04-22T09:51:41Z</time>
      </trkpt>
      <trkpt lat="41.646183000" lon="2.637163100">
        <ele>179.40</ele>
        <time>2012-04-22T09:51:44Z</time>
      </trkpt>
      <trkpt lat="41.646320000" lon="2.637395100">
        <ele>178.90</ele>
        <time>2012-04-22T09:51:49Z</time>
      </trkpt>
      <trkpt lat="41.646412000" lon="2.637624100">
        <ele>178.00</ele>
        <time>2012-04-22T09:51:53Z</time>
      </trkpt>
      <trkpt lat="41.646465000" lon="2.637925100">
        <ele>174.10</ele>
        <time>2012-04-22T09:51:58Z</time>
      </trkpt>
      <trkpt lat="41.646488000" lon="2.638130100">
        <ele>169.80</ele>
        <time>2012-04-22T09:52:02Z</time>
      </trkpt>
      <trkpt lat="41.646519000" lon="2.638361100">
        <ele>166.00</ele>
        <time>2012-04-22T09:52:05Z</time>
      </trkpt>
      <trkpt lat="41.646572000" lon="2.638776100">
        <ele>162.60</ele>
        <time>2012-04-22T09:52:10Z</time>
      </trkpt>
      <trkpt lat="41.646587000" lon="2.638967100">
        <ele>162.10</ele>
        <time>2012-04-22T09:52:12Z</time>
      </trkpt>
      <trkpt lat="41.646664000" lon="2.639185100">
        <ele>161.60</ele>
        <time>2012-04-22T09:52:17Z</time>
      </trkpt>
      <trkpt lat="41.646683000" lon="2.639503100">
        <ele>161.20</ele>
        <time>2012-04-22T09:52:21Z</time>
      </trkpt>
      <trkpt lat="41.646740000" lon="2.639745100">
        <ele>160.70</ele>
        <time>2012-04-22T09:52:26Z</time>
      </trkpt>
      <trkpt lat="41.647011000" lon="2.640355100">
        <ele>159.70</ele>
        <time>2012-04-22T09:52:36Z</time>
      </trkpt>
      <trkpt lat="41.647038000" lon="2.640404100">
        <ele>159.20</ele>
        <time>2012-04-22T09:52:38Z</time>
      </trkpt>
      <trkpt lat="41.647160000" lon="2.640728100">
        <ele>155.90</ele>
        <time>2012-04-22T09:52:42Z</time>
      </trkpt>
      <trkpt lat="41.647179000" lon="2.640812100">
        <ele>154.40</ele>
        <time>2012-04-22T09:52:43Z</time>
      </trkpt>
      <trkpt lat="41.647282000" lon="2.641152100">
        <ele>149.60</ele>
        <time>2012-04-22T09:52:47Z</time>
      </trkpt>
      <trkpt lat="41.647346000" lon="2.641339100">
        <ele>147.20</ele>
        <time>2012-04-22T09:52:52Z</time>
      </trkpt>
      <trkpt lat="41.647381000" lon="2.641473100">
        <ele>147.70</ele>
        <time>2012-04-22T09:52:57Z</time>
      </trkpt>
      <trkpt lat="41.647446000" lon="2.641701100">
        <ele>147.70</ele>
        <time>2012-04-22T09:53:03Z</time>
      </trkpt>
      <trkpt lat="41.647514000" lon="2.641921100">
        <ele>145.80</ele>
        <time>2012-04-22T09:53:06Z</time>
      </trkpt>
      <trkpt lat="41.647533000" lon="2.642156100">
        <ele>142.40</ele>
        <time>2012-04-22T09:53:10Z</time>
      </trkpt>
      <trkpt lat="41.647583000" lon="2.642415100">
        <ele>137.60</ele>
        <time>2012-04-22T09:53:13Z</time>
      </trkpt>
      <trkpt lat="41.647648000" lon="2.642814100">
        <ele>132.80</ele>
        <time>2012-04-22T09:53:17Z</time>
      </trkpt>
      <trkpt lat="41.647747000" lon="2.643280100">
        <ele>133.30</ele>
        <time>2012-04-22T09:53:22Z</time>
      </trkpt>
      <trkpt lat="41.647945000" lon="2.643492100">
        <ele>133.30</ele>
        <time>2012-04-22T09:53:25Z</time>
      </trkpt>
      <trkpt lat="41.647984000" lon="2.643567100">
        <ele>133.30</ele>
        <time>2012-04-22T09:53:27Z</time>
      </trkpt>
      <trkpt lat="41.648083000" lon="2.643830100">
        <ele>133.30</ele>
        <time>2012-04-22T09:53:29Z</time>
      </trkpt>
      <trkpt lat="41.648098000" lon="2.644269100">
        <ele>131.40</ele>
        <time>2012-04-22T09:53:34Z</time>
      </trkpt>
      <trkpt lat="41.648113000" lon="2.644491100">
        <ele>127.50</ele>
        <time>2012-04-22T09:53:37Z</time>
      </trkpt>
      <trkpt lat="41.648163000" lon="2.644611100">
        <ele>124.60</ele>
        <time>2012-04-22T09:53:39Z</time>
      </trkpt>
      <trkpt lat="41.648212000" lon="2.644727100">
        <ele>121.70</ele>
        <time>2012-04-22T09:53:41Z</time>
      </trkpt>
      <trkpt lat="41.648254000" lon="2.645090100">
        <ele>117.90</ele>
        <time>2012-04-22T09:53:46Z</time>
      </trkpt>
      <trkpt lat="41.648247000" lon="2.645257100">
        <ele>117.90</ele>
        <time>2012-04-22T09:53:48Z</time>
      </trkpt>
      <trkpt lat="41.648239000" lon="2.645656100">
        <ele>117.40</ele>
        <time>2012-04-22T09:53:53Z</time>
      </trkpt>
      <trkpt lat="41.648308000" lon="2.646180100">
        <ele>113.60</ele>
        <time>2012-04-22T09:54:00Z</time>
      </trkpt>
      <trkpt lat="41.648407000" lon="2.646435100">
        <ele>109.20</ele>
        <time>2012-04-22T09:54:02Z</time>
      </trkpt>
      <trkpt lat="41.648449000" lon="2.646518100">
        <ele>107.30</ele>
        <time>2012-04-22T09:54:04Z</time>
      </trkpt>
      <trkpt lat="41.648628000" lon="2.646998100">
        <ele>104.00</ele>
        <time>2012-04-22T09:54:09Z</time>
      </trkpt>
      <trkpt lat="41.648926000" lon="2.647689100">
        <ele>104.40</ele>
        <time>2012-04-22T09:54:16Z</time>
      </trkpt>
      <trkpt lat="41.649250000" lon="2.648143100">
        <ele>104.40</ele>
        <time>2012-04-22T09:54:21Z</time>
      </trkpt>
      <trkpt lat="41.649399000" lon="2.648382100">
        <ele>104.00</ele>
        <time>2012-04-22T09:54:26Z</time>
      </trkpt>
      <trkpt lat="41.649467000" lon="2.648617100">
        <ele>103.50</ele>
        <time>2012-04-22T09:54:28Z</time>
      </trkpt>
      <trkpt lat="41.649551000" lon="2.649180100">
        <ele>100.10</ele>
        <time>2012-04-22T09:54:35Z</time>
      </trkpt>
      <trkpt lat="41.649570000" lon="2.649433100">
        <ele>96.30</ele>
        <time>2012-04-22T09:54:37Z</time>
      </trkpt>
      <trkpt lat="41.649570000" lon="2.649510100">
        <ele>94.80</ele>
        <time>2012-04-22T09:54:38Z</time>
      </trkpt>
      <trkpt lat="41.649624000" lon="2.649726100">
        <ele>92.40</ele>
        <time>2012-04-22T09:54:42Z</time>
      </trkpt>
      <trkpt lat="41.649780000" lon="2.650014100">
        <ele>91.90</ele>
        <time>2012-04-22T09:54:45Z</time>
      </trkpt>
      <trkpt lat="41.649929000" lon="2.650348100">
        <ele>91.90</ele>
        <time>2012-04-22T09:54:49Z</time>
      </trkpt>
      <trkpt lat="41.649971000" lon="2.650729100">
        <ele>91.50</ele>
        <time>2012-04-22T09:54:54Z</time>
      </trkpt>
      <trkpt lat="41.649971000" lon="2.651050100">
        <ele>87.10</ele>
        <time>2012-04-22T09:55:01Z</time>
      </trkpt>
      <trkpt lat="41.650066000" lon="2.651186100">
        <ele>83.80</ele>
        <time>2012-04-22T09:55:05Z</time>
      </trkpt>
      <trkpt lat="41.650318000" lon="2.651356100">
        <ele>83.30</ele>
        <time>2012-04-22T09:55:12Z</time>
      </trkpt>
      <trkpt lat="41.650558000" lon="2.651393100">
        <ele>83.30</ele>
        <time>2012-04-22T09:55:17Z</time>
      </trkpt>
      <trkpt lat="41.650650000" lon="2.651466100">
        <ele>83.30</ele>
        <time>2012-04-22T09:55:20Z</time>
      </trkpt>
      <trkpt lat="41.650654000" lon="2.651474100">
        <ele>83.30</ele>
        <time>2012-04-22T09:55:27Z</time>
      </trkpt>
      <trkpt lat="41.650654000" lon="2.651474100">
        <ele>83.30</ele>
        <time>2012-04-22T09:55:39Z</time>
      </trkpt>
      <trkpt lat="41.650692000" lon="2.651559100">
        <ele>82.80</ele>
        <time>2012-04-22T09:55:45Z</time>
      </trkpt>
      <trkpt lat="41.650707000" lon="2.651727100">
        <ele>82.80</ele>
        <time>2012-04-22T09:55:50Z</time>
      </trkpt>
      <trkpt lat="41.650711000" lon="2.651741100">
        <ele>82.80</ele>
        <time>2012-04-22T09:55:57Z</time>
      </trkpt>
      <trkpt lat="41.650711000" lon="2.651750100">
        <ele>82.80</ele>
        <time>2012-04-22T09:56:35Z</time>
      </trkpt>
      <trkpt lat="41.650715000" lon="2.651752100">
        <ele>82.80</ele>
        <time>2012-04-22T09:57:15Z</time>
      </trkpt>
      <trkpt lat="41.650719000" lon="2.651758100">
        <ele>82.80</ele>
        <time>2012-04-22T09:58:35Z</time>
      </trkpt>
      <trkpt lat="41.650719000" lon="2.651775100">
        <ele>82.80</ele>
        <time>2012-04-22T09:59:52Z</time>
      </trkpt>
      <trkpt lat="41.650730000" lon="2.651844100">
        <ele>82.80</ele>
        <time>2012-04-22T09:59:55Z</time>
      </trkpt>
      <trkpt lat="41.650719000" lon="2.651916100">
        <ele>82.80</ele>
        <time>2012-04-22T09:59:59Z</time>
      </trkpt>
      <trkpt lat="41.650700000" lon="2.652125100">
        <ele>82.80</ele>
        <time>2012-04-22T10:00:08Z</time>
      </trkpt>
      <trkpt lat="41.650742000" lon="2.652148100">
        <ele>82.80</ele>
        <time>2012-04-22T10:00:13Z</time>
      </trkpt>
      <trkpt lat="41.650768000" lon="2.652074100">
        <ele>82.80</ele>
        <time>2012-04-22T10:00:16Z</time>
      </trkpt>
      <trkpt lat="41.650795000" lon="2.651961100">
        <ele>84.20</ele>
        <time>2012-04-22T10:00:23Z</time>
      </trkpt>
      <trkpt lat="41.650806000" lon="2.651797100">
        <ele>85.70</ele>
        <time>2012-04-22T10:00:32Z</time>
      </trkpt>
      <trkpt lat="41.650814000" lon="2.651615100">
        <ele>86.70</ele>
        <time>2012-04-22T10:00:39Z</time>
      </trkpt>
      <trkpt lat="41.650841000" lon="2.651386100">
        <ele>87.10</ele>
        <time>2012-04-22T10:00:48Z</time>
      </trkpt>
      <trkpt lat="41.650867000" lon="2.651145100">
        <ele>87.10</ele>
        <time>2012-04-22T10:00:55Z</time>
      </trkpt>
      <trkpt lat="41.650871000" lon="2.650981100">
        <ele>87.10</ele>
        <time>2012-04-22T10:01:00Z</time>
      </trkpt>
      <trkpt lat="41.650879000" lon="2.650810100">
        <ele>87.10</ele>
        <time>2012-04-22T10:01:05Z</time>
      </trkpt>
      <trkpt lat="41.650845000" lon="2.650639100">
        <ele>86.20</ele>
        <time>2012-04-22T10:01:10Z</time>
      </trkpt>
      <trkpt lat="41.650806000" lon="2.650398100">
        <ele>86.20</ele>
        <time>2012-04-22T10:01:17Z</time>
      </trkpt>
      <trkpt lat="41.650818000" lon="2.650201100">
        <ele>86.20</ele>
        <time>2012-04-22T10:01:24Z</time>
      </trkpt>
      <trkpt lat="41.650890000" lon="2.649932100">
        <ele>88.60</ele>
        <time>2012-04-22T10:01:33Z</time>
      </trkpt>
      <trkpt lat="41.650890000" lon="2.649885100">
        <ele>90.50</ele>
        <time>2012-04-22T10:01:35Z</time>
      </trkpt>
      <trkpt lat="41.650940000" lon="2.649659100">
        <ele>93.40</ele>
        <time>2012-04-22T10:01:43Z</time>
      </trkpt>
      <trkpt lat="41.650982000" lon="2.649517100">
        <ele>92.40</ele>
        <time>2012-04-22T10:01:49Z</time>
      </trkpt>
      <trkpt lat="41.651016000" lon="2.649342100">
        <ele>92.40</ele>
        <time>2012-04-22T10:01:57Z</time>
      </trkpt>
      <trkpt lat="41.651119000" lon="2.649111100">
        <ele>90.50</ele>
        <time>2012-04-22T10:02:04Z</time>
      </trkpt>
      <trkpt lat="41.651249000" lon="2.648989100">
        <ele>90.00</ele>
        <time>2012-04-22T10:02:13Z</time>
      </trkpt>
      <trkpt lat="41.651318000" lon="2.648937100">
        <ele>90.00</ele>
        <time>2012-04-22T10:02:20Z</time>
      </trkpt>
      <trkpt lat="41.651329000" lon="2.648900100">
        <ele>90.00</ele>
        <time>2012-04-22T10:02:27Z</time>
      </trkpt>
      <trkpt lat="41.651333000" lon="2.648882100">
        <ele>89.50</ele>
        <time>2012-04-22T10:02:34Z</time>
      </trkpt>
      <trkpt lat="41.651325000" lon="2.648841100">
        <ele>89.50</ele>
        <time>2012-04-22T10:02:43Z</time>
      </trkpt>
      <trkpt lat="41.651302000" lon="2.648772100">
        <ele>89.50</ele>
        <time>2012-04-22T10:02:51Z</time>
      </trkpt>
      <trkpt lat="41.651272000" lon="2.648708100">
        <ele>91.00</ele>
        <time>2012-04-22T10:02:58Z</time>
      </trkpt>
      <trkpt lat="41.651283000" lon="2.648582100">
        <ele>92.40</ele>
        <time>2012-04-22T10:03:07Z</time>
      </trkpt>
      <trkpt lat="41.651302000" lon="2.648510100">
        <ele>93.40</ele>
        <time>2012-04-22T10:03:14Z</time>
      </trkpt>
      <trkpt lat="41.651333000" lon="2.648439100">
        <ele>95.30</ele>
        <time>2012-04-22T10:03:26Z</time>
      </trkpt>
      <trkpt lat="41.651337000" lon="2.648405100">
        <ele>95.80</ele>
        <time>2012-04-22T10:03:35Z</time>
      </trkpt>
      <trkpt lat="41.651337000" lon="2.648406100">
        <ele>96.80</ele>
        <time>2012-04-22T10:03:42Z</time>
      </trkpt>
      <trkpt lat="41.651344000" lon="2.648392100">
        <ele>97.20</ele>
        <time>2012-04-22T10:03:49Z</time>
      </trkpt>
      <trkpt lat="41.651352000" lon="2.648384100">
        <ele>97.70</ele>
        <time>2012-04-22T10:03:56Z</time>
      </trkpt>
      <trkpt lat="41.651493000" lon="2.648334100">
        <ele>98.70</ele>
        <time>2012-04-22T10:04:06Z</time>
      </trkpt>
      <trkpt lat="41.651611000" lon="2.648285100">
        <ele>100.60</ele>
        <time>2012-04-22T10:04:15Z</time>
      </trkpt>
      <trkpt lat="41.651691000" lon="2.648267100">
        <ele>101.60</ele>
        <time>2012-04-22T10:04:22Z</time>
      </trkpt>
      <trkpt lat="41.651783000" lon="2.648254100">
        <ele>102.00</ele>
        <time>2012-04-22T10:04:29Z</time>
      </trkpt>
      <trkpt lat="41.651821000" lon="2.648248100">
        <ele>102.50</ele>
        <time>2012-04-22T10:04:32Z</time>
      </trkpt>
      <trkpt lat="41.651871000" lon="2.648243100">
        <ele>103.00</ele>
        <time>2012-04-22T10:04:36Z</time>
      </trkpt>
      <trkpt lat="41.651970000" lon="2.648217100">
        <ele>103.50</ele>
        <time>2012-04-22T10:04:45Z</time>
      </trkpt>
      <trkpt lat="41.652039000" lon="2.648180100">
        <ele>104.00</ele>
        <time>2012-04-22T10:04:52Z</time>
      </trkpt>
      <trkpt lat="41.652073000" lon="2.648158100">
        <ele>104.40</ele>
        <time>2012-04-22T10:05:00Z</time>
      </trkpt>
      <trkpt lat="41.652184000" lon="2.648073100">
        <ele>105.90</ele>
        <time>2012-04-22T10:05:09Z</time>
      </trkpt>
      <trkpt lat="41.652191000" lon="2.648064100">
        <ele>105.90</ele>
        <time>2012-04-22T10:05:09Z</time>
      </trkpt>
      <trkpt lat="41.652298000" lon="2.647979100">
        <ele>106.40</ele>
        <time>2012-04-22T10:05:16Z</time>
      </trkpt>
      <trkpt lat="41.652328000" lon="2.647958100">
        <ele>107.30</ele>
        <time>2012-04-22T10:05:18Z</time>
      </trkpt>
      <trkpt lat="41.652363000" lon="2.647842100">
        <ele>108.30</ele>
        <time>2012-04-22T10:05:25Z</time>
      </trkpt>
      <trkpt lat="41.652367000" lon="2.647727100">
        <ele>109.20</ele>
        <time>2012-04-22T10:05:33Z</time>
      </trkpt>
      <trkpt lat="41.652374000" lon="2.647698100">
        <ele>110.20</ele>
        <time>2012-04-22T10:05:35Z</time>
      </trkpt>
      <trkpt lat="41.652431000" lon="2.647607100">
        <ele>112.10</ele>
        <time>2012-04-22T10:05:44Z</time>
      </trkpt>
      <trkpt lat="41.652470000" lon="2.647548100">
        <ele>115.50</ele>
        <time>2012-04-22T10:05:49Z</time>
      </trkpt>
      <trkpt lat="41.652493000" lon="2.647517100">
        <ele>116.90</ele>
        <time>2012-04-22T10:05:51Z</time>
      </trkpt>
      <trkpt lat="41.652531000" lon="2.647454100">
        <ele>118.90</ele>
        <time>2012-04-22T10:05:54Z</time>
      </trkpt>
      <trkpt lat="41.652603000" lon="2.647317100">
        <ele>118.40</ele>
        <time>2012-04-22T10:06:03Z</time>
      </trkpt>
      <trkpt lat="41.652630000" lon="2.647260100">
        <ele>118.90</ele>
        <time>2012-04-22T10:06:10Z</time>
      </trkpt>
      <trkpt lat="41.652641000" lon="2.647243100">
        <ele>118.90</ele>
        <time>2012-04-22T10:06:12Z</time>
      </trkpt>
      <trkpt lat="41.652687000" lon="2.647110100">
        <ele>119.80</ele>
        <time>2012-04-22T10:06:19Z</time>
      </trkpt>
      <trkpt lat="41.652699000" lon="2.647025100">
        <ele>120.30</ele>
        <time>2012-04-22T10:06:26Z</time>
      </trkpt>
      <trkpt lat="41.652702000" lon="2.646930100">
        <ele>121.30</ele>
        <time>2012-04-22T10:06:34Z</time>
      </trkpt>
      <trkpt lat="41.652702000" lon="2.646930100">
        <ele>121.30</ele>
        <time>2012-04-22T10:06:43Z</time>
      </trkpt>
      <trkpt lat="41.652710000" lon="2.646911100">
        <ele>121.70</ele>
        <time>2012-04-22T10:06:48Z</time>
      </trkpt>
      <trkpt lat="41.652771000" lon="2.646698100">
        <ele>121.70</ele>
        <time>2012-04-22T10:06:54Z</time>
      </trkpt>
      <trkpt lat="41.652916000" lon="2.646283100">
        <ele>121.70</ele>
        <time>2012-04-22T10:07:02Z</time>
      </trkpt>
      <trkpt lat="41.652874000" lon="2.646057100">
        <ele>120.80</ele>
        <time>2012-04-22T10:07:06Z</time>
      </trkpt>
      <trkpt lat="41.652805000" lon="2.645830100">
        <ele>120.30</ele>
        <time>2012-04-22T10:07:09Z</time>
      </trkpt>
      <trkpt lat="41.652775000" lon="2.645563100">
        <ele>116.50</ele>
        <time>2012-04-22T10:07:14Z</time>
      </trkpt>
      <trkpt lat="41.652760000" lon="2.645322100">
        <ele>112.60</ele>
        <time>2012-04-22T10:07:20Z</time>
      </trkpt>
      <trkpt lat="41.652748000" lon="2.645170100">
        <ele>111.70</ele>
        <time>2012-04-22T10:07:23Z</time>
      </trkpt>
      <trkpt lat="41.652756000" lon="2.644758100">
        <ele>111.70</ele>
        <time>2012-04-22T10:07:37Z</time>
      </trkpt>
      <trkpt lat="41.652798000" lon="2.644557100">
        <ele>113.10</ele>
        <time>2012-04-22T10:07:44Z</time>
      </trkpt>
      <trkpt lat="41.652802000" lon="2.644537100">
        <ele>113.10</ele>
        <time>2012-04-22T10:07:46Z</time>
      </trkpt>
      <trkpt lat="41.652809000" lon="2.644427100">
        <ele>114.50</ele>
        <time>2012-04-22T10:07:53Z</time>
      </trkpt>
      <trkpt lat="41.652813000" lon="2.644289100">
        <ele>116.50</ele>
        <time>2012-04-22T10:08:00Z</time>
      </trkpt>
      <trkpt lat="41.652817000" lon="2.644187100">
        <ele>116.90</ele>
        <time>2012-04-22T10:08:05Z</time>
      </trkpt>
      <trkpt lat="41.652843000" lon="2.644064100">
        <ele>118.40</ele>
        <time>2012-04-22T10:08:12Z</time>
      </trkpt>
      <trkpt lat="41.652859000" lon="2.644027100">
        <ele>118.40</ele>
        <time>2012-04-22T10:08:14Z</time>
      </trkpt>
      <trkpt lat="41.652908000" lon="2.643742100">
        <ele>118.40</ele>
        <time>2012-04-22T10:08:22Z</time>
      </trkpt>
      <trkpt lat="41.652962000" lon="2.643536100">
        <ele>118.40</ele>
        <time>2012-04-22T10:08:28Z</time>
      </trkpt>
      <trkpt lat="41.653034000" lon="2.643346100">
        <ele>118.40</ele>
        <time>2012-04-22T10:08:33Z</time>
      </trkpt>
      <trkpt lat="41.653118000" lon="2.643127100">
        <ele>117.90</ele>
        <time>2012-04-22T10:08:40Z</time>
      </trkpt>
      <trkpt lat="41.653210000" lon="2.642933100">
        <ele>117.90</ele>
        <time>2012-04-22T10:08:45Z</time>
      </trkpt>
      <trkpt lat="41.653328000" lon="2.642646100">
        <ele>118.40</ele>
        <time>2012-04-22T10:08:54Z</time>
      </trkpt>
      <trkpt lat="41.653416000" lon="2.642510100">
        <ele>119.80</ele>
        <time>2012-04-22T10:09:01Z</time>
      </trkpt>
      <trkpt lat="41.653454000" lon="2.642448100">
        <ele>120.80</ele>
        <time>2012-04-22T10:09:06Z</time>
      </trkpt>
      <trkpt lat="41.653454000" lon="2.642445100">
        <ele>120.80</ele>
        <time>2012-04-22T10:09:08Z</time>
      </trkpt>
      <trkpt lat="41.653576000" lon="2.642435100">
        <ele>122.70</ele>
        <time>2012-04-22T10:09:16Z</time>
      </trkpt>
      <trkpt lat="41.653591000" lon="2.642427100">
        <ele>122.70</ele>
        <time>2012-04-22T10:09:18Z</time>
      </trkpt>
      <trkpt lat="41.653717000" lon="2.642355100">
        <ele>124.20</ele>
        <time>2012-04-22T10:09:25Z</time>
      </trkpt>
      <trkpt lat="41.653755000" lon="2.642335100">
        <ele>125.10</ele>
        <time>2012-04-22T10:09:32Z</time>
      </trkpt>
      <trkpt lat="41.653755000" lon="2.642335100">
        <ele>125.10</ele>
        <time>2012-04-22T10:09:34Z</time>
      </trkpt>
      <trkpt lat="41.653919000" lon="2.642277100">
        <ele>125.60</ele>
        <time>2012-04-22T10:09:41Z</time>
      </trkpt>
      <trkpt lat="41.654041000" lon="2.642169100">
        <ele>126.60</ele>
        <time>2012-04-22T10:09:48Z</time>
      </trkpt>
      <trkpt lat="41.654064000" lon="2.642125100">
        <ele>126.60</ele>
        <time>2012-04-22T10:09:51Z</time>
      </trkpt>
      <trkpt lat="41.654152000" lon="2.641887100">
        <ele>127.00</ele>
        <time>2012-04-22T10:09:58Z</time>
      </trkpt>
      <trkpt lat="41.654182000" lon="2.641696100">
        <ele>127.00</ele>
        <time>2012-04-22T10:10:05Z</time>
      </trkpt>
      <trkpt lat="41.654205000" lon="2.641612100">
        <ele>127.00</ele>
        <time>2012-04-22T10:10:07Z</time>
      </trkpt>
      <trkpt lat="41.654243000" lon="2.641381100">
        <ele>127.50</ele>
        <time>2012-04-22T10:10:16Z</time>
      </trkpt>
      <trkpt lat="41.654278000" lon="2.641220100">
        <ele>127.50</ele>
        <time>2012-04-22T10:10:24Z</time>
      </trkpt>
      <trkpt lat="41.654324000" lon="2.641144100">
        <ele>128.00</ele>
        <time>2012-04-22T10:10:28Z</time>
      </trkpt>
      <trkpt lat="41.654442000" lon="2.640908100">
        <ele>128.90</ele>
        <time>2012-04-22T10:10:38Z</time>
      </trkpt>
      <trkpt lat="41.654495000" lon="2.640802100">
        <ele>130.90</ele>
        <time>2012-04-22T10:10:45Z</time>
      </trkpt>
      <trkpt lat="41.654514000" lon="2.640757100">
        <ele>131.40</ele>
        <time>2012-04-22T10:10:54Z</time>
      </trkpt>
      <trkpt lat="41.654530000" lon="2.640719100">
        <ele>132.30</ele>
        <time>2012-04-22T10:10:59Z</time>
      </trkpt>
      <trkpt lat="41.654537000" lon="2.640707100">
        <ele>132.30</ele>
        <time>2012-04-22T10:10:59Z</time>
      </trkpt>
      <trkpt lat="41.654617000" lon="2.640618100">
        <ele>133.30</ele>
        <time>2012-04-22T10:11:06Z</time>
      </trkpt>
      <trkpt lat="41.654678000" lon="2.640547100">
        <ele>134.70</ele>
        <time>2012-04-22T10:11:13Z</time>
      </trkpt>
      <trkpt lat="41.654751000" lon="2.640466100">
        <ele>135.70</ele>
        <time>2012-04-22T10:11:20Z</time>
      </trkpt>
      <trkpt lat="41.654808000" lon="2.640441100">
        <ele>140.50</ele>
        <time>2012-04-22T10:11:25Z</time>
      </trkpt>
      <trkpt lat="41.654831000" lon="2.640434100">
        <ele>141.40</ele>
        <time>2012-04-22T10:11:27Z</time>
      </trkpt>
      <trkpt lat="41.654949000" lon="2.640439100">
        <ele>142.40</ele>
        <time>2012-04-22T10:11:36Z</time>
      </trkpt>
      <trkpt lat="41.655064000" lon="2.640461100">
        <ele>142.40</ele>
        <time>2012-04-22T10:11:44Z</time>
      </trkpt>
      <trkpt lat="41.655151000" lon="2.640461100">
        <ele>143.90</ele>
        <time>2012-04-22T10:11:53Z</time>
      </trkpt>
      <trkpt lat="41.655212000" lon="2.640473100">
        <ele>144.80</ele>
        <time>2012-04-22T10:11:58Z</time>
      </trkpt>
      <trkpt lat="41.655384000" lon="2.640431100">
        <ele>146.70</ele>
        <time>2012-04-22T10:12:09Z</time>
      </trkpt>
      <trkpt lat="41.655479000" lon="2.640347100">
        <ele>148.70</ele>
        <time>2012-04-22T10:12:19Z</time>
      </trkpt>
      <trkpt lat="41.655525000" lon="2.640296100">
        <ele>149.60</ele>
        <time>2012-04-22T10:12:28Z</time>
      </trkpt>
      <trkpt lat="41.655537000" lon="2.640285100">
        <ele>150.10</ele>
        <time>2012-04-22T10:12:35Z</time>
      </trkpt>
      <trkpt lat="41.655544000" lon="2.640276100">
        <ele>151.10</ele>
        <time>2012-04-22T10:12:44Z</time>
      </trkpt>
      <trkpt lat="41.655575000" lon="2.640244100">
        <ele>151.50</ele>
        <time>2012-04-22T10:12:51Z</time>
      </trkpt>
      <trkpt lat="41.655598000" lon="2.640206100">
        <ele>151.50</ele>
        <time>2012-04-22T10:12:59Z</time>
      </trkpt>
      <trkpt lat="41.655685000" lon="2.639925100">
        <ele>152.50</ele>
        <time>2012-04-22T10:13:10Z</time>
      </trkpt>
      <trkpt lat="41.655693000" lon="2.639854100">
        <ele>153.00</ele>
        <time>2012-04-22T10:13:13Z</time>
      </trkpt>
      <trkpt lat="41.655727000" lon="2.639740100">
        <ele>154.90</ele>
        <time>2012-04-22T10:13:22Z</time>
      </trkpt>
      <trkpt lat="41.655773000" lon="2.639679100">
        <ele>155.90</ele>
        <time>2012-04-22T10:13:29Z</time>
      </trkpt>
      <trkpt lat="41.655827000" lon="2.639659100">
        <ele>156.80</ele>
        <time>2012-04-22T10:13:34Z</time>
      </trkpt>
      <trkpt lat="41.655869000" lon="2.639623100">
        <ele>156.80</ele>
        <time>2012-04-22T10:13:36Z</time>
      </trkpt>
      <trkpt lat="41.655979000" lon="2.639590100">
        <ele>157.30</ele>
        <time>2012-04-22T10:13:45Z</time>
      </trkpt>
      <trkpt lat="41.656136000" lon="2.639545100">
        <ele>157.80</ele>
        <time>2012-04-22T10:13:52Z</time>
      </trkpt>
      <trkpt lat="41.656326000" lon="2.639466100">
        <ele>158.80</ele>
        <time>2012-04-22T10:14:04Z</time>
      </trkpt>
      <trkpt lat="41.656433000" lon="2.639349100">
        <ele>159.20</ele>
        <time>2012-04-22T10:14:11Z</time>
      </trkpt>
      <trkpt lat="41.656536000" lon="2.639258100">
        <ele>160.20</ele>
        <time>2012-04-22T10:14:18Z</time>
      </trkpt>
      <trkpt lat="41.656658000" lon="2.639144100">
        <ele>161.20</ele>
        <time>2012-04-22T10:14:26Z</time>
      </trkpt>
      <trkpt lat="41.656677000" lon="2.639114100">
        <ele>161.60</ele>
        <time>2012-04-22T10:14:28Z</time>
      </trkpt>
      <trkpt lat="41.656727000" lon="2.639058100">
        <ele>161.60</ele>
        <time>2012-04-22T10:14:33Z</time>
      </trkpt>
      <trkpt lat="41.656757000" lon="2.638923100">
        <ele>162.10</ele>
        <time>2012-04-22T10:14:40Z</time>
      </trkpt>
      <trkpt lat="41.656754000" lon="2.638886100">
        <ele>162.60</ele>
        <time>2012-04-22T10:14:46Z</time>
      </trkpt>
      <trkpt lat="41.656757000" lon="2.638890100">
        <ele>163.10</ele>
        <time>2012-04-22T10:14:56Z</time>
      </trkpt>
      <trkpt lat="41.656754000" lon="2.638865100">
        <ele>163.60</ele>
        <time>2012-04-22T10:15:03Z</time>
      </trkpt>
      <trkpt lat="41.656754000" lon="2.638856100">
        <ele>163.60</ele>
        <time>2012-04-22T10:15:12Z</time>
      </trkpt>
      <trkpt lat="41.656765000" lon="2.638797100">
        <ele>163.60</ele>
        <time>2012-04-22T10:15:19Z</time>
      </trkpt>
      <trkpt lat="41.656765000" lon="2.638778100">
        <ele>163.60</ele>
        <time>2012-04-22T10:15:26Z</time>
      </trkpt>
      <trkpt lat="41.656757000" lon="2.638717100">
        <ele>164.50</ele>
        <time>2012-04-22T10:15:33Z</time>
      </trkpt>
      <trkpt lat="41.656757000" lon="2.638712100">
        <ele>164.00</ele>
        <time>2012-04-22T10:15:41Z</time>
      </trkpt>
      <trkpt lat="41.656761000" lon="2.638705100">
        <ele>164.00</ele>
        <time>2012-04-22T10:15:57Z</time>
      </trkpt>
      <trkpt lat="41.656757000" lon="2.638699100">
        <ele>164.00</ele>
        <time>2012-04-22T10:16:06Z</time>
      </trkpt>
      <trkpt lat="41.656761000" lon="2.638701100">
        <ele>164.00</ele>
        <time>2012-04-22T10:16:13Z</time>
      </trkpt>
      <trkpt lat="41.656761000" lon="2.638701100">
        <ele>164.00</ele>
        <time>2012-04-22T10:16:23Z</time>
      </trkpt>
      <trkpt lat="41.656765000" lon="2.638696100">
        <ele>165.00</ele>
        <time>2012-04-22T10:16:51Z</time>
      </trkpt>
      <trkpt lat="41.656769000" lon="2.638685100">
        <ele>165.00</ele>
        <time>2012-04-22T10:17:33Z</time>
      </trkpt>
      <trkpt lat="41.656769000" lon="2.638675100">
        <ele>165.00</ele>
        <time>2012-04-22T10:18:18Z</time>
      </trkpt>
      <trkpt lat="41.656773000" lon="2.638665100">
        <ele>165.00</ele>
        <time>2012-04-22T10:18:48Z</time>
      </trkpt>
      <trkpt lat="41.656769000" lon="2.638659100">
        <ele>165.00</ele>
        <time>2012-04-22T10:19:33Z</time>
      </trkpt>
      <trkpt lat="41.656773000" lon="2.638660100">
        <ele>165.00</ele>
        <time>2012-04-22T10:19:40Z</time>
      </trkpt>
      <trkpt lat="41.656776000" lon="2.638654100">
        <ele>165.00</ele>
        <time>2012-04-22T10:20:11Z</time>
      </trkpt>
      <trkpt lat="41.656776000" lon="2.638647100">
        <ele>165.00</ele>
        <time>2012-04-22T10:20:53Z</time>
      </trkpt>
      <trkpt lat="41.656776000" lon="2.638647100">
        <ele>165.00</ele>
        <time>2012-04-22T10:21:19Z</time>
      </trkpt>
      <trkpt lat="41.656776000" lon="2.638642100">
        <ele>163.60</ele>
        <time>2012-04-22T10:21:33Z</time>
      </trkpt>
      <trkpt lat="41.656776000" lon="2.638649100">
        <ele>163.60</ele>
        <time>2012-04-22T10:22:13Z</time>
      </trkpt>
      <trkpt lat="41.656780000" lon="2.638649100">
        <ele>163.60</ele>
        <time>2012-04-22T10:23:00Z</time>
      </trkpt>
      <trkpt lat="41.656776000" lon="2.638652100">
        <ele>163.60</ele>
        <time>2012-04-22T10:23:30Z</time>
      </trkpt>
      <trkpt lat="41.656780000" lon="2.638645100">
        <ele>163.60</ele>
        <time>2012-04-22T10:24:15Z</time>
      </trkpt>
      <trkpt lat="41.656780000" lon="2.638655100">
        <ele>163.60</ele>
        <time>2012-04-22T10:24:59Z</time>
      </trkpt>
      <trkpt lat="41.656776000" lon="2.638649100">
        <ele>163.60</ele>
        <time>2012-04-22T10:25:32Z</time>
      </trkpt>
      <trkpt lat="41.656776000" lon="2.638655100">
        <ele>163.60</ele>
        <time>2012-04-22T10:27:39Z</time>
      </trkpt>
      <trkpt lat="41.656773000" lon="2.638651100">
        <ele>163.60</ele>
        <time>2012-04-22T10:28:16Z</time>
      </trkpt>
      <trkpt lat="41.656773000" lon="2.638669100">
        <ele>163.60</ele>
        <time>2012-04-22T10:29:43Z</time>
      </trkpt>
      <trkpt lat="41.656773000" lon="2.638664100">
        <ele>163.60</ele>
        <time>2012-04-22T10:29:50Z</time>
      </trkpt>
      <trkpt lat="41.656776000" lon="2.638673100">
        <ele>163.60</ele>
        <time>2012-04-22T10:30:07Z</time>
      </trkpt>
      <trkpt lat="41.656776000" lon="2.638673100">
        <ele>163.60</ele>
        <time>2012-04-22T10:30:21Z</time>
      </trkpt>
      <trkpt lat="41.656773000" lon="2.638675100">
        <ele>163.10</ele>
        <time>2012-04-22T10:31:15Z</time>
      </trkpt>
      <trkpt lat="41.656776000" lon="2.638671100">
        <ele>163.10</ele>
        <time>2012-04-22T10:31:27Z</time>
      </trkpt>
      <trkpt lat="41.656776000" lon="2.638671100">
        <ele>163.10</ele>
        <time>2012-04-22T10:32:59Z</time>
      </trkpt>
      <trkpt lat="41.656780000" lon="2.638674100">
        <ele>162.60</ele>
        <time>2012-04-22T10:33:17Z</time>
      </trkpt>
      <trkpt lat="41.656788000" lon="2.638670100">
        <ele>162.60</ele>
        <time>2012-04-22T10:33:36Z</time>
      </trkpt>
      <trkpt lat="41.656773000" lon="2.638672100">
        <ele>162.10</ele>
        <time>2012-04-22T10:34:58Z</time>
      </trkpt>
      <trkpt lat="41.656773000" lon="2.638670100">
        <ele>162.10</ele>
        <time>2012-04-22T10:35:14Z</time>
      </trkpt>
      <trkpt lat="41.656776000" lon="2.638671100">
        <ele>162.10</ele>
        <time>2012-04-22T10:35:43Z</time>
      </trkpt>
      <trkpt lat="41.656776000" lon="2.638664100">
        <ele>162.10</ele>
        <time>2012-04-22T10:36:48Z</time>
      </trkpt>
      <trkpt lat="41.656773000" lon="2.638663100">
        <ele>162.10</ele>
        <time>2012-04-22T10:37:31Z</time>
      </trkpt>
      <trkpt lat="41.656773000" lon="2.638654100">
        <ele>162.10</ele>
        <time>2012-04-22T10:39:00Z</time>
      </trkpt>
      <trkpt lat="41.656769000" lon="2.638653100">
        <ele>162.10</ele>
        <time>2012-04-22T10:40:24Z</time>
      </trkpt>
      <trkpt lat="41.656773000" lon="2.638655100">
        <ele>162.10</ele>
        <time>2012-04-22T10:40:53Z</time>
      </trkpt>
      <trkpt lat="41.656776000" lon="2.638679100">
        <ele>162.10</ele>
        <time>2012-04-22T10:41:33Z</time>
      </trkpt>
      <trkpt lat="41.656780000" lon="2.638684100">
        <ele>162.10</ele>
        <time>2012-04-22T10:41:37Z</time>
      </trkpt>
      <trkpt lat="41.656796000" lon="2.638753100">
        <ele>162.10</ele>
        <time>2012-04-22T10:41:44Z</time>
      </trkpt>
      <trkpt lat="41.656792000" lon="2.638787100">
        <ele>162.10</ele>
        <time>2012-04-22T10:41:51Z</time>
      </trkpt>
      <trkpt lat="41.656788000" lon="2.638847100">
        <ele>162.10</ele>
        <time>2012-04-22T10:42:00Z</time>
      </trkpt>
      <trkpt lat="41.656799000" lon="2.638897100">
        <ele>161.60</ele>
        <time>2012-04-22T10:42:05Z</time>
      </trkpt>
      <trkpt lat="41.656773000" lon="2.638955100">
        <ele>161.60</ele>
        <time>2012-04-22T10:42:10Z</time>
      </trkpt>
      <trkpt lat="41.656693000" lon="2.639057100">
        <ele>161.20</ele>
        <time>2012-04-22T10:42:17Z</time>
      </trkpt>
      <trkpt lat="41.656612000" lon="2.639136100">
        <ele>160.70</ele>
        <time>2012-04-22T10:42:24Z</time>
      </trkpt>
      <trkpt lat="41.656475000" lon="2.639285100">
        <ele>159.70</ele>
        <time>2012-04-22T10:42:33Z</time>
      </trkpt>
      <trkpt lat="41.656448000" lon="2.639325100">
        <ele>158.80</ele>
        <time>2012-04-22T10:42:36Z</time>
      </trkpt>
      <trkpt lat="41.656315000" lon="2.639391100">
        <ele>158.30</ele>
        <time>2012-04-22T10:42:43Z</time>
      </trkpt>
      <trkpt lat="41.656258000" lon="2.639411100">
        <ele>157.30</ele>
        <time>2012-04-22T10:42:50Z</time>
      </trkpt>
      <trkpt lat="41.656246000" lon="2.639414100">
        <ele>156.40</ele>
        <time>2012-04-22T10:43:06Z</time>
      </trkpt>
      <trkpt lat="41.656136000" lon="2.639448100">
        <ele>156.40</ele>
        <time>2012-04-22T10:43:13Z</time>
      </trkpt>
      <trkpt lat="41.656033000" lon="2.639499100">
        <ele>156.40</ele>
        <time>2012-04-22T10:43:20Z</time>
      </trkpt>
      <trkpt lat="41.655899000" lon="2.639556100">
        <ele>156.40</ele>
        <time>2012-04-22T10:43:27Z</time>
      </trkpt>
      <trkpt lat="41.655811000" lon="2.639663100">
        <ele>156.40</ele>
        <time>2012-04-22T10:43:32Z</time>
      </trkpt>
      <trkpt lat="41.655800000" lon="2.639687100">
        <ele>155.90</ele>
        <time>2012-04-22T10:43:35Z</time>
      </trkpt>
      <trkpt lat="41.655781000" lon="2.639840100">
        <ele>154.40</ele>
        <time>2012-04-22T10:43:41Z</time>
      </trkpt>
      <trkpt lat="41.655743000" lon="2.640015100">
        <ele>152.00</ele>
        <time>2012-04-22T10:43:46Z</time>
      </trkpt>
      <trkpt lat="41.655701000" lon="2.640111100">
        <ele>149.10</ele>
        <time>2012-04-22T10:43:49Z</time>
      </trkpt>
      <trkpt lat="41.655659000" lon="2.640157100">
        <ele>148.20</ele>
        <time>2012-04-22T10:43:56Z</time>
      </trkpt>
      <trkpt lat="41.655624000" lon="2.640222100">
        <ele>148.20</ele>
        <time>2012-04-22T10:44:12Z</time>
      </trkpt>
      <trkpt lat="41.655613000" lon="2.640239100">
        <ele>148.20</ele>
        <time>2012-04-22T10:44:19Z</time>
      </trkpt>
      <trkpt lat="41.655586000" lon="2.640268100">
        <ele>148.20</ele>
        <time>2012-04-22T10:44:21Z</time>
      </trkpt>
      <trkpt lat="41.655457000" lon="2.640360100">
        <ele>148.20</ele>
        <time>2012-04-22T10:44:26Z</time>
      </trkpt>
      <trkpt lat="41.655262000" lon="2.640391100">
        <ele>147.70</ele>
        <time>2012-04-22T10:44:31Z</time>
      </trkpt>
      <trkpt lat="41.655159000" lon="2.640377100">
        <ele>144.30</ele>
        <time>2012-04-22T10:44:35Z</time>
      </trkpt>
      <trkpt lat="41.655025000" lon="2.640359100">
        <ele>141.00</ele>
        <time>2012-04-22T10:44:38Z</time>
      </trkpt>
      <trkpt lat="41.654926000" lon="2.640352100">
        <ele>137.10</ele>
        <time>2012-04-22T10:44:40Z</time>
      </trkpt>
      <trkpt lat="41.654797000" lon="2.640420100">
        <ele>134.70</ele>
        <time>2012-04-22T10:44:45Z</time>
      </trkpt>
      <trkpt lat="41.654778000" lon="2.640440100">
        <ele>133.80</ele>
        <time>2012-04-22T10:44:47Z</time>
      </trkpt>
      <trkpt lat="41.654697000" lon="2.640519100">
        <ele>133.30</ele>
        <time>2012-04-22T10:44:52Z</time>
      </trkpt>
      <trkpt lat="41.654640000" lon="2.640596100">
        <ele>132.80</ele>
        <time>2012-04-22T10:44:59Z</time>
      </trkpt>
      <trkpt lat="41.654617000" lon="2.640649100">
        <ele>131.40</ele>
        <time>2012-04-22T10:45:04Z</time>
      </trkpt>
      <trkpt lat="41.654583000" lon="2.640780100">
        <ele>131.40</ele>
        <time>2012-04-22T10:45:09Z</time>
      </trkpt>
      <trkpt lat="41.654526000" lon="2.640874100">
        <ele>129.40</ele>
        <time>2012-04-22T10:45:16Z</time>
      </trkpt>
      <trkpt lat="41.654491000" lon="2.640903100">
        <ele>128.90</ele>
        <time>2012-04-22T10:45:18Z</time>
      </trkpt>
      <trkpt lat="41.654469000" lon="2.640968100">
        <ele>127.00</ele>
        <time>2012-04-22T10:45:22Z</time>
      </trkpt>
      <trkpt lat="41.654404000" lon="2.641119100">
        <ele>124.60</ele>
        <time>2012-04-22T10:45:29Z</time>
      </trkpt>
      <trkpt lat="41.654396000" lon="2.641173100">
        <ele>124.20</ele>
        <time>2012-04-22T10:45:30Z</time>
      </trkpt>
      <trkpt lat="41.654369000" lon="2.641228100">
        <ele>123.70</ele>
        <time>2012-04-22T10:45:34Z</time>
      </trkpt>
      <trkpt lat="41.654331000" lon="2.641421100">
        <ele>123.70</ele>
        <time>2012-04-22T10:45:39Z</time>
      </trkpt>
      <trkpt lat="41.654270000" lon="2.641806100">
        <ele>124.60</ele>
        <time>2012-04-22T10:45:48Z</time>
      </trkpt>
      <trkpt lat="41.654255000" lon="2.641892100">
        <ele>124.60</ele>
        <time>2012-04-22T10:45:51Z</time>
      </trkpt>
      <trkpt lat="41.654217000" lon="2.642038100">
        <ele>124.60</ele>
        <time>2012-04-22T10:45:55Z</time>
      </trkpt>
      <trkpt lat="41.654137000" lon="2.642080100">
        <ele>124.60</ele>
        <time>2012-04-22T10:45:58Z</time>
      </trkpt>
      <trkpt lat="41.654018000" lon="2.642155100">
        <ele>124.60</ele>
        <time>2012-04-22T10:46:07Z</time>
      </trkpt>
      <trkpt lat="41.653950000" lon="2.642180100">
        <ele>124.60</ele>
        <time>2012-04-22T10:46:12Z</time>
      </trkpt>
      <trkpt lat="41.653889000" lon="2.642192100">
        <ele>122.70</ele>
        <time>2012-04-22T10:46:16Z</time>
      </trkpt>
      <trkpt lat="41.653751000" lon="2.642248100">
        <ele>120.30</ele>
        <time>2012-04-22T10:46:21Z</time>
      </trkpt>
      <trkpt lat="41.653625000" lon="2.642419100">
        <ele>116.50</ele>
        <time>2012-04-22T10:46:26Z</time>
      </trkpt>
      <trkpt lat="41.653545000" lon="2.642616100">
        <ele>113.60</ele>
        <time>2012-04-22T10:46:29Z</time>
      </trkpt>
      <trkpt lat="41.653412000" lon="2.642842100">
        <ele>113.10</ele>
        <time>2012-04-22T10:46:33Z</time>
      </trkpt>
      <trkpt lat="41.653286000" lon="2.643088100">
        <ele>113.10</ele>
        <time>2012-04-22T10:46:38Z</time>
      </trkpt>
      <trkpt lat="41.653130000" lon="2.643533100">
        <ele>113.10</ele>
        <time>2012-04-22T10:46:45Z</time>
      </trkpt>
      <trkpt lat="41.653053000" lon="2.643773100">
        <ele>114.10</ele>
        <time>2012-04-22T10:46:52Z</time>
      </trkpt>
      <trkpt lat="41.653030000" lon="2.643841100">
        <ele>114.10</ele>
        <time>2012-04-22T10:46:56Z</time>
      </trkpt>
      <trkpt lat="41.652988000" lon="2.644024100">
        <ele>115.00</ele>
        <time>2012-04-22T10:47:03Z</time>
      </trkpt>
      <trkpt lat="41.652958000" lon="2.644166100">
        <ele>115.00</ele>
        <time>2012-04-22T10:47:08Z</time>
      </trkpt>
      <trkpt lat="41.652905000" lon="2.644338100">
        <ele>113.10</ele>
        <time>2012-04-22T10:47:13Z</time>
      </trkpt>
      <trkpt lat="41.652878000" lon="2.644459100">
        <ele>109.70</ele>
        <time>2012-04-22T10:47:18Z</time>
      </trkpt>
      <trkpt lat="41.652870000" lon="2.644502100">
        <ele>107.80</ele>
        <time>2012-04-22T10:47:22Z</time>
      </trkpt>
      <trkpt lat="41.652870000" lon="2.644504100">
        <ele>107.80</ele>
        <time>2012-04-22T10:47:32Z</time>
      </trkpt>
      <trkpt lat="41.652843000" lon="2.644588100">
        <ele>107.80</ele>
        <time>2012-04-22T10:47:37Z</time>
      </trkpt>
      <trkpt lat="41.652813000" lon="2.644839100">
        <ele>107.80</ele>
        <time>2012-04-22T10:47:44Z</time>
      </trkpt>
      <trkpt lat="41.652809000" lon="2.644956100">
        <ele>107.80</ele>
        <time>2012-04-22T10:47:50Z</time>
      </trkpt>
      <trkpt lat="41.652813000" lon="2.645086100">
        <ele>107.80</ele>
        <time>2012-04-22T10:47:53Z</time>
      </trkpt>
      <trkpt lat="41.652805000" lon="2.645301100">
        <ele>108.80</ele>
        <time>2012-04-22T10:48:00Z</time>
      </trkpt>
      <trkpt lat="41.652798000" lon="2.645588100">
        <ele>109.70</ele>
        <time>2012-04-22T10:48:09Z</time>
      </trkpt>
      <trkpt lat="41.652828000" lon="2.645838100">
        <ele>111.70</ele>
        <time>2012-04-22T10:48:16Z</time>
      </trkpt>
      <trkpt lat="41.652908000" lon="2.646112100">
        <ele>113.10</ele>
        <time>2012-04-22T10:48:26Z</time>
      </trkpt>
      <trkpt lat="41.652920000" lon="2.646317100">
        <ele>114.10</ele>
        <time>2012-04-22T10:48:33Z</time>
      </trkpt>
      <trkpt lat="41.652843000" lon="2.646541100">
        <ele>115.00</ele>
        <time>2012-04-22T10:48:40Z</time>
      </trkpt>
      <trkpt lat="41.652779000" lon="2.646800100">
        <ele>116.50</ele>
        <time>2012-04-22T10:48:49Z</time>
      </trkpt>
      <trkpt lat="41.652737000" lon="2.646998100">
        <ele>116.90</ele>
        <time>2012-04-22T10:48:56Z</time>
      </trkpt>
      <trkpt lat="41.652691000" lon="2.647195100">
        <ele>116.90</ele>
        <time>2012-04-22T10:49:03Z</time>
      </trkpt>
      <trkpt lat="41.652618000" lon="2.647372100">
        <ele>115.50</ele>
        <time>2012-04-22T10:49:08Z</time>
      </trkpt>
      <trkpt lat="41.652527000" lon="2.647528100">
        <ele>112.10</ele>
        <time>2012-04-22T10:49:13Z</time>
      </trkpt>
      <trkpt lat="41.652477000" lon="2.647601100">
        <ele>108.30</ele>
        <time>2012-04-22T10:49:17Z</time>
      </trkpt>
      <trkpt lat="41.652466000" lon="2.647623100">
        <ele>107.30</ele>
        <time>2012-04-22T10:49:17Z</time>
      </trkpt>
      <trkpt lat="41.652443000" lon="2.647816100">
        <ele>104.40</ele>
        <time>2012-04-22T10:49:24Z</time>
      </trkpt>
      <trkpt lat="41.652386000" lon="2.647907100">
        <ele>104.40</ele>
        <time>2012-04-22T10:49:27Z</time>
      </trkpt>
      <trkpt lat="41.652267000" lon="2.647999100">
        <ele>104.00</ele>
        <time>2012-04-22T10:49:34Z</time>
      </trkpt>
      <trkpt lat="41.652115000" lon="2.648103100">
        <ele>102.50</ele>
        <time>2012-04-22T10:49:41Z</time>
      </trkpt>
      <trkpt lat="41.651928000" lon="2.648120100">
        <ele>101.60</ele>
        <time>2012-04-22T10:49:50Z</time>
      </trkpt>
      <trkpt lat="41.651714000" lon="2.648139100">
        <ele>100.60</ele>
        <time>2012-04-22T10:49:57Z</time>
      </trkpt>
      <trkpt lat="41.651573000" lon="2.648175100">
        <ele>99.60</ele>
        <time>2012-04-22T10:50:02Z</time>
      </trkpt>
      <trkpt lat="41.651497000" lon="2.648205100">
        <ele>95.80</ele>
        <time>2012-04-22T10:50:07Z</time>
      </trkpt>
      <trkpt lat="41.651474000" lon="2.648210100">
        <ele>94.80</ele>
        <time>2012-04-22T10:50:07Z</time>
      </trkpt>
      <trkpt lat="41.651390000" lon="2.648313100">
        <ele>90.50</ele>
        <time>2012-04-22T10:50:12Z</time>
      </trkpt>
      <trkpt lat="41.651329000" lon="2.648472100">
        <ele>89.50</ele>
        <time>2012-04-22T10:50:18Z</time>
      </trkpt>
      <trkpt lat="41.651321000" lon="2.648549100">
        <ele>89.50</ele>
        <time>2012-04-22T10:50:25Z</time>
      </trkpt>
      <trkpt lat="41.651318000" lon="2.648559100">
        <ele>89.10</ele>
        <time>2012-04-22T10:50:26Z</time>
      </trkpt>
      <trkpt lat="41.651318000" lon="2.648587100">
        <ele>89.10</ele>
        <time>2012-04-22T10:50:28Z</time>
      </trkpt>
      <trkpt lat="41.651325000" lon="2.648643100">
        <ele>88.10</ele>
        <time>2012-04-22T10:50:35Z</time>
      </trkpt>
      <trkpt lat="41.651337000" lon="2.648729100">
        <ele>87.60</ele>
        <time>2012-04-22T10:50:42Z</time>
      </trkpt>
      <trkpt lat="41.651360000" lon="2.648792100">
        <ele>86.20</ele>
        <time>2012-04-22T10:50:51Z</time>
      </trkpt>
      <trkpt lat="41.651344000" lon="2.648842100">
        <ele>85.70</ele>
        <time>2012-04-22T10:50:58Z</time>
      </trkpt>
      <trkpt lat="41.651340000" lon="2.648852100">
        <ele>85.70</ele>
        <time>2012-04-22T10:51:10Z</time>
      </trkpt>
      <trkpt lat="41.651318000" lon="2.648889100">
        <ele>85.70</ele>
        <time>2012-04-22T10:51:17Z</time>
      </trkpt>
      <trkpt lat="41.651211000" lon="2.648957100">
        <ele>85.70</ele>
        <time>2012-04-22T10:51:24Z</time>
      </trkpt>
      <trkpt lat="41.651150000" lon="2.649047100">
        <ele>85.20</ele>
        <time>2012-04-22T10:51:29Z</time>
      </trkpt>
      <trkpt lat="41.651047000" lon="2.649273100">
        <ele>85.20</ele>
        <time>2012-04-22T10:51:36Z</time>
      </trkpt>
      <trkpt lat="41.650997000" lon="2.649481100">
        <ele>86.20</ele>
        <time>2012-04-22T10:51:43Z</time>
      </trkpt>
      <trkpt lat="41.650928000" lon="2.649705100">
        <ele>86.20</ele>
        <time>2012-04-22T10:51:50Z</time>
      </trkpt>
      <trkpt lat="41.650871000" lon="2.650018100">
        <ele>86.20</ele>
        <time>2012-04-22T10:51:57Z</time>
      </trkpt>
      <trkpt lat="41.650856000" lon="2.650308100">
        <ele>82.80</ele>
        <time>2012-04-22T10:52:02Z</time>
      </trkpt>
      <trkpt lat="41.650890000" lon="2.650630100">
        <ele>79.00</ele>
        <time>2012-04-22T10:52:06Z</time>
      </trkpt>
      <trkpt lat="41.650879000" lon="2.650897100">
        <ele>79.40</ele>
        <time>2012-04-22T10:52:11Z</time>
      </trkpt>
      <trkpt lat="41.650871000" lon="2.651020100">
        <ele>82.80</ele>
        <time>2012-04-22T10:52:13Z</time>
      </trkpt>
      <trkpt lat="41.650848000" lon="2.651163100">
        <ele>85.70</ele>
        <time>2012-04-22T10:52:18Z</time>
      </trkpt>
      <trkpt lat="41.650829000" lon="2.651252100">
        <ele>86.20</ele>
        <time>2012-04-22T10:52:21Z</time>
      </trkpt>
      <trkpt lat="41.650814000" lon="2.651548100">
        <ele>84.70</ele>
        <time>2012-04-22T10:52:30Z</time>
      </trkpt>
      <trkpt lat="41.650810000" lon="2.651813100">
        <ele>84.70</ele>
        <time>2012-04-22T10:52:35Z</time>
      </trkpt>
      <trkpt lat="41.650772000" lon="2.651989100">
        <ele>83.30</ele>
        <time>2012-04-22T10:52:39Z</time>
      </trkpt>
      <trkpt lat="41.650734000" lon="2.652094100">
        <ele>82.30</ele>
        <time>2012-04-22T10:52:42Z</time>
      </trkpt>
      <trkpt lat="41.650669000" lon="2.652435100">
        <ele>78.00</ele>
        <time>2012-04-22T10:52:46Z</time>
      </trkpt>
      <trkpt lat="41.650650000" lon="2.652792100">
        <ele>76.60</ele>
        <time>2012-04-22T10:52:51Z</time>
      </trkpt>
      <trkpt lat="41.650665000" lon="2.653006100">
        <ele>76.60</ele>
        <time>2012-04-22T10:52:54Z</time>
      </trkpt>
      <trkpt lat="41.650829000" lon="2.653292100">
        <ele>76.60</ele>
        <time>2012-04-22T10:53:00Z</time>
      </trkpt>
      <trkpt lat="41.650871000" lon="2.653313100">
        <ele>76.60</ele>
        <time>2012-04-22T10:53:01Z</time>
      </trkpt>
      <trkpt lat="41.651127000" lon="2.653340100">
        <ele>78.00</ele>
        <time>2012-04-22T10:53:08Z</time>
      </trkpt>
      <trkpt lat="41.651276000" lon="2.653289100">
        <ele>78.00</ele>
        <time>2012-04-22T10:53:14Z</time>
      </trkpt>
      <trkpt lat="41.651375000" lon="2.653285100">
        <ele>78.00</ele>
        <time>2012-04-22T10:53:21Z</time>
      </trkpt>
      <trkpt lat="41.651550000" lon="2.653294100">
        <ele>78.00</ele>
        <time>2012-04-22T10:53:28Z</time>
      </trkpt>
      <trkpt lat="41.651768000" lon="2.653329100">
        <ele>79.00</ele>
        <time>2012-04-22T10:53:36Z</time>
      </trkpt>
      <trkpt lat="41.651939000" lon="2.653475100">
        <ele>79.90</ele>
        <time>2012-04-22T10:53:43Z</time>
      </trkpt>
      <trkpt lat="41.652061000" lon="2.653674100">
        <ele>80.40</ele>
        <time>2012-04-22T10:53:50Z</time>
      </trkpt>
      <trkpt lat="41.652184000" lon="2.653964100">
        <ele>81.40</ele>
        <time>2012-04-22T10:53:57Z</time>
      </trkpt>
      <trkpt lat="41.652344000" lon="2.654117100">
        <ele>81.40</ele>
        <time>2012-04-22T10:54:02Z</time>
      </trkpt>
      <trkpt lat="41.652729000" lon="2.654450100">
        <ele>81.40</ele>
        <time>2012-04-22T10:54:11Z</time>
      </trkpt>
      <trkpt lat="41.652905000" lon="2.654731100">
        <ele>79.90</ele>
        <time>2012-04-22T10:54:15Z</time>
      </trkpt>
      <trkpt lat="41.653019000" lon="2.655211100">
        <ele>76.10</ele>
        <time>2012-04-22T10:54:20Z</time>
      </trkpt>
      <trkpt lat="41.653114000" lon="2.655482100">
        <ele>74.20</ele>
        <time>2012-04-22T10:54:23Z</time>
      </trkpt>
      <trkpt lat="41.653492000" lon="2.656180100">
        <ele>72.20</ele>
        <time>2012-04-22T10:54:30Z</time>
      </trkpt>
      <trkpt lat="41.653599000" lon="2.656340100">
        <ele>72.20</ele>
        <time>2012-04-22T10:54:32Z</time>
      </trkpt>
      <trkpt lat="41.653664000" lon="2.656746100">
        <ele>71.80</ele>
        <time>2012-04-22T10:54:37Z</time>
      </trkpt>
      <trkpt lat="41.653576000" lon="2.656948100">
        <ele>71.30</ele>
        <time>2012-04-22T10:54:39Z</time>
      </trkpt>
      <trkpt lat="41.653374000" lon="2.657364100">
        <ele>70.80</ele>
        <time>2012-04-22T10:54:44Z</time>
      </trkpt>
      <trkpt lat="41.653328000" lon="2.657673100">
        <ele>70.80</ele>
        <time>2012-04-22T10:54:49Z</time>
      </trkpt>
      <trkpt lat="41.653332000" lon="2.657721100">
        <ele>70.80</ele>
        <time>2012-04-22T10:54:51Z</time>
      </trkpt>
      <trkpt lat="41.653343000" lon="2.657943100">
        <ele>70.80</ele>
        <time>2012-04-22T10:54:55Z</time>
      </trkpt>
      <trkpt lat="41.653324000" lon="2.658056100">
        <ele>70.80</ele>
        <time>2012-04-22T10:54:56Z</time>
      </trkpt>
      <trkpt lat="41.653187000" lon="2.658259100">
        <ele>70.80</ele>
        <time>2012-04-22T10:55:02Z</time>
      </trkpt>
      <trkpt lat="41.653156000" lon="2.658293100">
        <ele>70.80</ele>
        <time>2012-04-22T10:55:02Z</time>
      </trkpt>
      <trkpt lat="41.653042000" lon="2.658608100">
        <ele>70.80</ele>
        <time>2012-04-22T10:55:10Z</time>
      </trkpt>
      <trkpt lat="41.652981000" lon="2.658882100">
        <ele>70.80</ele>
        <time>2012-04-22T10:55:16Z</time>
      </trkpt>
      <trkpt lat="41.652840000" lon="2.659117100">
        <ele>70.80</ele>
        <time>2012-04-22T10:55:21Z</time>
      </trkpt>
      <trkpt lat="41.652477000" lon="2.659601100">
        <ele>70.80</ele>
        <time>2012-04-22T10:55:28Z</time>
      </trkpt>
      <trkpt lat="41.652370000" lon="2.659742100">
        <ele>70.30</ele>
        <time>2012-04-22T10:55:31Z</time>
      </trkpt>
      <trkpt lat="41.652275000" lon="2.660115100">
        <ele>67.40</ele>
        <time>2012-04-22T10:55:35Z</time>
      </trkpt>
      <trkpt lat="41.652267000" lon="2.660330100">
        <ele>65.00</ele>
        <time>2012-04-22T10:55:36Z</time>
      </trkpt>
      <trkpt lat="41.652180000" lon="2.660754100">
        <ele>62.10</ele>
        <time>2012-04-22T10:55:40Z</time>
      </trkpt>
      <trkpt lat="41.652115000" lon="2.660951100">
        <ele>61.70</ele>
        <time>2012-04-22T10:55:42Z</time>
      </trkpt>
      <trkpt lat="41.651894000" lon="2.661346100">
        <ele>60.20</ele>
        <time>2012-04-22T10:55:47Z</time>
      </trkpt>
      <trkpt lat="41.651680000" lon="2.661955100">
        <ele>58.80</ele>
        <time>2012-04-22T10:55:52Z</time>
      </trkpt>
      <trkpt lat="41.651527000" lon="2.662462100">
        <ele>58.30</ele>
        <time>2012-04-22T10:55:59Z</time>
      </trkpt>
      <trkpt lat="41.651272000" lon="2.663077100">
        <ele>57.80</ele>
        <time>2012-04-22T10:56:06Z</time>
      </trkpt>
      <trkpt lat="41.651062000" lon="2.663457100">
        <ele>57.80</ele>
        <time>2012-04-22T10:56:13Z</time>
      </trkpt>
      <trkpt lat="41.650936000" lon="2.663864100">
        <ele>57.30</ele>
        <time>2012-04-22T10:56:18Z</time>
      </trkpt>
      <trkpt lat="41.650875000" lon="2.664577100">
        <ele>57.30</ele>
        <time>2012-04-22T10:56:27Z</time>
      </trkpt>
      <trkpt lat="41.650787000" lon="2.665433100">
        <ele>55.40</ele>
        <time>2012-04-22T10:56:36Z</time>
      </trkpt>
      <trkpt lat="41.650692000" lon="2.665996100">
        <ele>52.00</ele>
        <time>2012-04-22T10:56:41Z</time>
      </trkpt>
      <trkpt lat="41.650578000" lon="2.666371100">
        <ele>49.20</ele>
        <time>2012-04-22T10:56:46Z</time>
      </trkpt>
      <trkpt lat="41.650524000" lon="2.666979100">
        <ele>49.20</ele>
        <time>2012-04-22T10:56:53Z</time>
      </trkpt>
      <trkpt lat="41.650524000" lon="2.667555100">
        <ele>50.10</ele>
        <time>2012-04-22T10:57:00Z</time>
      </trkpt>
      <trkpt lat="41.650543000" lon="2.668006100">
        <ele>50.60</ele>
        <time>2012-04-22T10:57:05Z</time>
      </trkpt>
      <trkpt lat="41.650455000" lon="2.668319100">
        <ele>50.60</ele>
        <time>2012-04-22T10:57:09Z</time>
      </trkpt>
      <trkpt lat="41.650246000" lon="2.668644100">
        <ele>50.60</ele>
        <time>2012-04-22T10:57:14Z</time>
      </trkpt>
      <trkpt lat="41.649925000" lon="2.668936100">
        <ele>50.60</ele>
        <time>2012-04-22T10:57:21Z</time>
      </trkpt>
      <trkpt lat="41.649563000" lon="2.669319100">
        <ele>49.70</ele>
        <time>2012-04-22T10:57:26Z</time>
      </trkpt>
      <trkpt lat="41.649376000" lon="2.669621100">
        <ele>46.30</ele>
        <time>2012-04-22T10:57:30Z</time>
      </trkpt>
      <trkpt lat="41.649261000" lon="2.669846100">
        <ele>43.40</ele>
        <time>2012-04-22T10:57:33Z</time>
      </trkpt>
      <trkpt lat="41.649082000" lon="2.670537100">
        <ele>42.40</ele>
        <time>2012-04-22T10:57:42Z</time>
      </trkpt>
      <trkpt lat="41.649036000" lon="2.670771100">
        <ele>43.40</ele>
        <time>2012-04-22T10:57:45Z</time>
      </trkpt>
      <trkpt lat="41.648872000" lon="2.671292100">
        <ele>43.40</ele>
        <time>2012-04-22T10:57:54Z</time>
      </trkpt>
      <trkpt lat="41.648712000" lon="2.671663100">
        <ele>43.40</ele>
        <time>2012-04-22T10:57:59Z</time>
      </trkpt>
      <trkpt lat="41.648663000" lon="2.671771100">
        <ele>43.40</ele>
        <time>2012-04-22T10:58:01Z</time>
      </trkpt>
      <trkpt lat="41.648411000" lon="2.672106100">
        <ele>43.40</ele>
        <time>2012-04-22T10:58:08Z</time>
      </trkpt>
      <trkpt lat="41.648056000" lon="2.672465100">
        <ele>43.90</ele>
        <time>2012-04-22T10:58:15Z</time>
      </trkpt>
      <trkpt lat="41.647923000" lon="2.672633100">
        <ele>42.90</ele>
        <time>2012-04-22T10:58:18Z</time>
      </trkpt>
      <trkpt lat="41.647690000" lon="2.673203100">
        <ele>42.40</ele>
        <time>2012-04-22T10:58:27Z</time>
      </trkpt>
      <trkpt lat="41.647507000" lon="2.673743100">
        <ele>41.00</ele>
        <time>2012-04-22T10:58:32Z</time>
      </trkpt>
      <trkpt lat="41.647343000" lon="2.674525100">
        <ele>39.10</ele>
        <time>2012-04-22T10:58:41Z</time>
      </trkpt>
      <trkpt lat="41.647320000" lon="2.674619100">
        <ele>38.60</ele>
        <time>2012-04-22T10:58:43Z</time>
      </trkpt>
      <trkpt lat="41.647198000" lon="2.674915100">
        <ele>38.10</ele>
        <time>2012-04-22T10:58:46Z</time>
      </trkpt>
      <trkpt lat="41.647072000" lon="2.675124100">
        <ele>37.60</ele>
        <time>2012-04-22T10:58:50Z</time>
      </trkpt>
      <trkpt lat="41.646824000" lon="2.675396100">
        <ele>37.20</ele>
        <time>2012-04-22T10:58:55Z</time>
      </trkpt>
      <trkpt lat="41.646656000" lon="2.675520100">
        <ele>36.70</ele>
        <time>2012-04-22T10:58:59Z</time>
      </trkpt>
      <trkpt lat="41.646378000" lon="2.675658100">
        <ele>35.70</ele>
        <time>2012-04-22T10:59:06Z</time>
      </trkpt>
      <trkpt lat="41.646297000" lon="2.675710100">
        <ele>35.20</ele>
        <time>2012-04-22T10:59:07Z</time>
      </trkpt>
      <trkpt lat="41.646194000" lon="2.675816100">
        <ele>35.20</ele>
        <time>2012-04-22T10:59:11Z</time>
      </trkpt>
      <trkpt lat="41.646061000" lon="2.675939100">
        <ele>35.20</ele>
        <time>2012-04-22T10:59:14Z</time>
      </trkpt>
      <trkpt lat="41.645676000" lon="2.676163100">
        <ele>35.20</ele>
        <time>2012-04-22T10:59:23Z</time>
      </trkpt>
      <trkpt lat="41.645454000" lon="2.676267100">
        <ele>35.20</ele>
        <time>2012-04-22T10:59:28Z</time>
      </trkpt>
      <trkpt lat="41.644993000" lon="2.676350100">
        <ele>35.20</ele>
        <time>2012-04-22T10:59:35Z</time>
      </trkpt>
      <trkpt lat="41.644939000" lon="2.676357100">
        <ele>35.20</ele>
        <time>2012-04-22T10:59:37Z</time>
      </trkpt>
      <trkpt lat="41.644676000" lon="2.676260100">
        <ele>34.70</ele>
        <time>2012-04-22T10:59:42Z</time>
      </trkpt>
      <trkpt lat="41.644360000" lon="2.676265100">
        <ele>34.30</ele>
        <time>2012-04-22T10:59:47Z</time>
      </trkpt>
      <trkpt lat="41.644295000" lon="2.676284100">
        <ele>33.80</ele>
        <time>2012-04-22T10:59:47Z</time>
      </trkpt>
      <trkpt lat="41.643810000" lon="2.676548100">
        <ele>31.90</ele>
        <time>2012-04-22T10:59:56Z</time>
      </trkpt>
      <trkpt lat="41.643562000" lon="2.676713100">
        <ele>31.40</ele>
        <time>2012-04-22T11:00:01Z</time>
      </trkpt>
      <trkpt lat="41.643375000" lon="2.676947100">
        <ele>30.90</ele>
        <time>2012-04-22T11:00:06Z</time>
      </trkpt>
      <trkpt lat="41.643330000" lon="2.677073100">
        <ele>30.90</ele>
        <time>2012-04-22T11:00:08Z</time>
      </trkpt>
      <trkpt lat="41.643185000" lon="2.677640100">
        <ele>29.90</ele>
        <time>2012-04-22T11:00:17Z</time>
      </trkpt>
      <trkpt lat="41.643143000" lon="2.677785100">
        <ele>29.50</ele>
        <time>2012-04-22T11:00:19Z</time>
      </trkpt>
      <trkpt lat="41.642849000" lon="2.678453100">
        <ele>28.00</ele>
        <time>2012-04-22T11:00:29Z</time>
      </trkpt>
      <trkpt lat="41.642601000" lon="2.678944100">
        <ele>28.00</ele>
        <time>2012-04-22T11:00:36Z</time>
      </trkpt>
      <trkpt lat="41.642570000" lon="2.679001100">
        <ele>28.00</ele>
        <time>2012-04-22T11:00:38Z</time>
      </trkpt>
      <trkpt lat="41.642197000" lon="2.679522100">
        <ele>27.50</ele>
        <time>2012-04-22T11:00:48Z</time>
      </trkpt>
      <trkpt lat="41.641754000" lon="2.679966100">
        <ele>26.60</ele>
        <time>2012-04-22T11:00:57Z</time>
      </trkpt>
      <trkpt lat="41.641369000" lon="2.680124100">
        <ele>25.60</ele>
        <time>2012-04-22T11:01:04Z</time>
      </trkpt>
      <trkpt lat="41.640812000" lon="2.680206100">
        <ele>24.60</ele>
        <time>2012-04-22T11:01:13Z</time>
      </trkpt>
      <trkpt lat="41.640076000" lon="2.680282100">
        <ele>23.20</ele>
        <time>2012-04-22T11:01:25Z</time>
      </trkpt>
      <trkpt lat="41.639545000" lon="2.680272100">
        <ele>22.20</ele>
        <time>2012-04-22T11:01:35Z</time>
      </trkpt>
      <trkpt lat="41.639030000" lon="2.680401100">
        <ele>20.80</ele>
        <time>2012-04-22T11:01:44Z</time>
      </trkpt>
      <trkpt lat="41.638451000" lon="2.680545100">
        <ele>19.80</ele>
        <time>2012-04-22T11:01:53Z</time>
      </trkpt>
      <trkpt lat="41.637943000" lon="2.680588100">
        <ele>19.40</ele>
        <time>2012-04-22T11:02:03Z</time>
      </trkpt>
      <trkpt lat="41.637428000" lon="2.680629100">
        <ele>17.90</ele>
        <time>2012-04-22T11:02:12Z</time>
      </trkpt>
      <trkpt lat="41.636810000" lon="2.680807100">
        <ele>17.40</ele>
        <time>2012-04-22T11:02:22Z</time>
      </trkpt>
      <trkpt lat="41.636700000" lon="2.680841100">
        <ele>17.00</ele>
        <time>2012-04-22T11:02:24Z</time>
      </trkpt>
      <trkpt lat="41.636055000" lon="2.681013100">
        <ele>16.50</ele>
        <time>2012-04-22T11:02:36Z</time>
      </trkpt>
      <trkpt lat="41.635704000" lon="2.681112100">
        <ele>16.50</ele>
        <time>2012-04-22T11:02:42Z</time>
      </trkpt>
      <trkpt lat="41.635181000" lon="2.681346100">
        <ele>16.00</ele>
        <time>2012-04-22T11:02:50Z</time>
      </trkpt>
      <trkpt lat="41.634586000" lon="2.681624100">
        <ele>14.60</ele>
        <time>2012-04-22T11:03:01Z</time>
      </trkpt>
      <trkpt lat="41.634060000" lon="2.681875100">
        <ele>13.60</ele>
        <time>2012-04-22T11:03:11Z</time>
      </trkpt>
      <trkpt lat="41.633430000" lon="2.682127100">
        <ele>13.10</ele>
        <time>2012-04-22T11:03:20Z</time>
      </trkpt>
      <trkpt lat="41.632870000" lon="2.682311100">
        <ele>12.60</ele>
        <time>2012-04-22T11:03:30Z</time>
      </trkpt>
      <trkpt lat="41.632439000" lon="2.682242100">
        <ele>11.70</ele>
        <time>2012-04-22T11:03:37Z</time>
      </trkpt>
      <trkpt lat="41.631874000" lon="2.682036100">
        <ele>10.70</ele>
        <time>2012-04-22T11:03:46Z</time>
      </trkpt>
      <trkpt lat="41.631634000" lon="2.682002100">
        <ele>10.20</ele>
        <time>2012-04-22T11:03:51Z</time>
      </trkpt>
      <trkpt lat="41.631104000" lon="2.682114100">
        <ele>9.30</ele>
        <time>2012-04-22T11:04:00Z</time>
      </trkpt>
      <trkpt lat="41.630630000" lon="2.682369100">
        <ele>8.80</ele>
        <time>2012-04-22T11:04:09Z</time>
      </trkpt>
      <trkpt lat="41.630272000" lon="2.682566100">
        <ele>8.30</ele>
        <time>2012-04-22T11:04:16Z</time>
      </trkpt>
      <trkpt lat="41.629791000" lon="2.682717100">
        <ele>7.80</ele>
        <time>2012-04-22T11:04:24Z</time>
      </trkpt>
      <trkpt lat="41.629559000" lon="2.682713100">
        <ele>7.30</ele>
        <time>2012-04-22T11:04:28Z</time>
      </trkpt>
      <trkpt lat="41.628983000" lon="2.682612100">
        <ele>6.40</ele>
        <time>2012-04-22T11:04:38Z</time>
      </trkpt>
      <trkpt lat="41.628460000" lon="2.682667100">
        <ele>5.90</ele>
        <time>2012-04-22T11:04:47Z</time>
      </trkpt>
      <trkpt lat="41.627728000" lon="2.682747100">
        <ele>4.50</ele>
        <time>2012-04-22T11:05:01Z</time>
      </trkpt>
      <trkpt lat="41.627224000" lon="2.682766100">
        <ele>4.00</ele>
        <time>2012-04-22T11:05:10Z</time>
      </trkpt>
      <trkpt lat="41.626759000" lon="2.682720100">
        <ele>3.50</ele>
        <time>2012-04-22T11:05:18Z</time>
      </trkpt>
      <trkpt lat="41.626682000" lon="2.682696100">
        <ele>3.50</ele>
        <time>2012-04-22T11:05:20Z</time>
      </trkpt>
      <trkpt lat="41.626595000" lon="2.682652100">
        <ele>3.00</ele>
        <time>2012-04-22T11:05:22Z</time>
      </trkpt>
      <trkpt lat="41.626389000" lon="2.682640100">
        <ele>2.50</ele>
        <time>2012-04-22T11:05:27Z</time>
      </trkpt>
      <trkpt lat="41.626236000" lon="2.682522100">
        <ele>2.10</ele>
        <time>2012-04-22T11:05:30Z</time>
      </trkpt>
      <trkpt lat="41.626202000" lon="2.682434100">
        <ele>2.10</ele>
        <time>2012-04-22T11:05:32Z</time>
      </trkpt>
      <trkpt lat="41.626087000" lon="2.681981100">
        <ele>2.10</ele>
        <time>2012-04-22T11:05:41Z</time>
      </trkpt>
      <trkpt lat="41.626015000" lon="2.681709100">
        <ele>2.10</ele>
        <time>2012-04-22T11:05:48Z</time>
      </trkpt>
      <trkpt lat="41.625977000" lon="2.681569100">
        <ele>2.10</ele>
        <time>2012-04-22T11:05:50Z</time>
      </trkpt>
      <trkpt lat="41.625931000" lon="2.681413100">
        <ele>2.10</ele>
        <time>2012-04-22T11:05:53Z</time>
      </trkpt>
      <trkpt lat="41.625736000" lon="2.681174100">
        <ele>2.10</ele>
        <time>2012-04-22T11:06:00Z</time>
      </trkpt>
      <trkpt lat="41.625568000" lon="2.681194100">
        <ele>2.10</ele>
        <time>2012-04-22T11:06:04Z</time>
      </trkpt>
      <trkpt lat="41.625458000" lon="2.680995100">
        <ele>2.10</ele>
        <time>2012-04-22T11:06:07Z</time>
      </trkpt>
      <trkpt lat="41.625221000" lon="2.679966100">
        <ele>2.10</ele>
        <time>2012-04-22T11:06:23Z</time>
      </trkpt>
      <trkpt lat="41.625134000" lon="2.679318100">
        <ele>2.10</ele>
        <time>2012-04-22T11:06:31Z</time>
      </trkpt>
      <trkpt lat="41.625046000" lon="2.678470100">
        <ele>2.50</ele>
        <time>2012-04-22T11:06:42Z</time>
      </trkpt>
      <trkpt lat="41.624992000" lon="2.677914100">
        <ele>2.50</ele>
        <time>2012-04-22T11:06:51Z</time>
      </trkpt>
      <trkpt lat="41.624901000" lon="2.677188100">
        <ele>3.50</ele>
        <time>2012-04-22T11:07:01Z</time>
      </trkpt>
      <trkpt lat="41.624817000" lon="2.676812100">
        <ele>3.50</ele>
        <time>2012-04-22T11:07:06Z</time>
      </trkpt>
      <trkpt lat="41.624741000" lon="2.676606100">
        <ele>3.50</ele>
        <time>2012-04-22T11:07:08Z</time>
      </trkpt>
      <trkpt lat="41.624504000" lon="2.675871100">
        <ele>4.00</ele>
        <time>2012-04-22T11:07:18Z</time>
      </trkpt>
      <trkpt lat="41.624378000" lon="2.675629100">
        <ele>4.00</ele>
        <time>2012-04-22T11:07:22Z</time>
      </trkpt>
      <trkpt lat="41.624142000" lon="2.675144100">
        <ele>4.90</ele>
        <time>2012-04-22T11:07:31Z</time>
      </trkpt>
      <trkpt lat="41.624107000" lon="2.675000100">
        <ele>4.90</ele>
        <time>2012-04-22T11:07:32Z</time>
      </trkpt>
      <trkpt lat="41.624031000" lon="2.674558100">
        <ele>5.40</ele>
        <time>2012-04-22T11:07:38Z</time>
      </trkpt>
      <trkpt lat="41.623875000" lon="2.674465100">
        <ele>6.40</ele>
        <time>2012-04-22T11:07:41Z</time>
      </trkpt>
      <trkpt lat="41.623646000" lon="2.674351100">
        <ele>6.90</ele>
        <time>2012-04-22T11:07:46Z</time>
      </trkpt>
      <trkpt lat="41.623600000" lon="2.674289100">
        <ele>6.90</ele>
        <time>2012-04-22T11:07:46Z</time>
      </trkpt>
      <trkpt lat="41.623104000" lon="2.673464100">
        <ele>7.30</ele>
        <time>2012-04-22T11:07:57Z</time>
      </trkpt>
      <trkpt lat="41.622787000" lon="2.672941100">
        <ele>7.30</ele>
        <time>2012-04-22T11:08:04Z</time>
      </trkpt>
      <trkpt lat="41.622585000" lon="2.672289100">
        <ele>5.40</ele>
        <time>2012-04-22T11:08:11Z</time>
      </trkpt>
      <trkpt lat="41.622375000" lon="2.671340100">
        <ele>4.00</ele>
        <time>2012-04-22T11:08:21Z</time>
      </trkpt>
      <trkpt lat="41.622322000" lon="2.670877100">
        <ele>3.50</ele>
        <time>2012-04-22T11:08:26Z</time>
      </trkpt>
      <trkpt lat="41.622200000" lon="2.670549100">
        <ele>2.50</ele>
        <time>2012-04-22T11:08:30Z</time>
      </trkpt>
      <trkpt lat="41.621975000" lon="2.669588100">
        <ele>3.00</ele>
        <time>2012-04-22T11:08:42Z</time>
      </trkpt>
      <trkpt lat="41.621754000" lon="2.668950100">
        <ele>3.00</ele>
        <time>2012-04-22T11:08:49Z</time>
      </trkpt>
      <trkpt lat="41.621449000" lon="2.668173100">
        <ele>3.00</ele>
        <time>2012-04-22T11:08:59Z</time>
      </trkpt>
      <trkpt lat="41.621395000" lon="2.668026100">
        <ele>3.00</ele>
        <time>2012-04-22T11:09:01Z</time>
      </trkpt>
      <trkpt lat="41.621136000" lon="2.667411100">
        <ele>4.90</ele>
        <time>2012-04-22T11:09:10Z</time>
      </trkpt>
      <trkpt lat="41.620949000" lon="2.666924100">
        <ele>7.80</ele>
        <time>2012-04-22T11:09:17Z</time>
      </trkpt>
      <trkpt lat="41.620792000" lon="2.666649100">
        <ele>10.20</ele>
        <time>2012-04-22T11:09:22Z</time>
      </trkpt>
      <trkpt lat="41.620426000" lon="2.666240100">
        <ele>10.70</ele>
        <time>2012-04-22T11:09:29Z</time>
      </trkpt>
      <trkpt lat="41.619911000" lon="2.665669100">
        <ele>8.80</ele>
        <time>2012-04-22T11:09:38Z</time>
      </trkpt>
      <trkpt lat="41.619690000" lon="2.665386100">
        <ele>4.90</ele>
        <time>2012-04-22T11:09:41Z</time>
      </trkpt>
      <trkpt lat="41.619366000" lon="2.664929100">
        <ele>2.10</ele>
        <time>2012-04-22T11:09:48Z</time>
      </trkpt>
      <trkpt lat="41.618820000" lon="2.664112100">
        <ele>2.50</ele>
        <time>2012-04-22T11:09:57Z</time>
      </trkpt>
      <trkpt lat="41.618401000" lon="2.663486100">
        <ele>2.50</ele>
        <time>2012-04-22T11:10:06Z</time>
      </trkpt>
      <trkpt lat="41.617874000" lon="2.662703100">
        <ele>2.50</ele>
        <time>2012-04-22T11:10:16Z</time>
      </trkpt>
      <trkpt lat="41.617474000" lon="2.662115100">
        <ele>2.50</ele>
        <time>2012-04-22T11:10:23Z</time>
      </trkpt>
      <trkpt lat="41.617134000" lon="2.661603100">
        <ele>3.00</ele>
        <time>2012-04-22T11:10:30Z</time>
      </trkpt>
      <trkpt lat="41.616810000" lon="2.661070100">
        <ele>1.60</ele>
        <time>2012-04-22T11:10:37Z</time>
      </trkpt>
      <trkpt lat="41.616314000" lon="2.660266100">
        <ele>1.10</ele>
        <time>2012-04-22T11:10:49Z</time>
      </trkpt>
      <trkpt lat="41.615894000" lon="2.659506100">
        <ele>0.60</ele>
        <time>2012-04-22T11:10:58Z</time>
      </trkpt>
      <trkpt lat="41.615585000" lon="2.658736100">
        <ele>0.60</ele>
        <time>2012-04-22T11:11:07Z</time>
      </trkpt>
      <trkpt lat="41.615257000" lon="2.658089100">
        <ele>0.60</ele>
        <time>2012-04-22T11:11:15Z</time>
      </trkpt>
      <trkpt lat="41.614899000" lon="2.657604100">
        <ele>0.10</ele>
        <time>2012-04-22T11:11:22Z</time>
      </trkpt>
      <trkpt lat="41.614597000" lon="2.657193100">
        <ele>0.60</ele>
        <time>2012-04-22T11:11:29Z</time>
      </trkpt>
      <trkpt lat="41.614491000" lon="2.657015100">
        <ele>2.10</ele>
        <time>2012-04-22T11:11:33Z</time>
      </trkpt>
      <trkpt lat="41.614399000" lon="2.656804100">
        <ele>2.10</ele>
        <time>2012-04-22T11:11:36Z</time>
      </trkpt>
      <trkpt lat="41.614311000" lon="2.656427100">
        <ele>3.00</ele>
        <time>2012-04-22T11:11:40Z</time>
      </trkpt>
      <trkpt lat="41.614212000" lon="2.655864100">
        <ele>3.50</ele>
        <time>2012-04-22T11:11:47Z</time>
      </trkpt>
      <trkpt lat="41.614079000" lon="2.655122100">
        <ele>3.50</ele>
        <time>2012-04-22T11:11:55Z</time>
      </trkpt>
      <trkpt lat="41.613861000" lon="2.654559100">
        <ele>3.50</ele>
        <time>2012-04-22T11:12:02Z</time>
      </trkpt>
      <trkpt lat="41.613586000" lon="2.653852100">
        <ele>4.00</ele>
        <time>2012-04-22T11:12:11Z</time>
      </trkpt>
      <trkpt lat="41.613453000" lon="2.653378100">
        <ele>4.00</ele>
        <time>2012-04-22T11:12:18Z</time>
      </trkpt>
      <trkpt lat="41.613361000" lon="2.653241100">
        <ele>4.00</ele>
        <time>2012-04-22T11:12:20Z</time>
      </trkpt>
      <trkpt lat="41.613014000" lon="2.652436100">
        <ele>4.00</ele>
        <time>2012-04-22T11:12:30Z</time>
      </trkpt>
      <trkpt lat="41.612724000" lon="2.651737100">
        <ele>4.00</ele>
        <time>2012-04-22T11:12:39Z</time>
      </trkpt>
      <trkpt lat="41.612461000" lon="2.651077100">
        <ele>4.00</ele>
        <time>2012-04-22T11:12:48Z</time>
      </trkpt>
      <trkpt lat="41.612190000" lon="2.650441100">
        <ele>4.50</ele>
        <time>2012-04-22T11:12:58Z</time>
      </trkpt>
      <trkpt lat="41.611961000" lon="2.649878100">
        <ele>5.40</ele>
        <time>2012-04-22T11:13:05Z</time>
      </trkpt>
      <trkpt lat="41.611614000" lon="2.649004100">
        <ele>7.30</ele>
        <time>2012-04-22T11:13:17Z</time>
      </trkpt>
      <trkpt lat="41.611301000" lon="2.648201100">
        <ele>8.80</ele>
        <time>2012-04-22T11:13:28Z</time>
      </trkpt>
      <trkpt lat="41.611084000" lon="2.647593100">
        <ele>9.30</ele>
        <time>2012-04-22T11:13:36Z</time>
      </trkpt>
      <trkpt lat="41.610992000" lon="2.647385100">
        <ele>9.80</ele>
        <time>2012-04-22T11:13:40Z</time>
      </trkpt>
      <trkpt lat="41.610878000" lon="2.647213100">
        <ele>10.70</ele>
        <time>2012-04-22T11:13:42Z</time>
      </trkpt>
      <trkpt lat="41.610691000" lon="2.646843100">
        <ele>10.70</ele>
        <time>2012-04-22T11:13:49Z</time>
      </trkpt>
      <trkpt lat="41.610527000" lon="2.646825100">
        <ele>11.20</ele>
        <time>2012-04-22T11:13:52Z</time>
      </trkpt>
      <trkpt lat="41.610474000" lon="2.646854100">
        <ele>11.20</ele>
        <time>2012-04-22T11:13:52Z</time>
      </trkpt>
      <trkpt lat="41.610359000" lon="2.646927100">
        <ele>11.70</ele>
        <time>2012-04-22T11:13:54Z</time>
      </trkpt>
      <trkpt lat="41.609837000" lon="2.647059100">
        <ele>11.70</ele>
        <time>2012-04-22T11:14:03Z</time>
      </trkpt>
      <trkpt lat="41.609318000" lon="2.647079100">
        <ele>11.70</ele>
        <time>2012-04-22T11:14:11Z</time>
      </trkpt>
      <trkpt lat="41.608707000" lon="2.646943100">
        <ele>10.70</ele>
        <time>2012-04-22T11:14:20Z</time>
      </trkpt>
      <trkpt lat="41.608257000" lon="2.646845100">
        <ele>10.20</ele>
        <time>2012-04-22T11:14:27Z</time>
      </trkpt>
      <trkpt lat="41.607899000" lon="2.646584100">
        <ele>9.80</ele>
        <time>2012-04-22T11:14:34Z</time>
      </trkpt>
      <trkpt lat="41.607746000" lon="2.646364100">
        <ele>9.80</ele>
        <time>2012-04-22T11:14:37Z</time>
      </trkpt>
      <trkpt lat="41.607635000" lon="2.646030100">
        <ele>10.70</ele>
        <time>2012-04-22T11:14:43Z</time>
      </trkpt>
      <trkpt lat="41.607548000" lon="2.645300100">
        <ele>12.10</ele>
        <time>2012-04-22T11:14:53Z</time>
      </trkpt>
      <trkpt lat="41.607456000" lon="2.644684100">
        <ele>14.60</ele>
        <time>2012-04-22T11:15:02Z</time>
      </trkpt>
      <trkpt lat="41.607407000" lon="2.644496100">
        <ele>15.00</ele>
        <time>2012-04-22T11:15:05Z</time>
      </trkpt>
      <trkpt lat="41.607319000" lon="2.644223100">
        <ele>18.40</ele>
        <time>2012-04-22T11:15:09Z</time>
      </trkpt>
      <trkpt lat="41.607201000" lon="2.643968100">
        <ele>19.80</ele>
        <time>2012-04-22T11:15:18Z</time>
      </trkpt>
      <trkpt lat="41.607197000" lon="2.643935100">
        <ele>19.80</ele>
        <time>2012-04-22T11:15:19Z</time>
      </trkpt>
      <trkpt lat="41.607204000" lon="2.643881100">
        <ele>19.80</ele>
        <time>2012-04-22T11:15:23Z</time>
      </trkpt>
      <trkpt lat="41.607208000" lon="2.643878100">
        <ele>19.80</ele>
        <time>2012-04-22T11:16:10Z</time>
      </trkpt>
      <trkpt lat="41.607212000" lon="2.643891100">
        <ele>19.80</ele>
        <time>2012-04-22T11:16:27Z</time>
      </trkpt>
      <trkpt lat="41.607204000" lon="2.643857100">
        <ele>19.80</ele>
        <time>2012-04-22T11:16:34Z</time>
      </trkpt>
      <trkpt lat="41.607208000" lon="2.643836100">
        <ele>19.80</ele>
        <time>2012-04-22T11:17:28Z</time>
      </trkpt>
      <trkpt lat="41.607212000" lon="2.643836100">
        <ele>19.80</ele>
        <time>2012-04-22T11:18:17Z</time>
      </trkpt>
      <trkpt lat="41.607212000" lon="2.643820100">
        <ele>19.80</ele>
        <time>2012-04-22T11:20:07Z</time>
      </trkpt>
      <trkpt lat="41.607208000" lon="2.643818100">
        <ele>19.80</ele>
        <time>2012-04-22T11:21:01Z</time>
      </trkpt>
      <trkpt lat="41.607208000" lon="2.643824100">
        <ele>19.80</ele>
        <time>2012-04-22T11:24:14Z</time>
      </trkpt>
      <trkpt lat="41.607212000" lon="2.643826100">
        <ele>19.80</ele>
        <time>2012-04-22T11:24:52Z</time>
      </trkpt>
      <trkpt lat="41.607212000" lon="2.643831100">
        <ele>19.80</ele>
        <time>2012-04-22T11:26:12Z</time>
      </trkpt>
      <trkpt lat="41.607212000" lon="2.643822100">
        <ele>19.80</ele>
        <time>2012-04-22T11:30:04Z</time>
      </trkpt>
      <trkpt lat="41.607201000" lon="2.643824100">
        <ele>19.80</ele>
        <time>2012-04-22T11:31:45Z</time>
      </trkpt>
      <trkpt lat="41.607201000" lon="2.643826100">
        <ele>19.80</ele>
        <time>2012-04-22T11:32:20Z</time>
      </trkpt>
      <trkpt lat="41.607136000" lon="2.643748100">
        <ele>19.80</ele>
        <time>2012-04-22T11:32:29Z</time>
      </trkpt>
      <trkpt lat="41.606976000" lon="2.643373100">
        <ele>20.30</ele>
        <time>2012-04-22T11:32:37Z</time>
      </trkpt>
      <trkpt lat="41.606907000" lon="2.643136100">
        <ele>20.30</ele>
        <time>2012-04-22T11:32:41Z</time>
      </trkpt>
      <trkpt lat="41.606834000" lon="2.642367100">
        <ele>20.80</ele>
        <time>2012-04-22T11:32:53Z</time>
      </trkpt>
      <trkpt lat="41.606724000" lon="2.641636100">
        <ele>21.30</ele>
        <time>2012-04-22T11:33:02Z</time>
      </trkpt>
      <trkpt lat="41.606495000" lon="2.641049100">
        <ele>21.30</ele>
        <time>2012-04-22T11:33:11Z</time>
      </trkpt>
      <trkpt lat="41.606266000" lon="2.640553100">
        <ele>21.30</ele>
        <time>2012-04-22T11:33:16Z</time>
      </trkpt>
      <trkpt lat="41.605988000" lon="2.639603100">
        <ele>19.80</ele>
        <time>2012-04-22T11:33:26Z</time>
      </trkpt>
      <trkpt lat="41.605869000" lon="2.639138100">
        <ele>16.50</ele>
        <time>2012-04-22T11:33:30Z</time>
      </trkpt>
      <trkpt lat="41.605721000" lon="2.638544100">
        <ele>13.10</ele>
        <time>2012-04-22T11:33:35Z</time>
      </trkpt>
      <trkpt lat="41.605549000" lon="2.637785100">
        <ele>11.20</ele>
        <time>2012-04-22T11:33:42Z</time>
      </trkpt>
      <trkpt lat="41.605293000" lon="2.636751100">
        <ele>8.80</ele>
        <time>2012-04-22T11:33:51Z</time>
      </trkpt>
      <trkpt lat="41.605015000" lon="2.635616100">
        <ele>6.40</ele>
        <time>2012-04-22T11:34:01Z</time>
      </trkpt>
      <trkpt lat="41.604797000" lon="2.634751100">
        <ele>5.90</ele>
        <time>2012-04-22T11:34:08Z</time>
      </trkpt>
      <trkpt lat="41.604691000" lon="2.634136100">
        <ele>5.40</ele>
        <time>2012-04-22T11:34:15Z</time>
      </trkpt>
      <trkpt lat="41.604584000" lon="2.633342100">
        <ele>4.90</ele>
        <time>2012-04-22T11:34:22Z</time>
      </trkpt>
      <trkpt lat="41.604485000" lon="2.632564100">
        <ele>4.50</ele>
        <time>2012-04-22T11:34:31Z</time>
      </trkpt>
      <trkpt lat="41.604343000" lon="2.631477100">
        <ele>4.50</ele>
        <time>2012-04-22T11:34:43Z</time>
      </trkpt>
      <trkpt lat="41.604164000" lon="2.630718100">
        <ele>4.50</ele>
        <time>2012-04-22T11:34:52Z</time>
      </trkpt>
      <trkpt lat="41.603779000" lon="2.629889100">
        <ele>4.50</ele>
        <time>2012-04-22T11:35:02Z</time>
      </trkpt>
      <trkpt lat="41.603485000" lon="2.629289100">
        <ele>4.50</ele>
        <time>2012-04-22T11:35:11Z</time>
      </trkpt>
      <trkpt lat="41.603210000" lon="2.628747100">
        <ele>6.40</ele>
        <time>2012-04-22T11:35:21Z</time>
      </trkpt>
      <trkpt lat="41.603008000" lon="2.628333100">
        <ele>9.80</ele>
        <time>2012-04-22T11:35:28Z</time>
      </trkpt>
      <trkpt lat="41.602924000" lon="2.628153100">
        <ele>12.10</ele>
        <time>2012-04-22T11:35:30Z</time>
      </trkpt>
      <trkpt lat="41.602699000" lon="2.627686100">
        <ele>14.10</ele>
        <time>2012-04-22T11:35:39Z</time>
      </trkpt>
      <trkpt lat="41.602577000" lon="2.627172100">
        <ele>14.60</ele>
        <time>2012-04-22T11:35:47Z</time>
      </trkpt>
      <trkpt lat="41.602596000" lon="2.626819100">
        <ele>15.00</ele>
        <time>2012-04-22T11:35:51Z</time>
      </trkpt>
      <trkpt lat="41.602734000" lon="2.626373100">
        <ele>15.50</ele>
        <time>2012-04-22T11:35:58Z</time>
      </trkpt>
      <trkpt lat="41.602867000" lon="2.626157100">
        <ele>16.00</ele>
        <time>2012-04-22T11:36:03Z</time>
      </trkpt>
      <trkpt lat="41.603085000" lon="2.625962100">
        <ele>16.50</ele>
        <time>2012-04-22T11:36:08Z</time>
      </trkpt>
      <trkpt lat="41.603622000" lon="2.625693100">
        <ele>17.40</ele>
        <time>2012-04-22T11:36:19Z</time>
      </trkpt>
      <trkpt lat="41.603722000" lon="2.625628100">
        <ele>17.90</ele>
        <time>2012-04-22T11:36:20Z</time>
      </trkpt>
      <trkpt lat="41.604088000" lon="2.625149100">
        <ele>17.90</ele>
        <time>2012-04-22T11:36:29Z</time>
      </trkpt>
      <trkpt lat="41.604187000" lon="2.624861100">
        <ele>18.40</ele>
        <time>2012-04-22T11:36:34Z</time>
      </trkpt>
      <trkpt lat="41.604218000" lon="2.624403100">
        <ele>18.40</ele>
        <time>2012-04-22T11:36:40Z</time>
      </trkpt>
      <trkpt lat="41.604095000" lon="2.623898100">
        <ele>18.40</ele>
        <time>2012-04-22T11:36:47Z</time>
      </trkpt>
      <trkpt lat="41.603806000" lon="2.623444100">
        <ele>18.40</ele>
        <time>2012-04-22T11:36:55Z</time>
      </trkpt>
      <trkpt lat="41.603333000" lon="2.622845100">
        <ele>19.40</ele>
        <time>2012-04-22T11:37:06Z</time>
      </trkpt>
      <trkpt lat="41.602882000" lon="2.622278100">
        <ele>21.30</ele>
        <time>2012-04-22T11:37:18Z</time>
      </trkpt>
      <trkpt lat="41.602509000" lon="2.621799100">
        <ele>22.20</ele>
        <time>2012-04-22T11:37:27Z</time>
      </trkpt>
      <trkpt lat="41.602200000" lon="2.621335100">
        <ele>22.70</ele>
        <time>2012-04-22T11:37:35Z</time>
      </trkpt>
      <trkpt lat="41.601929000" lon="2.620678100">
        <ele>23.20</ele>
        <time>2012-04-22T11:37:44Z</time>
      </trkpt>
      <trkpt lat="41.601902000" lon="2.620591100">
        <ele>23.20</ele>
        <time>2012-04-22T11:37:44Z</time>
      </trkpt>
      <trkpt lat="41.601871000" lon="2.620448100">
        <ele>23.20</ele>
        <time>2012-04-22T11:37:46Z</time>
      </trkpt>
      <trkpt lat="41.601830000" lon="2.620255100">
        <ele>22.20</ele>
        <time>2012-04-22T11:37:51Z</time>
      </trkpt>
      <trkpt lat="41.601696000" lon="2.619709100">
        <ele>20.30</ele>
        <time>2012-04-22T11:37:58Z</time>
      </trkpt>
      <trkpt lat="41.601589000" lon="2.619357100">
        <ele>19.80</ele>
        <time>2012-04-22T11:38:03Z</time>
      </trkpt>
      <trkpt lat="41.601326000" lon="2.618888100">
        <ele>16.00</ele>
        <time>2012-04-22T11:38:08Z</time>
      </trkpt>
      <trkpt lat="41.601032000" lon="2.618404100">
        <ele>13.60</ele>
        <time>2012-04-22T11:38:14Z</time>
      </trkpt>
      <trkpt lat="41.600780000" lon="2.617975100">
        <ele>10.20</ele>
        <time>2012-04-22T11:38:19Z</time>
      </trkpt>
      <trkpt lat="41.600513000" lon="2.617528100">
        <ele>7.30</ele>
        <time>2012-04-22T11:38:24Z</time>
      </trkpt>
      <trkpt lat="41.599949000" lon="2.616576100">
        <ele>5.40</ele>
        <time>2012-04-22T11:38:35Z</time>
      </trkpt>
      <trkpt lat="41.599483000" lon="2.615829100">
        <ele>4.50</ele>
        <time>2012-04-22T11:38:43Z</time>
      </trkpt>
      <trkpt lat="41.598942000" lon="2.615012100">
        <ele>4.00</ele>
        <time>2012-04-22T11:38:54Z</time>
      </trkpt>
      <trkpt lat="41.598484000" lon="2.614380100">
        <ele>3.50</ele>
        <time>2012-04-22T11:39:04Z</time>
      </trkpt>
      <trkpt lat="41.597961000" lon="2.613680100">
        <ele>3.50</ele>
        <time>2012-04-22T11:39:13Z</time>
      </trkpt>
      <trkpt lat="41.597519000" lon="2.613021100">
        <ele>3.00</ele>
        <time>2012-04-22T11:39:23Z</time>
      </trkpt>
      <trkpt lat="41.597141000" lon="2.612275100">
        <ele>3.00</ele>
        <time>2012-04-22T11:39:32Z</time>
      </trkpt>
      <trkpt lat="41.596718000" lon="2.611347100">
        <ele>3.00</ele>
        <time>2012-04-22T11:39:42Z</time>
      </trkpt>
      <trkpt lat="41.596363000" lon="2.610578100">
        <ele>2.50</ele>
        <time>2012-04-22T11:39:51Z</time>
      </trkpt>
      <trkpt lat="41.595871000" lon="2.609508100">
        <ele>2.50</ele>
        <time>2012-04-22T11:40:05Z</time>
      </trkpt>
      <trkpt lat="41.595570000" lon="2.608719100">
        <ele>2.50</ele>
        <time>2012-04-22T11:40:14Z</time>
      </trkpt>
      <trkpt lat="41.595257000" lon="2.607675100">
        <ele>2.50</ele>
        <time>2012-04-22T11:40:24Z</time>
      </trkpt>
      <trkpt lat="41.595058000" lon="2.606697100">
        <ele>2.50</ele>
        <time>2012-04-22T11:40:35Z</time>
      </trkpt>
      <trkpt lat="41.594902000" lon="2.605869100">
        <ele>3.00</ele>
        <time>2012-04-22T11:40:42Z</time>
      </trkpt>
      <trkpt lat="41.594761000" lon="2.605068100">
        <ele>3.00</ele>
        <time>2012-04-22T11:40:50Z</time>
      </trkpt>
      <trkpt lat="41.594517000" lon="2.603850100">
        <ele>3.00</ele>
        <time>2012-04-22T11:41:03Z</time>
      </trkpt>
      <trkpt lat="41.594337000" lon="2.603018100">
        <ele>4.00</ele>
        <time>2012-04-22T11:41:11Z</time>
      </trkpt>
      <trkpt lat="41.594059000" lon="2.602144100">
        <ele>4.00</ele>
        <time>2012-04-22T11:41:20Z</time>
      </trkpt>
      <trkpt lat="41.593697000" lon="2.601225100">
        <ele>4.90</ele>
        <time>2012-04-22T11:41:29Z</time>
      </trkpt>
      <trkpt lat="41.593266000" lon="2.600346100">
        <ele>4.90</ele>
        <time>2012-04-22T11:41:39Z</time>
      </trkpt>
      <trkpt lat="41.592796000" lon="2.599397100">
        <ele>5.40</ele>
        <time>2012-04-22T11:41:50Z</time>
      </trkpt>
      <trkpt lat="41.592400000" lon="2.598381100">
        <ele>5.90</ele>
        <time>2012-04-22T11:42:02Z</time>
      </trkpt>
      <trkpt lat="41.592091000" lon="2.597403100">
        <ele>5.90</ele>
        <time>2012-04-22T11:42:12Z</time>
      </trkpt>
      <trkpt lat="41.591869000" lon="2.596715100">
        <ele>5.90</ele>
        <time>2012-04-22T11:42:19Z</time>
      </trkpt>
      <trkpt lat="41.591656000" lon="2.596025100">
        <ele>5.90</ele>
        <time>2012-04-22T11:42:26Z</time>
      </trkpt>
      <trkpt lat="41.591492000" lon="2.595199100">
        <ele>4.90</ele>
        <time>2012-04-22T11:42:33Z</time>
      </trkpt>
      <trkpt lat="41.591377000" lon="2.594529100">
        <ele>4.50</ele>
        <time>2012-04-22T11:42:40Z</time>
      </trkpt>
      <trkpt lat="41.591362000" lon="2.594147100">
        <ele>3.50</ele>
        <time>2012-04-22T11:42:45Z</time>
      </trkpt>
      <trkpt lat="41.591457000" lon="2.593663100">
        <ele>2.50</ele>
        <time>2012-04-22T11:42:52Z</time>
      </trkpt>
      <trkpt lat="41.591465000" lon="2.593597100">
        <ele>3.00</ele>
        <time>2012-04-22T11:42:54Z</time>
      </trkpt>
      <trkpt lat="41.591412000" lon="2.593296100">
        <ele>3.00</ele>
        <time>2012-04-22T11:42:59Z</time>
      </trkpt>
      <trkpt lat="41.591278000" lon="2.593195100">
        <ele>2.10</ele>
        <time>2012-04-22T11:43:01Z</time>
      </trkpt>
      <trkpt lat="41.591026000" lon="2.592938100">
        <ele>1.60</ele>
        <time>2012-04-22T11:43:08Z</time>
      </trkpt>
      <trkpt lat="41.591003000" lon="2.592867100">
        <ele>1.60</ele>
        <time>2012-04-22T11:43:08Z</time>
      </trkpt>
      <trkpt lat="41.590786000" lon="2.592087100">
        <ele>1.10</ele>
        <time>2012-04-22T11:43:18Z</time>
      </trkpt>
      <trkpt lat="41.590473000" lon="2.591134100">
        <ele>0.60</ele>
        <time>2012-04-22T11:43:31Z</time>
      </trkpt>
      <trkpt lat="41.590214000" lon="2.590350100">
        <ele>0.60</ele>
        <time>2012-04-22T11:43:41Z</time>
      </trkpt>
      <trkpt lat="41.589973000" lon="2.589627100">
        <ele>0.10</ele>
        <time>2012-04-22T11:43:50Z</time>
      </trkpt>
      <trkpt lat="41.589928000" lon="2.589483100">
        <ele>0.10</ele>
        <time>2012-04-22T11:43:53Z</time>
      </trkpt>
      <trkpt lat="41.589775000" lon="2.589110100">
        <ele>0.10</ele>
        <time>2012-04-22T11:43:59Z</time>
      </trkpt>
      <trkpt lat="41.589119000" lon="2.587655100">
        <ele>0.10</ele>
        <time>2012-04-22T11:44:18Z</time>
      </trkpt>
      <trkpt lat="41.588772000" lon="2.586935100">
        <ele>0.10</ele>
        <time>2012-04-22T11:44:28Z</time>
      </trkpt>
      <trkpt lat="41.588333000" lon="2.586137100">
        <ele>0.10</ele>
        <time>2012-04-22T11:44:39Z</time>
      </trkpt>
      <trkpt lat="41.587933000" lon="2.585274100">
        <ele>-0.30</ele>
        <time>2012-04-22T11:44:49Z</time>
      </trkpt>
      <trkpt lat="41.587723000" lon="2.584630100">
        <ele>-0.30</ele>
        <time>2012-04-22T11:44:58Z</time>
      </trkpt>
      <trkpt lat="41.587471000" lon="2.583794100">
        <ele>-0.80</ele>
        <time>2012-04-22T11:45:08Z</time>
      </trkpt>
      <trkpt lat="41.587357000" lon="2.583004100">
        <ele>-0.80</ele>
        <time>2012-04-22T11:45:17Z</time>
      </trkpt>
      <trkpt lat="41.587234000" lon="2.582345100">
        <ele>-0.80</ele>
        <time>2012-04-22T11:45:24Z</time>
      </trkpt>
      <trkpt lat="41.587063000" lon="2.581631100">
        <ele>-0.80</ele>
        <time>2012-04-22T11:45:34Z</time>
      </trkpt>
      <trkpt lat="41.586998000" lon="2.581470100">
        <ele>-0.80</ele>
        <time>2012-04-22T11:45:36Z</time>
      </trkpt>
      <trkpt lat="41.586712000" lon="2.580980100">
        <ele>-0.80</ele>
        <time>2012-04-22T11:45:43Z</time>
      </trkpt>
      <trkpt lat="41.586678000" lon="2.580911100">
        <ele>-0.80</ele>
        <time>2012-04-22T11:45:43Z</time>
      </trkpt>
      <trkpt lat="41.586533000" lon="2.580378100">
        <ele>-0.80</ele>
        <time>2012-04-22T11:45:50Z</time>
      </trkpt>
      <trkpt lat="41.586327000" lon="2.579414100">
        <ele>-0.80</ele>
        <time>2012-04-22T11:45:59Z</time>
      </trkpt>
      <trkpt lat="41.586258000" lon="2.579153100">
        <ele>-0.80</ele>
        <time>2012-04-22T11:46:02Z</time>
      </trkpt>
      <trkpt lat="41.586006000" lon="2.578656100">
        <ele>0.60</ele>
        <time>2012-04-22T11:46:09Z</time>
      </trkpt>
      <trkpt lat="41.585678000" lon="2.578100100">
        <ele>1.60</ele>
        <time>2012-04-22T11:46:18Z</time>
      </trkpt>
      <trkpt lat="41.585293000" lon="2.577482100">
        <ele>2.10</ele>
        <time>2012-04-22T11:46:27Z</time>
      </trkpt>
      <trkpt lat="41.585083000" lon="2.576910100">
        <ele>2.50</ele>
        <time>2012-04-22T11:46:34Z</time>
      </trkpt>
      <trkpt lat="41.585064000" lon="2.576365100">
        <ele>2.50</ele>
        <time>2012-04-22T11:46:39Z</time>
      </trkpt>
      <trkpt lat="41.585232000" lon="2.575627100">
        <ele>2.50</ele>
        <time>2012-04-22T11:46:48Z</time>
      </trkpt>
      <trkpt lat="41.585342000" lon="2.575294100">
        <ele>2.50</ele>
        <time>2012-04-22T11:46:51Z</time>
      </trkpt>
      <trkpt lat="41.585541000" lon="2.575216100">
        <ele>2.50</ele>
        <time>2012-04-22T11:46:56Z</time>
      </trkpt>
      <trkpt lat="41.585533000" lon="2.575434100">
        <ele>0.60</ele>
        <time>2012-04-22T11:46:58Z</time>
      </trkpt>
      <trkpt lat="41.585323000" lon="2.575480100">
        <ele>0.10</ele>
        <time>2012-04-22T11:47:01Z</time>
      </trkpt>
      <trkpt lat="41.585232000" lon="2.575441100">
        <ele>-0.80</ele>
        <time>2012-04-22T11:47:03Z</time>
      </trkpt>
      <trkpt lat="41.584976000" lon="2.575090100">
        <ele>-3.70</ele>
        <time>2012-04-22T11:47:08Z</time>
      </trkpt>
      <trkpt lat="41.584957000" lon="2.575026100">
        <ele>-4.20</ele>
        <time>2012-04-22T11:47:10Z</time>
      </trkpt>
      <trkpt lat="41.584896000" lon="2.574663100">
        <ele>-0.30</ele>
        <time>2012-04-22T11:47:17Z</time>
      </trkpt>
      <trkpt lat="41.584831000" lon="2.574428100">
        <ele>1.10</ele>
        <time>2012-04-22T11:47:24Z</time>
      </trkpt>
      <trkpt lat="41.584820000" lon="2.574399100">
        <ele>1.10</ele>
        <time>2012-04-22T11:47:24Z</time>
      </trkpt>
      <trkpt lat="41.584717000" lon="2.574413100">
        <ele>1.10</ele>
        <time>2012-04-22T11:47:29Z</time>
      </trkpt>
      <trkpt lat="41.584686000" lon="2.574419100">
        <ele>1.10</ele>
        <time>2012-04-22T11:47:31Z</time>
      </trkpt>
      <trkpt lat="41.584480000" lon="2.574484100">
        <ele>-0.80</ele>
        <time>2012-04-22T11:47:36Z</time>
      </trkpt>
      <trkpt lat="41.584370000" lon="2.574517100">
        <ele>-3.20</ele>
        <time>2012-04-22T11:47:38Z</time>
      </trkpt>
      <trkpt lat="41.584335000" lon="2.574513100">
        <ele>-4.70</ele>
        <time>2012-04-22T11:47:40Z</time>
      </trkpt>
      <trkpt lat="41.584312000" lon="2.574404100">
        <ele>-4.70</ele>
        <time>2012-04-22T11:47:45Z</time>
      </trkpt>
      <trkpt lat="41.584320000" lon="2.574064100">
        <ele>-4.70</ele>
        <time>2012-04-22T11:47:52Z</time>
      </trkpt>
      <trkpt lat="41.584290000" lon="2.573858100">
        <ele>-3.70</ele>
        <time>2012-04-22T11:47:57Z</time>
      </trkpt>
      <trkpt lat="41.584278000" lon="2.573806100">
        <ele>-3.70</ele>
        <time>2012-04-22T11:47:57Z</time>
      </trkpt>
      <trkpt lat="41.584198000" lon="2.573505100">
        <ele>-3.70</ele>
        <time>2012-04-22T11:48:04Z</time>
      </trkpt>
      <trkpt lat="41.584030000" lon="2.572825100">
        <ele>-3.70</ele>
        <time>2012-04-22T11:48:15Z</time>
      </trkpt>
      <trkpt lat="41.583931000" lon="2.572381100">
        <ele>-2.80</ele>
        <time>2012-04-22T11:48:22Z</time>
      </trkpt>
      <trkpt lat="41.583809000" lon="2.572033100">
        <ele>-2.30</ele>
        <time>2012-04-22T11:48:29Z</time>
      </trkpt>
      <trkpt lat="41.583626000" lon="2.571884100">
        <ele>-2.30</ele>
        <time>2012-04-22T11:48:34Z</time>
      </trkpt>
      <trkpt lat="41.583416000" lon="2.571700100">
        <ele>-2.30</ele>
        <time>2012-04-22T11:48:41Z</time>
      </trkpt>
      <trkpt lat="41.583401000" lon="2.571664100">
        <ele>-2.30</ele>
        <time>2012-04-22T11:48:41Z</time>
      </trkpt>
      <trkpt lat="41.583351000" lon="2.571501100">
        <ele>-2.30</ele>
        <time>2012-04-22T11:48:44Z</time>
      </trkpt>
      <trkpt lat="41.583267000" lon="2.571207100">
        <ele>-2.30</ele>
        <time>2012-04-22T11:48:51Z</time>
      </trkpt>
      <trkpt lat="41.583244000" lon="2.570917100">
        <ele>-2.30</ele>
        <time>2012-04-22T11:48:56Z</time>
      </trkpt>
      <trkpt lat="41.583229000" lon="2.570757100">
        <ele>-2.30</ele>
        <time>2012-04-22T11:49:00Z</time>
      </trkpt>
      <trkpt lat="41.583195000" lon="2.570645100">
        <ele>-2.30</ele>
        <time>2012-04-22T11:49:02Z</time>
      </trkpt>
      <trkpt lat="41.582954000" lon="2.569976100">
        <ele>-2.30</ele>
        <time>2012-04-22T11:49:12Z</time>
      </trkpt>
      <trkpt lat="41.582867000" lon="2.569807100">
        <ele>-2.30</ele>
        <time>2012-04-22T11:49:16Z</time>
      </trkpt>
      <trkpt lat="41.582787000" lon="2.569628100">
        <ele>-2.30</ele>
        <time>2012-04-22T11:49:19Z</time>
      </trkpt>
      <trkpt lat="41.582691000" lon="2.569399100">
        <ele>-2.30</ele>
        <time>2012-04-22T11:49:23Z</time>
      </trkpt>
      <trkpt lat="41.582611000" lon="2.569088100">
        <ele>-2.30</ele>
        <time>2012-04-22T11:49:28Z</time>
      </trkpt>
      <trkpt lat="41.582397000" lon="2.568553100">
        <ele>-1.80</ele>
        <time>2012-04-22T11:49:36Z</time>
      </trkpt>
      <trkpt lat="41.582077000" lon="2.567882100">
        <ele>-1.80</ele>
        <time>2012-04-22T11:49:47Z</time>
      </trkpt>
      <trkpt lat="41.582016000" lon="2.567769100">
        <ele>-1.80</ele>
        <time>2012-04-22T11:49:49Z</time>
      </trkpt>
      <trkpt lat="41.581795000" lon="2.567229100">
        <ele>-1.80</ele>
        <time>2012-04-22T11:49:59Z</time>
      </trkpt>
      <trkpt lat="41.581749000" lon="2.567041100">
        <ele>-1.80</ele>
        <time>2012-04-22T11:50:01Z</time>
      </trkpt>
      <trkpt lat="41.581676000" lon="2.566636100">
        <ele>-1.80</ele>
        <time>2012-04-22T11:50:08Z</time>
      </trkpt>
      <trkpt lat="41.581646000" lon="2.566562100">
        <ele>-1.80</ele>
        <time>2012-04-22T11:50:08Z</time>
      </trkpt>
      <trkpt lat="41.581497000" lon="2.566245100">
        <ele>-1.80</ele>
        <time>2012-04-22T11:50:15Z</time>
      </trkpt>
      <trkpt lat="41.581303000" lon="2.565812100">
        <ele>-1.80</ele>
        <time>2012-04-22T11:50:24Z</time>
      </trkpt>
      <trkpt lat="41.581047000" lon="2.565336100">
        <ele>-1.30</ele>
        <time>2012-04-22T11:50:32Z</time>
      </trkpt>
      <trkpt lat="41.580856000" lon="2.565044100">
        <ele>-1.30</ele>
        <time>2012-04-22T11:50:39Z</time>
      </trkpt>
      <trkpt lat="41.580555000" lon="2.564651100">
        <ele>-1.30</ele>
        <time>2012-04-22T11:50:48Z</time>
      </trkpt>
      <trkpt lat="41.580490000" lon="2.564551100">
        <ele>-1.30</ele>
        <time>2012-04-22T11:50:50Z</time>
      </trkpt>
      <trkpt lat="41.580242000" lon="2.564146100">
        <ele>-1.30</ele>
        <time>2012-04-22T11:50:58Z</time>
      </trkpt>
      <trkpt lat="41.580116000" lon="2.563833100">
        <ele>-1.30</ele>
        <time>2012-04-22T11:51:04Z</time>
      </trkpt>
      <trkpt lat="41.580116000" lon="2.563579100">
        <ele>-1.30</ele>
        <time>2012-04-22T11:51:07Z</time>
      </trkpt>
      <trkpt lat="41.580036000" lon="2.563286100">
        <ele>-1.30</ele>
        <time>2012-04-22T11:51:12Z</time>
      </trkpt>
      <trkpt lat="41.580029000" lon="2.562968100">
        <ele>-2.80</ele>
        <time>2012-04-22T11:51:16Z</time>
      </trkpt>
      <trkpt lat="41.580112000" lon="2.562779100">
        <ele>-2.80</ele>
        <time>2012-04-22T11:51:19Z</time>
      </trkpt>
      <trkpt lat="41.580116000" lon="2.562508100">
        <ele>-2.80</ele>
        <time>2012-04-22T11:51:23Z</time>
      </trkpt>
      <trkpt lat="41.580048000" lon="2.562312100">
        <ele>-2.80</ele>
        <time>2012-04-22T11:51:26Z</time>
      </trkpt>
      <trkpt lat="41.579983000" lon="2.561987100">
        <ele>-3.20</ele>
        <time>2012-04-22T11:51:31Z</time>
      </trkpt>
      <trkpt lat="41.580074000" lon="2.561814100">
        <ele>-3.20</ele>
        <time>2012-04-22T11:51:35Z</time>
      </trkpt>
      <trkpt lat="41.580158000" lon="2.561409100">
        <ele>-3.20</ele>
        <time>2012-04-22T11:51:40Z</time>
      </trkpt>
      <trkpt lat="41.580105000" lon="2.560674100">
        <ele>-3.20</ele>
        <time>2012-04-22T11:51:51Z</time>
      </trkpt>
      <trkpt lat="41.580029000" lon="2.559855100">
        <ele>-3.20</ele>
        <time>2012-04-22T11:52:01Z</time>
      </trkpt>
      <trkpt lat="41.579941000" lon="2.559005100">
        <ele>-3.20</ele>
        <time>2012-04-22T11:52:13Z</time>
      </trkpt>
      <trkpt lat="41.579803000" lon="2.558470100">
        <ele>-3.20</ele>
        <time>2012-04-22T11:52:22Z</time>
      </trkpt>
      <trkpt lat="41.579712000" lon="2.558301100">
        <ele>-3.20</ele>
        <time>2012-04-22T11:52:24Z</time>
      </trkpt>
      <trkpt lat="41.579460000" lon="2.558052100">
        <ele>-3.20</ele>
        <time>2012-04-22T11:52:31Z</time>
      </trkpt>
      <trkpt lat="41.579361000" lon="2.557817100">
        <ele>-3.20</ele>
        <time>2012-04-22T11:52:34Z</time>
      </trkpt>
      <trkpt lat="41.579403000" lon="2.557566100">
        <ele>-3.20</ele>
        <time>2012-04-22T11:52:38Z</time>
      </trkpt>
      <trkpt lat="41.579449000" lon="2.557524100">
        <ele>-3.20</ele>
        <time>2012-04-22T11:52:39Z</time>
      </trkpt>
      <trkpt lat="41.579540000" lon="2.557445100">
        <ele>-3.20</ele>
        <time>2012-04-22T11:52:41Z</time>
      </trkpt>
      <trkpt lat="41.579639000" lon="2.557185100">
        <ele>-3.20</ele>
        <time>2012-04-22T11:52:46Z</time>
      </trkpt>
      <trkpt lat="41.579636000" lon="2.557022100">
        <ele>-3.70</ele>
        <time>2012-04-22T11:52:48Z</time>
      </trkpt>
      <trkpt lat="41.579582000" lon="2.556309100">
        <ele>-3.70</ele>
        <time>2012-04-22T11:52:57Z</time>
      </trkpt>
      <trkpt lat="41.579552000" lon="2.555996100">
        <ele>-3.70</ele>
        <time>2012-04-22T11:53:00Z</time>
      </trkpt>
      <trkpt lat="41.579498000" lon="2.555372100">
        <ele>-3.70</ele>
        <time>2012-04-22T11:53:09Z</time>
      </trkpt>
      <trkpt lat="41.579449000" lon="2.554735100">
        <ele>-3.70</ele>
        <time>2012-04-22T11:53:18Z</time>
      </trkpt>
      <trkpt lat="41.579361000" lon="2.554244100">
        <ele>-2.30</ele>
        <time>2012-04-22T11:53:25Z</time>
      </trkpt>
      <trkpt lat="41.579304000" lon="2.553985100">
        <ele>-2.30</ele>
        <time>2012-04-22T11:53:30Z</time>
      </trkpt>
      <trkpt lat="41.579109000" lon="2.553496100">
        <ele>-2.30</ele>
        <time>2012-04-22T11:53:40Z</time>
      </trkpt>
      <trkpt lat="41.578922000" lon="2.552971100">
        <ele>-2.30</ele>
        <time>2012-04-22T11:53:49Z</time>
      </trkpt>
      <trkpt lat="41.578896000" lon="2.552921100">
        <ele>-2.30</ele>
        <time>2012-04-22T11:53:49Z</time>
      </trkpt>
      <trkpt lat="41.578701000" lon="2.552568100">
        <ele>-2.30</ele>
        <time>2012-04-22T11:53:56Z</time>
      </trkpt>
      <trkpt lat="41.578636000" lon="2.552480100">
        <ele>-2.30</ele>
        <time>2012-04-22T11:53:58Z</time>
      </trkpt>
      <trkpt lat="41.578564000" lon="2.552391100">
        <ele>-2.30</ele>
        <time>2012-04-22T11:54:01Z</time>
      </trkpt>
      <trkpt lat="41.578503000" lon="2.552018100">
        <ele>-2.30</ele>
        <time>2012-04-22T11:54:06Z</time>
      </trkpt>
      <trkpt lat="41.578587000" lon="2.551914100">
        <ele>-3.20</ele>
        <time>2012-04-22T11:54:08Z</time>
      </trkpt>
      <trkpt lat="41.578804000" lon="2.551736100">
        <ele>-3.70</ele>
        <time>2012-04-22T11:54:12Z</time>
      </trkpt>
      <trkpt lat="41.578991000" lon="2.551600100">
        <ele>-3.20</ele>
        <time>2012-04-22T11:54:17Z</time>
      </trkpt>
      <trkpt lat="41.579021000" lon="2.551579100">
        <ele>-3.20</ele>
        <time>2012-04-22T11:54:19Z</time>
      </trkpt>
      <trkpt lat="41.579166000" lon="2.551454100">
        <ele>-2.30</ele>
        <time>2012-04-22T11:54:24Z</time>
      </trkpt>
      <trkpt lat="41.579254000" lon="2.551306100">
        <ele>-1.30</ele>
        <time>2012-04-22T11:54:29Z</time>
      </trkpt>
      <trkpt lat="41.579449000" lon="2.551161100">
        <ele>-1.30</ele>
        <time>2012-04-22T11:54:36Z</time>
      </trkpt>
      <trkpt lat="41.579712000" lon="2.550958100">
        <ele>0.10</ele>
        <time>2012-04-22T11:54:45Z</time>
      </trkpt>
      <trkpt lat="41.579983000" lon="2.550737100">
        <ele>1.10</ele>
        <time>2012-04-22T11:54:55Z</time>
      </trkpt>
      <trkpt lat="41.580196000" lon="2.550555100">
        <ele>1.60</ele>
        <time>2012-04-22T11:55:02Z</time>
      </trkpt>
      <trkpt lat="41.580509000" lon="2.550278100">
        <ele>3.50</ele>
        <time>2012-04-22T11:55:11Z</time>
      </trkpt>
      <trkpt lat="41.580818000" lon="2.550050100">
        <ele>4.50</ele>
        <time>2012-04-22T11:55:21Z</time>
      </trkpt>
      <trkpt lat="41.581051000" lon="2.549840100">
        <ele>5.90</ele>
        <time>2012-04-22T11:55:30Z</time>
      </trkpt>
      <trkpt lat="41.581326000" lon="2.549599100">
        <ele>7.30</ele>
        <time>2012-04-22T11:55:39Z</time>
      </trkpt>
      <trkpt lat="41.581429000" lon="2.549555100">
        <ele>7.30</ele>
        <time>2012-04-22T11:55:42Z</time>
      </trkpt>
      <trkpt lat="41.581696000" lon="2.549357100">
        <ele>8.30</ele>
        <time>2012-04-22T11:55:49Z</time>
      </trkpt>
      <trkpt lat="41.581951000" lon="2.549136100">
        <ele>9.80</ele>
        <time>2012-04-22T11:55:58Z</time>
      </trkpt>
      <trkpt lat="41.582233000" lon="2.548888100">
        <ele>11.20</ele>
        <time>2012-04-22T11:56:07Z</time>
      </trkpt>
      <trkpt lat="41.582500000" lon="2.548641100">
        <ele>13.10</ele>
        <time>2012-04-22T11:56:15Z</time>
      </trkpt>
      <trkpt lat="41.582745000" lon="2.548415100">
        <ele>14.10</ele>
        <time>2012-04-22T11:56:24Z</time>
      </trkpt>
      <trkpt lat="41.582973000" lon="2.548226100">
        <ele>15.00</ele>
        <time>2012-04-22T11:56:31Z</time>
      </trkpt>
      <trkpt lat="41.583263000" lon="2.547975100">
        <ele>17.00</ele>
        <time>2012-04-22T11:56:42Z</time>
      </trkpt>
      <trkpt lat="41.583492000" lon="2.547801100">
        <ele>17.90</ele>
        <time>2012-04-22T11:56:50Z</time>
      </trkpt>
      <trkpt lat="41.583790000" lon="2.547575100">
        <ele>19.40</ele>
        <time>2012-04-22T11:56:59Z</time>
      </trkpt>
      <trkpt lat="41.584084000" lon="2.547328100">
        <ele>20.80</ele>
        <time>2012-04-22T11:57:09Z</time>
      </trkpt>
      <trkpt lat="41.584415000" lon="2.547063100">
        <ele>21.80</ele>
        <time>2012-04-22T11:57:20Z</time>
      </trkpt>
      <trkpt lat="41.584644000" lon="2.546867100">
        <ele>23.20</ele>
        <time>2012-04-22T11:57:29Z</time>
      </trkpt>
      <trkpt lat="41.584915000" lon="2.546669100">
        <ele>24.20</ele>
        <time>2012-04-22T11:57:37Z</time>
      </trkpt>
      <trkpt lat="41.585274000" lon="2.546400100">
        <ele>26.10</ele>
        <time>2012-04-22T11:57:49Z</time>
      </trkpt>
      <trkpt lat="41.585468000" lon="2.546268100">
        <ele>27.00</ele>
        <time>2012-04-22T11:57:58Z</time>
      </trkpt>
      <trkpt lat="41.585678000" lon="2.546098100">
        <ele>28.50</ele>
        <time>2012-04-22T11:58:05Z</time>
      </trkpt>
      <trkpt lat="41.586048000" lon="2.545803100">
        <ele>29.90</ele>
        <time>2012-04-22T11:58:16Z</time>
      </trkpt>
      <trkpt lat="41.586380000" lon="2.545544100">
        <ele>31.40</ele>
        <time>2012-04-22T11:58:24Z</time>
      </trkpt>
      <trkpt lat="41.586613000" lon="2.545389100">
        <ele>32.30</ele>
        <time>2012-04-22T11:58:33Z</time>
      </trkpt>
      <trkpt lat="41.586662000" lon="2.545368100">
        <ele>32.80</ele>
        <time>2012-04-22T11:58:38Z</time>
      </trkpt>
      <trkpt lat="41.586662000" lon="2.545367100">
        <ele>33.30</ele>
        <time>2012-04-22T11:58:52Z</time>
      </trkpt>
      <trkpt lat="41.586658000" lon="2.545373100">
        <ele>33.80</ele>
        <time>2012-04-22T11:59:24Z</time>
      </trkpt>
      <trkpt lat="41.586666000" lon="2.545357100">
        <ele>33.80</ele>
        <time>2012-04-22T11:59:27Z</time>
      </trkpt>
      <trkpt lat="41.586876000" lon="2.545175100">
        <ele>33.80</ele>
        <time>2012-04-22T11:59:39Z</time>
      </trkpt>
      <trkpt lat="41.587086000" lon="2.545021100">
        <ele>35.20</ele>
        <time>2012-04-22T11:59:46Z</time>
      </trkpt>
      <trkpt lat="41.587475000" lon="2.544753100">
        <ele>36.20</ele>
        <time>2012-04-22T11:59:58Z</time>
      </trkpt>
      <trkpt lat="41.587753000" lon="2.544673100">
        <ele>37.20</ele>
        <time>2012-04-22T12:00:07Z</time>
      </trkpt>
      <trkpt lat="41.588142000" lon="2.544520100">
        <ele>39.10</ele>
        <time>2012-04-22T12:00:18Z</time>
      </trkpt>
      <trkpt lat="41.588482000" lon="2.544382100">
        <ele>40.00</ele>
        <time>2012-04-22T12:00:26Z</time>
      </trkpt>
      <trkpt lat="41.588860000" lon="2.544219100">
        <ele>42.00</ele>
        <time>2012-04-22T12:00:37Z</time>
      </trkpt>
      <trkpt lat="41.589165000" lon="2.544112100">
        <ele>42.90</ele>
        <time>2012-04-22T12:00:45Z</time>
      </trkpt>
      <trkpt lat="41.589577000" lon="2.543916100">
        <ele>45.30</ele>
        <time>2012-04-22T12:00:56Z</time>
      </trkpt>
      <trkpt lat="41.589905000" lon="2.543741100">
        <ele>46.30</ele>
        <time>2012-04-22T12:01:05Z</time>
      </trkpt>
      <trkpt lat="41.590328000" lon="2.543550100">
        <ele>48.20</ele>
        <time>2012-04-22T12:01:15Z</time>
      </trkpt>
      <trkpt lat="41.590706000" lon="2.543411100">
        <ele>49.70</ele>
        <time>2012-04-22T12:01:25Z</time>
      </trkpt>
      <trkpt lat="41.590965000" lon="2.543311100">
        <ele>51.10</ele>
        <time>2012-04-22T12:01:32Z</time>
      </trkpt>
      <trkpt lat="41.591255000" lon="2.543172100">
        <ele>52.00</ele>
        <time>2012-04-22T12:01:41Z</time>
      </trkpt>
      <trkpt lat="41.591625000" lon="2.543018100">
        <ele>54.00</ele>
        <time>2012-04-22T12:01:50Z</time>
      </trkpt>
      <trkpt lat="41.591995000" lon="2.542897100">
        <ele>55.40</ele>
        <time>2012-04-22T12:02:00Z</time>
      </trkpt>
      <trkpt lat="41.592468000" lon="2.542818100">
        <ele>57.30</ele>
        <time>2012-04-22T12:02:12Z</time>
      </trkpt>
      <trkpt lat="41.592857000" lon="2.542802100">
        <ele>58.80</ele>
        <time>2012-04-22T12:02:23Z</time>
      </trkpt>
      <trkpt lat="41.593216000" lon="2.542808100">
        <ele>60.20</ele>
        <time>2012-04-22T12:02:32Z</time>
      </trkpt>
      <trkpt lat="41.593655000" lon="2.542828100">
        <ele>62.10</ele>
        <time>2012-04-22T12:02:42Z</time>
      </trkpt>
      <trkpt lat="41.594074000" lon="2.542861100">
        <ele>64.10</ele>
        <time>2012-04-22T12:02:53Z</time>
      </trkpt>
      <trkpt lat="41.594410000" lon="2.542869100">
        <ele>65.50</ele>
        <time>2012-04-22T12:03:01Z</time>
      </trkpt>
      <trkpt lat="41.594749000" lon="2.542879100">
        <ele>66.00</ele>
        <time>2012-04-22T12:03:08Z</time>
      </trkpt>
      <trkpt lat="41.595169000" lon="2.542871100">
        <ele>67.40</ele>
        <time>2012-04-22T12:03:19Z</time>
      </trkpt>
      <trkpt lat="41.595509000" lon="2.542837100">
        <ele>68.40</ele>
        <time>2012-04-22T12:03:26Z</time>
      </trkpt>
      <trkpt lat="41.595924000" lon="2.542777100">
        <ele>69.80</ele>
        <time>2012-04-22T12:03:36Z</time>
      </trkpt>
      <trkpt lat="41.596344000" lon="2.542689100">
        <ele>71.30</ele>
        <time>2012-04-22T12:03:47Z</time>
      </trkpt>
      <trkpt lat="41.596802000" lon="2.542621100">
        <ele>73.20</ele>
        <time>2012-04-22T12:03:57Z</time>
      </trkpt>
      <trkpt lat="41.597256000" lon="2.542578100">
        <ele>75.10</ele>
        <time>2012-04-22T12:04:09Z</time>
      </trkpt>
      <trkpt lat="41.597729000" lon="2.542523100">
        <ele>77.00</ele>
        <time>2012-04-22T12:04:20Z</time>
      </trkpt>
      <trkpt lat="41.598164000" lon="2.542469100">
        <ele>78.50</ele>
        <time>2012-04-22T12:04:30Z</time>
      </trkpt>
      <trkpt lat="41.598705000" lon="2.542406100">
        <ele>80.90</ele>
        <time>2012-04-22T12:04:42Z</time>
      </trkpt>
      <trkpt lat="41.599159000" lon="2.542350100">
        <ele>82.30</ele>
        <time>2012-04-22T12:04:53Z</time>
      </trkpt>
      <trkpt lat="41.599609000" lon="2.542293100">
        <ele>84.20</ele>
        <time>2012-04-22T12:05:05Z</time>
      </trkpt>
      <trkpt lat="41.599995000" lon="2.542159100">
        <ele>85.70</ele>
        <time>2012-04-22T12:05:14Z</time>
      </trkpt>
      <trkpt lat="41.600353000" lon="2.542011100">
        <ele>87.60</ele>
        <time>2012-04-22T12:05:24Z</time>
      </trkpt>
      <trkpt lat="41.600807000" lon="2.541878100">
        <ele>88.60</ele>
        <time>2012-04-22T12:05:35Z</time>
      </trkpt>
      <trkpt lat="41.601055000" lon="2.541849100">
        <ele>89.50</ele>
        <time>2012-04-22T12:05:40Z</time>
      </trkpt>
      <trkpt lat="41.601463000" lon="2.541803100">
        <ele>91.50</ele>
        <time>2012-04-22T12:05:50Z</time>
      </trkpt>
      <trkpt lat="41.601501000" lon="2.541795100">
        <ele>91.50</ele>
        <time>2012-04-22T12:05:52Z</time>
      </trkpt>
      <trkpt lat="41.601940000" lon="2.541743100">
        <ele>93.40</ele>
        <time>2012-04-22T12:06:02Z</time>
      </trkpt>
      <trkpt lat="41.602295000" lon="2.541656100">
        <ele>94.80</ele>
        <time>2012-04-22T12:06:11Z</time>
      </trkpt>
      <trkpt lat="41.602673000" lon="2.541497100">
        <ele>95.80</ele>
        <time>2012-04-22T12:06:22Z</time>
      </trkpt>
      <trkpt lat="41.603024000" lon="2.541340100">
        <ele>97.70</ele>
        <time>2012-04-22T12:06:30Z</time>
      </trkpt>
      <trkpt lat="41.603355000" lon="2.541174100">
        <ele>99.20</ele>
        <time>2012-04-22T12:06:39Z</time>
      </trkpt>
      <trkpt lat="41.603664000" lon="2.541014100">
        <ele>100.10</ele>
        <time>2012-04-22T12:06:48Z</time>
      </trkpt>
      <trkpt lat="41.603970000" lon="2.540804100">
        <ele>101.60</ele>
        <time>2012-04-22T12:06:58Z</time>
      </trkpt>
      <trkpt lat="41.604366000" lon="2.540502100">
        <ele>103.00</ele>
        <time>2012-04-22T12:07:10Z</time>
      </trkpt>
      <trkpt lat="41.604733000" lon="2.540367100">
        <ele>104.90</ele>
        <time>2012-04-22T12:07:19Z</time>
      </trkpt>
      <trkpt lat="41.605045000" lon="2.540349100">
        <ele>105.90</ele>
        <time>2012-04-22T12:07:28Z</time>
      </trkpt>
      <trkpt lat="41.605457000" lon="2.540379100">
        <ele>107.30</ele>
        <time>2012-04-22T12:07:38Z</time>
      </trkpt>
      <trkpt lat="41.605511000" lon="2.540401100">
        <ele>107.80</ele>
        <time>2012-04-22T12:07:43Z</time>
      </trkpt>
      <trkpt lat="41.605511000" lon="2.540401100">
        <ele>107.80</ele>
        <time>2012-04-22T12:07:56Z</time>
      </trkpt>
      <trkpt lat="41.605625000" lon="2.540416100">
        <ele>109.70</ele>
        <time>2012-04-22T12:08:24Z</time>
      </trkpt>
      <trkpt lat="41.605652000" lon="2.540419100">
        <ele>109.70</ele>
        <time>2012-04-22T12:08:25Z</time>
      </trkpt>
      <trkpt lat="41.605896000" lon="2.540497100">
        <ele>110.20</ele>
        <time>2012-04-22T12:08:34Z</time>
      </trkpt>
      <trkpt lat="41.606190000" lon="2.540618100">
        <ele>110.70</ele>
        <time>2012-04-22T12:08:43Z</time>
      </trkpt>
      <trkpt lat="41.606461000" lon="2.540717100">
        <ele>111.70</ele>
        <time>2012-04-22T12:08:53Z</time>
      </trkpt>
      <trkpt lat="41.606541000" lon="2.540771100">
        <ele>112.10</ele>
        <time>2012-04-22T12:08:55Z</time>
      </trkpt>
      <trkpt lat="41.606632000" lon="2.540987100">
        <ele>112.60</ele>
        <time>2012-04-22T12:09:02Z</time>
      </trkpt>
      <trkpt lat="41.606697000" lon="2.541284100">
        <ele>114.50</ele>
        <time>2012-04-22T12:09:11Z</time>
      </trkpt>
      <trkpt lat="41.606754000" lon="2.541562100">
        <ele>115.50</ele>
        <time>2012-04-22T12:09:19Z</time>
      </trkpt>
      <trkpt lat="41.606834000" lon="2.541799100">
        <ele>116.90</ele>
        <time>2012-04-22T12:09:26Z</time>
      </trkpt>
      <trkpt lat="41.606926000" lon="2.542066100">
        <ele>118.90</ele>
        <time>2012-04-22T12:09:35Z</time>
      </trkpt>
      <trkpt lat="41.607002000" lon="2.542222100">
        <ele>119.80</ele>
        <time>2012-04-22T12:09:42Z</time>
      </trkpt>
      <trkpt lat="41.607029000" lon="2.542313100">
        <ele>120.80</ele>
        <time>2012-04-22T12:09:47Z</time>
      </trkpt>
      <trkpt lat="41.607063000" lon="2.542345100">
        <ele>121.70</ele>
        <time>2012-04-22T12:09:54Z</time>
      </trkpt>
      <trkpt lat="41.607063000" lon="2.542345100">
        <ele>121.70</ele>
        <time>2012-04-22T12:10:39Z</time>
      </trkpt>
    </trkseg>
  </trk>
</gpx>
